<?xml version="1.0" encoding="UTF-8"?>
<gpx version="1.1" creator="https://www.youtrack.es" xsi:schemaLocation="http://www.topografix.com/GPX/1/1 http://www.topografix.com/GPX/1/1/gpx.xsd http://www.garmin.com/xmlschemas/GpxExtensions/v3 http://www.garmin.com/xmlschemas/GpxExtensionsv3.xsd http://www.garmin.com/xmlschemas/TrackPointExtension/v1 http://www.garmin.com/xmlschemas/TrackPointExtensionv1.xsd" xmlns:gpxtpx="http://www.garmin.com/xmlschemas/TrackPointExtension/v1" xmlns:gpxx="http://www.garmin.com/xmlschemas/GpxExtensions/v3" xmlns:xsi="http://www.w3.org/2001/XMLSchema-instance">
  <metadata>
    <link href="https://www.youtrack.es">
      <text>YouTrack.es</text>
    </link>
    <time>2026-05-08T19:05:42Z</time>
  </metadata>
  <trk>
    <src>https://www.youtrack.es</src>
    <link href="https://www.youtrack.es/ruta/30371-carros-foc-2022-03-track-omar">
      <text>YouTrack.es</text>
    </link>
    <trkseg>
      <trkpt lat="42.658247" lon="0.870732">
        <ele>1384.716</ele>
        <time>2022-03-16T09:57:42Z</time>
      </trkpt>
      <trkpt lat="42.656915" lon="0.870599">
        <ele>1384.776</ele>
        <time>2022-03-16T10:15:13Z</time>
      </trkpt>
      <trkpt lat="42.656036" lon="0.870036">
        <ele>1373.713</ele>
        <time>2022-03-16T10:16:38Z</time>
      </trkpt>
      <trkpt lat="42.654786" lon="0.870328">
        <ele>1404.008</ele>
        <time>2022-03-16T10:18:34Z</time>
      </trkpt>
      <trkpt lat="42.654459" lon="0.870553">
        <ele>1413.320</ele>
        <time>2022-03-16T10:19:03Z</time>
      </trkpt>
      <trkpt lat="42.653774" lon="0.870572">
        <ele>1424.498</ele>
        <time>2022-03-16T10:20:30Z</time>
      </trkpt>
      <trkpt lat="42.653434" lon="0.870317">
        <ele>1419.328</ele>
        <time>2022-03-16T10:21:21Z</time>
      </trkpt>
      <trkpt lat="42.653121" lon="0.869256">
        <ele>1429.278</ele>
        <time>2022-03-16T10:22:51Z</time>
      </trkpt>
      <trkpt lat="42.652435" lon="0.868286">
        <ele>1447.314</ele>
        <time>2022-03-16T10:24:54Z</time>
      </trkpt>
      <trkpt lat="42.651576" lon="0.867758">
        <ele>1462.290</ele>
        <time>2022-03-16T10:26:58Z</time>
      </trkpt>
      <trkpt lat="42.650945" lon="0.867766">
        <ele>1476.162</ele>
        <time>2022-03-16T10:30:27Z</time>
      </trkpt>
      <trkpt lat="42.649924" lon="0.866828">
        <ele>1483.843</ele>
        <time>2022-03-16T10:38:04Z</time>
      </trkpt>
      <trkpt lat="42.649586" lon="0.865812">
        <ele>1497.296</ele>
        <time>2022-03-16T10:39:42Z</time>
      </trkpt>
      <trkpt lat="42.649547" lon="0.864687">
        <ele>1508.231</ele>
        <time>2022-03-16T10:41:23Z</time>
      </trkpt>
      <trkpt lat="42.649391" lon="0.864531">
        <ele>1503.024</ele>
        <time>2022-03-16T10:41:45Z</time>
      </trkpt>
      <trkpt lat="42.648787" lon="0.862626">
        <ele>1530.108</ele>
        <time>2022-03-16T10:44:48Z</time>
      </trkpt>
      <trkpt lat="42.648391" lon="0.862196">
        <ele>1531.148</ele>
        <time>2022-03-16T10:45:55Z</time>
      </trkpt>
      <trkpt lat="42.647873" lon="0.860533">
        <ele>1535.976</ele>
        <time>2022-03-16T10:48:39Z</time>
      </trkpt>
      <trkpt lat="42.647312" lon="0.859719">
        <ele>1549.216</ele>
        <time>2022-03-16T10:50:19Z</time>
      </trkpt>
      <trkpt lat="42.646903" lon="0.858750">
        <ele>1568.376</ele>
        <time>2022-03-16T10:52:07Z</time>
      </trkpt>
      <trkpt lat="42.645902" lon="0.857818">
        <ele>1573.062</ele>
        <time>2022-03-16T10:54:49Z</time>
      </trkpt>
      <trkpt lat="42.645311" lon="0.856101">
        <ele>1592.768</ele>
        <time>2022-03-16T10:58:30Z</time>
      </trkpt>
      <trkpt lat="42.644813" lon="0.855297">
        <ele>1596.330</ele>
        <time>2022-03-16T11:00:17Z</time>
      </trkpt>
      <trkpt lat="42.643992" lon="0.854758">
        <ele>1608.981</ele>
        <time>2022-03-16T11:02:14Z</time>
      </trkpt>
      <trkpt lat="42.643397" lon="0.854143">
        <ele>1606.128</ele>
        <time>2022-03-16T11:03:38Z</time>
      </trkpt>
      <trkpt lat="42.642854" lon="0.854094">
        <ele>1621.989</ele>
        <time>2022-03-16T11:06:29Z</time>
      </trkpt>
      <trkpt lat="42.642636" lon="0.853704">
        <ele>1637.317</ele>
        <time>2022-03-16T11:07:41Z</time>
      </trkpt>
      <trkpt lat="42.642100" lon="0.853450">
        <ele>1654.508</ele>
        <time>2022-03-16T11:09:27Z</time>
      </trkpt>
      <trkpt lat="42.642096" lon="0.853707">
        <ele>1653.291</ele>
        <time>2022-03-16T11:10:05Z</time>
      </trkpt>
      <trkpt lat="42.641934" lon="0.853727">
        <ele>1663.499</ele>
        <time>2022-03-16T11:10:42Z</time>
      </trkpt>
      <trkpt lat="42.641950" lon="0.854107">
        <ele>1674.159</ele>
        <time>2022-03-16T11:11:48Z</time>
      </trkpt>
      <trkpt lat="42.641549" lon="0.853890">
        <ele>1679.169</ele>
        <time>2022-03-16T11:13:23Z</time>
      </trkpt>
      <trkpt lat="42.641699" lon="0.854319">
        <ele>1687.595</ele>
        <time>2022-03-16T11:14:36Z</time>
      </trkpt>
      <trkpt lat="42.641506" lon="0.854267">
        <ele>1692.431</ele>
        <time>2022-03-16T11:15:19Z</time>
      </trkpt>
      <trkpt lat="42.641284" lon="0.853873">
        <ele>1720.753</ele>
        <time>2022-03-16T11:16:49Z</time>
      </trkpt>
      <trkpt lat="42.640989" lon="0.853902">
        <ele>1720.194</ele>
        <time>2022-03-16T11:17:13Z</time>
      </trkpt>
      <trkpt lat="42.641116" lon="0.854229">
        <ele>1725.461</ele>
        <time>2022-03-16T11:18:50Z</time>
      </trkpt>
      <trkpt lat="42.640627" lon="0.854248">
        <ele>1705.321</ele>
        <time>2022-03-16T11:19:44Z</time>
      </trkpt>
      <trkpt lat="42.640887" lon="0.854783">
        <ele>1753.013</ele>
        <time>2022-03-16T11:22:27Z</time>
      </trkpt>
      <trkpt lat="42.640574" lon="0.854824">
        <ele>1764.208</ele>
        <time>2022-03-16T11:23:45Z</time>
      </trkpt>
      <trkpt lat="42.640636" lon="0.855256">
        <ele>1772.285</ele>
        <time>2022-03-16T11:25:09Z</time>
      </trkpt>
      <trkpt lat="42.640418" lon="0.855179">
        <ele>1779.293</ele>
        <time>2022-03-16T11:26:20Z</time>
      </trkpt>
      <trkpt lat="42.640374" lon="0.855351">
        <ele>1792.423</ele>
        <time>2022-03-16T11:27:32Z</time>
      </trkpt>
      <trkpt lat="42.640269" lon="0.855245">
        <ele>1797.953</ele>
        <time>2022-03-16T11:28:07Z</time>
      </trkpt>
      <trkpt lat="42.640295" lon="0.855455">
        <ele>1802.649</ele>
        <time>2022-03-16T11:28:52Z</time>
      </trkpt>
      <trkpt lat="42.640145" lon="0.855521">
        <ele>1808.515</ele>
        <time>2022-03-16T11:29:46Z</time>
      </trkpt>
      <trkpt lat="42.639975" lon="0.855357">
        <ele>1815.787</ele>
        <time>2022-03-16T11:31:55Z</time>
      </trkpt>
      <trkpt lat="42.639834" lon="0.855797">
        <ele>1836.558</ele>
        <time>2022-03-16T11:34:43Z</time>
      </trkpt>
      <trkpt lat="42.639706" lon="0.855749">
        <ele>1838.058</ele>
        <time>2022-03-16T11:35:06Z</time>
      </trkpt>
      <trkpt lat="42.639783" lon="0.855997">
        <ele>1842.652</ele>
        <time>2022-03-16T11:35:44Z</time>
      </trkpt>
      <trkpt lat="42.639550" lon="0.856003">
        <ele>1844.317</ele>
        <time>2022-03-16T11:36:54Z</time>
      </trkpt>
      <trkpt lat="42.639610" lon="0.856157">
        <ele>1855.108</ele>
        <time>2022-03-16T11:39:06Z</time>
      </trkpt>
      <trkpt lat="42.639441" lon="0.856282">
        <ele>1856.234</ele>
        <time>2022-03-16T11:41:41Z</time>
      </trkpt>
      <trkpt lat="42.638958" lon="0.855840">
        <ele>1870.522</ele>
        <time>2022-03-16T11:43:18Z</time>
      </trkpt>
      <trkpt lat="42.638123" lon="0.855408">
        <ele>1891.952</ele>
        <time>2022-03-16T11:48:19Z</time>
      </trkpt>
      <trkpt lat="42.637635" lon="0.855725">
        <ele>1902.032</ele>
        <time>2022-03-16T11:50:04Z</time>
      </trkpt>
      <trkpt lat="42.636951" lon="0.855570">
        <ele>1927.288</ele>
        <time>2022-03-16T11:52:38Z</time>
      </trkpt>
      <trkpt lat="42.636563" lon="0.855220">
        <ele>1939.284</ele>
        <time>2022-03-16T11:53:46Z</time>
      </trkpt>
      <trkpt lat="42.635929" lon="0.855100">
        <ele>1954.546</ele>
        <time>2022-03-16T11:55:43Z</time>
      </trkpt>
      <trkpt lat="42.635658" lon="0.854731">
        <ele>1960.627</ele>
        <time>2022-03-16T11:56:59Z</time>
      </trkpt>
      <trkpt lat="42.635606" lon="0.855016">
        <ele>1966.433</ele>
        <time>2022-03-16T11:57:59Z</time>
      </trkpt>
      <trkpt lat="42.635354" lon="0.854633">
        <ele>1973.423</ele>
        <time>2022-03-16T11:59:09Z</time>
      </trkpt>
      <trkpt lat="42.635253" lon="0.855013">
        <ele>1990.515</ele>
        <time>2022-03-16T12:01:04Z</time>
      </trkpt>
      <trkpt lat="42.635018" lon="0.854819">
        <ele>2002.408</ele>
        <time>2022-03-16T12:03:24Z</time>
      </trkpt>
      <trkpt lat="42.634973" lon="0.854323">
        <ele>2013.992</ele>
        <time>2022-03-16T12:04:25Z</time>
      </trkpt>
      <trkpt lat="42.634647" lon="0.854696">
        <ele>2009.420</ele>
        <time>2022-03-16T12:07:56Z</time>
      </trkpt>
      <trkpt lat="42.634622" lon="0.854576">
        <ele>2011.090</ele>
        <time>2022-03-16T12:17:37Z</time>
      </trkpt>
      <trkpt lat="42.634713" lon="0.854778">
        <ele>2014.280</ele>
        <time>2022-03-16T12:34:23Z</time>
      </trkpt>
      <trkpt lat="42.634404" lon="0.854996">
        <ele>2016.076</ele>
        <time>2022-03-16T12:34:59Z</time>
      </trkpt>
      <trkpt lat="42.634168" lon="0.855432">
        <ele>2012.942</ele>
        <time>2022-03-16T12:35:53Z</time>
      </trkpt>
      <trkpt lat="42.633081" lon="0.855962">
        <ele>2031.174</ele>
        <time>2022-03-16T12:38:48Z</time>
      </trkpt>
      <trkpt lat="42.632848" lon="0.855934">
        <ele>2039.155</ele>
        <time>2022-03-16T12:39:34Z</time>
      </trkpt>
      <trkpt lat="42.632804" lon="0.857173">
        <ele>2057.872</ele>
        <time>2022-03-16T12:44:43Z</time>
      </trkpt>
      <trkpt lat="42.632553" lon="0.857330">
        <ele>2063.013</ele>
        <time>2022-03-16T12:45:45Z</time>
      </trkpt>
      <trkpt lat="42.632473" lon="0.857674">
        <ele>2071.014</ele>
        <time>2022-03-16T12:46:44Z</time>
      </trkpt>
      <trkpt lat="42.632965" lon="0.857763">
        <ele>2080.608</ele>
        <time>2022-03-16T12:49:43Z</time>
      </trkpt>
      <trkpt lat="42.632663" lon="0.858559">
        <ele>2089.366</ele>
        <time>2022-03-16T12:52:28Z</time>
      </trkpt>
      <trkpt lat="42.632987" lon="0.858651">
        <ele>2100.864</ele>
        <time>2022-03-16T12:53:48Z</time>
      </trkpt>
      <trkpt lat="42.632853" lon="0.859073">
        <ele>2120.284</ele>
        <time>2022-03-16T12:55:46Z</time>
      </trkpt>
      <trkpt lat="42.633174" lon="0.859034">
        <ele>2127.264</ele>
        <time>2022-03-16T12:56:57Z</time>
      </trkpt>
      <trkpt lat="42.632796" lon="0.859672">
        <ele>2154.830</ele>
        <time>2022-03-16T13:00:29Z</time>
      </trkpt>
      <trkpt lat="42.632905" lon="0.859829">
        <ele>2155.336</ele>
        <time>2022-03-16T13:01:59Z</time>
      </trkpt>
      <trkpt lat="42.632725" lon="0.860112">
        <ele>2158.078</ele>
        <time>2022-03-16T13:03:21Z</time>
      </trkpt>
      <trkpt lat="42.632843" lon="0.860209">
        <ele>2168.289</ele>
        <time>2022-03-16T13:03:57Z</time>
      </trkpt>
      <trkpt lat="42.632596" lon="0.860784">
        <ele>2191.441</ele>
        <time>2022-03-16T13:07:05Z</time>
      </trkpt>
      <trkpt lat="42.632730" lon="0.861819">
        <ele>2234.481</ele>
        <time>2022-03-16T13:11:20Z</time>
      </trkpt>
      <trkpt lat="42.632163" lon="0.863234">
        <ele>2232.009</ele>
        <time>2022-03-16T13:13:25Z</time>
      </trkpt>
      <trkpt lat="42.631676" lon="0.865417">
        <ele>2223.808</ele>
        <time>2022-03-16T13:16:24Z</time>
      </trkpt>
      <trkpt lat="42.630759" lon="0.866751">
        <ele>2247.393</ele>
        <time>2022-03-16T13:19:38Z</time>
      </trkpt>
      <trkpt lat="42.630250" lon="0.868054">
        <ele>2268.781</ele>
        <time>2022-03-16T13:23:05Z</time>
      </trkpt>
      <trkpt lat="42.630250" lon="0.868458">
        <ele>2269.311</ele>
        <time>2022-03-16T13:25:23Z</time>
      </trkpt>
      <trkpt lat="42.629639" lon="0.869825">
        <ele>2311.451</ele>
        <time>2022-03-16T13:29:55Z</time>
      </trkpt>
      <trkpt lat="42.629237" lon="0.870273">
        <ele>2325.537</ele>
        <time>2022-03-16T13:32:02Z</time>
      </trkpt>
      <trkpt lat="42.629085" lon="0.870250">
        <ele>2336.263</ele>
        <time>2022-03-16T13:39:33Z</time>
      </trkpt>
      <trkpt lat="42.628376" lon="0.871239">
        <ele>2366.645</ele>
        <time>2022-03-16T13:44:30Z</time>
      </trkpt>
      <trkpt lat="42.627836" lon="0.872485">
        <ele>2385.556</ele>
        <time>2022-03-16T13:48:35Z</time>
      </trkpt>
      <trkpt lat="42.627698" lon="0.872555">
        <ele>2389.319</ele>
        <time>2022-03-16T13:49:20Z</time>
      </trkpt>
      <trkpt lat="42.627621" lon="0.872400">
        <ele>2396.809</ele>
        <time>2022-03-16T13:49:51Z</time>
      </trkpt>
      <trkpt lat="42.627433" lon="0.872798">
        <ele>2402.819</ele>
        <time>2022-03-16T13:51:21Z</time>
      </trkpt>
      <trkpt lat="42.627251" lon="0.872813">
        <ele>2411.508</ele>
        <time>2022-03-16T13:52:05Z</time>
      </trkpt>
      <trkpt lat="42.627196" lon="0.873097">
        <ele>2410.510</ele>
        <time>2022-03-16T13:53:01Z</time>
      </trkpt>
      <trkpt lat="42.627302" lon="0.873215">
        <ele>2413.548</ele>
        <time>2022-03-16T13:53:23Z</time>
      </trkpt>
      <trkpt lat="42.626948" lon="0.873641">
        <ele>2424.778</ele>
        <time>2022-03-16T13:54:48Z</time>
      </trkpt>
      <trkpt lat="42.626966" lon="0.874001">
        <ele>2430.718</ele>
        <time>2022-03-16T13:55:36Z</time>
      </trkpt>
      <trkpt lat="42.626588" lon="0.874228">
        <ele>2449.464</ele>
        <time>2022-03-16T13:57:11Z</time>
      </trkpt>
      <trkpt lat="42.626286" lon="0.874730">
        <ele>2463.570</ele>
        <time>2022-03-16T13:59:09Z</time>
      </trkpt>
      <trkpt lat="42.626493" lon="0.875096">
        <ele>2475.612</ele>
        <time>2022-03-16T14:00:27Z</time>
      </trkpt>
      <trkpt lat="42.626197" lon="0.875363">
        <ele>2486.833</ele>
        <time>2022-03-16T14:02:35Z</time>
      </trkpt>
      <trkpt lat="42.625958" lon="0.876614">
        <ele>2472.334</ele>
        <time>2022-03-16T14:13:14Z</time>
      </trkpt>
      <trkpt lat="42.626278" lon="0.877362">
        <ele>2463.055</ele>
        <time>2022-03-16T14:14:22Z</time>
      </trkpt>
      <trkpt lat="42.626255" lon="0.877927">
        <ele>2474.710</ele>
        <time>2022-03-16T14:27:09Z</time>
      </trkpt>
      <trkpt lat="42.626454" lon="0.878537">
        <ele>2481.408</ele>
        <time>2022-03-16T14:28:19Z</time>
      </trkpt>
      <trkpt lat="42.626631" lon="0.878650">
        <ele>2480.552</ele>
        <time>2022-03-16T14:29:02Z</time>
      </trkpt>
      <trkpt lat="42.626651" lon="0.879018">
        <ele>2487.040</ele>
        <time>2022-03-16T14:29:58Z</time>
      </trkpt>
      <trkpt lat="42.626992" lon="0.878669">
        <ele>2492.610</ele>
        <time>2022-03-16T14:31:16Z</time>
      </trkpt>
      <trkpt lat="42.627190" lon="0.878793">
        <ele>2503.180</ele>
        <time>2022-03-16T14:32:20Z</time>
      </trkpt>
      <trkpt lat="42.627641" lon="0.878100">
        <ele>2531.016</ele>
        <time>2022-03-16T14:35:28Z</time>
      </trkpt>
      <trkpt lat="42.627934" lon="0.878411">
        <ele>2536.282</ele>
        <time>2022-03-16T14:37:04Z</time>
      </trkpt>
      <trkpt lat="42.628144" lon="0.878042">
        <ele>2544.674</ele>
        <time>2022-03-16T14:38:30Z</time>
      </trkpt>
      <trkpt lat="42.628308" lon="0.878434">
        <ele>2556.835</ele>
        <time>2022-03-16T14:39:40Z</time>
      </trkpt>
      <trkpt lat="42.628822" lon="0.878240">
        <ele>2562.285</ele>
        <time>2022-03-16T14:43:54Z</time>
      </trkpt>
      <trkpt lat="42.629093" lon="0.878897">
        <ele>2587.989</ele>
        <time>2022-03-16T14:45:59Z</time>
      </trkpt>
      <trkpt lat="42.629294" lon="0.878574">
        <ele>2591.317</ele>
        <time>2022-03-16T14:47:50Z</time>
      </trkpt>
      <trkpt lat="42.629624" lon="0.878766">
        <ele>2594.808</ele>
        <time>2022-03-16T14:49:34Z</time>
      </trkpt>
      <trkpt lat="42.629768" lon="0.878291">
        <ele>2610.287</ele>
        <time>2022-03-16T14:51:46Z</time>
      </trkpt>
      <trkpt lat="42.629987" lon="0.878264">
        <ele>2615.255</ele>
        <time>2022-03-16T14:54:11Z</time>
      </trkpt>
      <trkpt lat="42.629969" lon="0.877897">
        <ele>2627.925</ele>
        <time>2022-03-16T14:56:17Z</time>
      </trkpt>
      <trkpt lat="42.631690" lon="0.879186">
        <ele>2726.535</ele>
        <time>2022-03-16T15:24:21Z</time>
      </trkpt>
      <trkpt lat="42.631879" lon="0.879135">
        <ele>2721.321</ele>
        <time>2022-03-16T15:26:46Z</time>
      </trkpt>
      <trkpt lat="42.632050" lon="0.878764">
        <ele>2719.157</ele>
        <time>2022-03-16T15:27:35Z</time>
      </trkpt>
      <trkpt lat="42.631636" lon="0.877346">
        <ele>2733.049</ele>
        <time>2022-03-16T15:30:46Z</time>
      </trkpt>
      <trkpt lat="42.631726" lon="0.876660">
        <ele>2740.040</ele>
        <time>2022-03-16T15:31:48Z</time>
      </trkpt>
      <trkpt lat="42.632001" lon="0.876184">
        <ele>2757.634</ele>
        <time>2022-03-16T15:40:17Z</time>
      </trkpt>
      <trkpt lat="42.632501" lon="0.876149">
        <ele>2779.855</ele>
        <time>2022-03-16T15:43:28Z</time>
      </trkpt>
      <trkpt lat="42.632381" lon="0.875825">
        <ele>2779.610</ele>
        <time>2022-03-16T15:44:45Z</time>
      </trkpt>
      <trkpt lat="42.632569" lon="0.875897">
        <ele>2793.508</ele>
        <time>2022-03-16T15:45:56Z</time>
      </trkpt>
      <trkpt lat="42.632811" lon="0.875613">
        <ele>2807.782</ele>
        <time>2022-03-16T15:53:44Z</time>
      </trkpt>
      <trkpt lat="42.633320" lon="0.875698">
        <ele>2831.850</ele>
        <time>2022-03-16T15:58:08Z</time>
      </trkpt>
      <trkpt lat="42.633312" lon="0.875379">
        <ele>2836.850</ele>
        <time>2022-03-16T16:00:38Z</time>
      </trkpt>
      <trkpt lat="42.632405" lon="0.875939">
        <ele>2786.430</ele>
        <time>2022-03-16T16:21:49Z</time>
      </trkpt>
      <trkpt lat="42.632339" lon="0.876220">
        <ele>2781.726</ele>
        <time>2022-03-16T16:22:19Z</time>
      </trkpt>
      <trkpt lat="42.631886" lon="0.876340">
        <ele>2764.442</ele>
        <time>2022-03-16T16:22:41Z</time>
      </trkpt>
      <trkpt lat="42.631756" lon="0.876568">
        <ele>2769.294</ele>
        <time>2022-03-16T16:29:49Z</time>
      </trkpt>
      <trkpt lat="42.631663" lon="0.877100">
        <ele>2764.995</ele>
        <time>2022-03-16T16:29:59Z</time>
      </trkpt>
      <trkpt lat="42.631946" lon="0.878739">
        <ele>2745.675</ele>
        <time>2022-03-16T16:31:05Z</time>
      </trkpt>
      <trkpt lat="42.631738" lon="0.879021">
        <ele>2739.928</ele>
        <time>2022-03-16T16:32:25Z</time>
      </trkpt>
      <trkpt lat="42.631582" lon="0.879091">
        <ele>2736.820</ele>
        <time>2022-03-16T16:32:41Z</time>
      </trkpt>
      <trkpt lat="42.631545" lon="0.878897">
        <ele>2726.708</ele>
        <time>2022-03-16T16:32:54Z</time>
      </trkpt>
      <trkpt lat="42.631407" lon="0.878985">
        <ele>2722.136</ele>
        <time>2022-03-16T16:33:01Z</time>
      </trkpt>
      <trkpt lat="42.631376" lon="0.878357">
        <ele>2711.294</ele>
        <time>2022-03-16T16:33:31Z</time>
      </trkpt>
      <trkpt lat="42.631174" lon="0.878515">
        <ele>2709.194</ele>
        <time>2022-03-16T16:34:24Z</time>
      </trkpt>
      <trkpt lat="42.630917" lon="0.878196">
        <ele>2698.774</ele>
        <time>2022-03-16T16:35:06Z</time>
      </trkpt>
      <trkpt lat="42.630541" lon="0.878256">
        <ele>2680.840</ele>
        <time>2022-03-16T16:36:00Z</time>
      </trkpt>
      <trkpt lat="42.630401" lon="0.878015">
        <ele>2670.436</ele>
        <time>2022-03-16T16:36:11Z</time>
      </trkpt>
      <trkpt lat="42.630342" lon="0.878127">
        <ele>2660.738</ele>
        <time>2022-03-16T16:36:19Z</time>
      </trkpt>
      <trkpt lat="42.630111" lon="0.877872">
        <ele>2650.539</ele>
        <time>2022-03-16T16:36:27Z</time>
      </trkpt>
      <trkpt lat="42.630040" lon="0.878059">
        <ele>2640.127</ele>
        <time>2022-03-16T16:36:36Z</time>
      </trkpt>
      <trkpt lat="42.629702" lon="0.877819">
        <ele>2626.468</ele>
        <time>2022-03-16T16:37:43Z</time>
      </trkpt>
      <trkpt lat="42.629477" lon="0.878120">
        <ele>2617.014</ele>
        <time>2022-03-16T16:38:55Z</time>
      </trkpt>
      <trkpt lat="42.629058" lon="0.878192">
        <ele>2593.708</ele>
        <time>2022-03-16T16:40:00Z</time>
      </trkpt>
      <trkpt lat="42.628901" lon="0.877826">
        <ele>2581.531</ele>
        <time>2022-03-16T16:41:00Z</time>
      </trkpt>
      <trkpt lat="42.628940" lon="0.878038">
        <ele>2574.019</ele>
        <time>2022-03-16T16:41:12Z</time>
      </trkpt>
      <trkpt lat="42.628681" lon="0.878500">
        <ele>2563.279</ele>
        <time>2022-03-16T16:42:41Z</time>
      </trkpt>
      <trkpt lat="42.628619" lon="0.878258">
        <ele>2561.299</ele>
        <time>2022-03-16T16:42:51Z</time>
      </trkpt>
      <trkpt lat="42.628391" lon="0.878238">
        <ele>2557.655</ele>
        <time>2022-03-16T16:43:03Z</time>
      </trkpt>
      <trkpt lat="42.627793" lon="0.878713">
        <ele>2538.341</ele>
        <time>2022-03-16T16:45:32Z</time>
      </trkpt>
      <trkpt lat="42.627643" lon="0.878034">
        <ele>2529.693</ele>
        <time>2022-03-16T16:45:58Z</time>
      </trkpt>
      <trkpt lat="42.627401" lon="0.878635">
        <ele>2522.014</ele>
        <time>2022-03-16T16:47:05Z</time>
      </trkpt>
      <trkpt lat="42.626787" lon="0.879262">
        <ele>2502.862</ele>
        <time>2022-03-16T16:47:33Z</time>
      </trkpt>
      <trkpt lat="42.626569" lon="0.879112">
        <ele>2493.983</ele>
        <time>2022-03-16T16:48:16Z</time>
      </trkpt>
      <trkpt lat="42.626524" lon="0.878472">
        <ele>2484.511</ele>
        <time>2022-03-16T16:49:03Z</time>
      </trkpt>
      <trkpt lat="42.626266" lon="0.877816">
        <ele>2469.408</ele>
        <time>2022-03-16T16:49:15Z</time>
      </trkpt>
      <trkpt lat="42.626198" lon="0.877894">
        <ele>2467.085</ele>
        <time>2022-03-16T17:12:13Z</time>
      </trkpt>
      <trkpt lat="42.626266" lon="0.877581">
        <ele>2466.913</ele>
        <time>2022-03-16T17:13:50Z</time>
      </trkpt>
      <trkpt lat="42.626131" lon="0.877434">
        <ele>2465.623</ele>
        <time>2022-03-16T17:16:05Z</time>
      </trkpt>
      <trkpt lat="42.625744" lon="0.877570">
        <ele>2461.533</ele>
        <time>2022-03-16T17:16:28Z</time>
      </trkpt>
      <trkpt lat="42.625336" lon="0.877505">
        <ele>2456.959</ele>
        <time>2022-03-16T17:16:48Z</time>
      </trkpt>
      <trkpt lat="42.625207" lon="0.876065">
        <ele>2450.475</ele>
        <time>2022-03-16T17:17:32Z</time>
      </trkpt>
      <trkpt lat="42.624934" lon="0.875669">
        <ele>2441.177</ele>
        <time>2022-03-16T17:17:46Z</time>
      </trkpt>
      <trkpt lat="42.624669" lon="0.875591">
        <ele>2442.398</ele>
        <time>2022-03-16T17:18:17Z</time>
      </trkpt>
      <trkpt lat="42.624688" lon="0.876016">
        <ele>2438.477</ele>
        <time>2022-03-16T17:19:18Z</time>
      </trkpt>
      <trkpt lat="42.624345" lon="0.875876">
        <ele>2431.861</ele>
        <time>2022-03-16T17:19:44Z</time>
      </trkpt>
      <trkpt lat="42.623524" lon="0.876662">
        <ele>2418.027</ele>
        <time>2022-03-16T17:20:52Z</time>
      </trkpt>
      <trkpt lat="42.622805" lon="0.878099">
        <ele>2423.308</ele>
        <time>2022-03-16T17:23:16Z</time>
      </trkpt>
      <trkpt lat="42.622519" lon="0.878384">
        <ele>2423.236</ele>
        <time>2022-03-16T17:23:52Z</time>
      </trkpt>
      <trkpt lat="42.621343" lon="0.878568">
        <ele>2431.194</ele>
        <time>2022-03-16T17:28:47Z</time>
      </trkpt>
      <trkpt lat="42.620729" lon="0.878484">
        <ele>2427.334</ele>
        <time>2022-03-16T17:30:04Z</time>
      </trkpt>
      <trkpt lat="42.620094" lon="0.879010">
        <ele>2425.334</ele>
        <time>2022-03-16T17:30:36Z</time>
      </trkpt>
      <trkpt lat="42.619650" lon="0.879007">
        <ele>2422.180</ele>
        <time>2022-03-16T17:30:59Z</time>
      </trkpt>
      <trkpt lat="42.619240" lon="0.879647">
        <ele>2413.646</ele>
        <time>2022-03-16T17:32:00Z</time>
      </trkpt>
      <trkpt lat="42.618919" lon="0.879805">
        <ele>2408.778</ele>
        <time>2022-03-16T17:32:10Z</time>
      </trkpt>
      <trkpt lat="42.619049" lon="0.880042">
        <ele>2401.719</ele>
        <time>2022-03-16T17:32:26Z</time>
      </trkpt>
      <trkpt lat="42.618787" lon="0.880140">
        <ele>2397.334</ele>
        <time>2022-03-16T17:32:55Z</time>
      </trkpt>
      <trkpt lat="42.618494" lon="0.880504">
        <ele>2392.855</ele>
        <time>2022-03-16T17:33:28Z</time>
      </trkpt>
      <trkpt lat="42.618569" lon="0.881013">
        <ele>2390.010</ele>
        <time>2022-03-16T17:34:07Z</time>
      </trkpt>
      <trkpt lat="42.617938" lon="0.881293">
        <ele>2381.808</ele>
        <time>2022-03-16T17:34:27Z</time>
      </trkpt>
      <trkpt lat="42.617164" lon="0.881957">
        <ele>2372.612</ele>
        <time>2022-03-16T17:35:37Z</time>
      </trkpt>
      <trkpt lat="42.616861" lon="0.881985">
        <ele>2367.760</ele>
        <time>2022-03-16T17:36:43Z</time>
      </trkpt>
      <trkpt lat="42.615986" lon="0.883392">
        <ele>2343.480</ele>
        <time>2022-03-16T17:37:33Z</time>
      </trkpt>
      <trkpt lat="42.615529" lon="0.883763">
        <ele>2343.580</ele>
        <time>2022-03-16T17:37:54Z</time>
      </trkpt>
      <trkpt lat="42.615177" lon="0.884349">
        <ele>2334.756</ele>
        <time>2022-03-16T17:38:48Z</time>
      </trkpt>
      <trkpt lat="42.615207" lon="0.884054">
        <ele>2332.872</ele>
        <time>2022-03-16T17:39:42Z</time>
      </trkpt>
      <trkpt lat="42.614801" lon="0.884394">
        <ele>2323.764</ele>
        <time>2022-03-16T17:41:03Z</time>
      </trkpt>
      <trkpt lat="42.614391" lon="0.882912">
        <ele>2310.785</ele>
        <time>2022-03-16T17:42:56Z</time>
      </trkpt>
      <trkpt lat="42.614125" lon="0.882643">
        <ele>2305.156</ele>
        <time>2022-03-16T17:43:14Z</time>
      </trkpt>
      <trkpt lat="42.613985" lon="0.882209">
        <ele>2301.559</ele>
        <time>2022-03-16T17:43:24Z</time>
      </trkpt>
      <trkpt lat="42.613414" lon="0.882420">
        <ele>2293.914</ele>
        <time>2022-03-16T17:43:50Z</time>
      </trkpt>
      <trkpt lat="42.612179" lon="0.882236">
        <ele>2283.908</ele>
        <time>2022-03-16T17:44:23Z</time>
      </trkpt>
      <trkpt lat="42.611730" lon="0.882431">
        <ele>2281.014</ele>
        <time>2022-03-16T17:44:58Z</time>
      </trkpt>
      <trkpt lat="42.611309" lon="0.882014">
        <ele>2281.452</ele>
        <time>2022-03-16T17:47:21Z</time>
      </trkpt>
      <trkpt lat="42.610773" lon="0.881810">
        <ele>2278.092</ele>
        <time>2022-03-16T17:47:48Z</time>
      </trkpt>
      <trkpt lat="42.610035" lon="0.880386">
        <ele>2255.662</ele>
        <time>2022-03-16T17:50:11Z</time>
      </trkpt>
      <trkpt lat="42.608629" lon="0.878395">
        <ele>2249.918</ele>
        <time>2022-03-16T17:53:10Z</time>
      </trkpt>
      <trkpt lat="42.607249" lon="0.878033">
        <ele>2239.374</ele>
        <time>2022-03-16T17:55:47Z</time>
      </trkpt>
      <trkpt lat="42.607062" lon="0.877592">
        <ele>2234.026</ele>
        <time>2022-03-16T17:56:32Z</time>
      </trkpt>
      <trkpt lat="42.606364" lon="0.877177">
        <ele>2237.037</ele>
        <time>2022-03-16T17:58:16Z</time>
      </trkpt>
      <trkpt lat="42.605668" lon="0.877086">
        <ele>2226.311</ele>
        <time>2022-03-16T17:58:39Z</time>
      </trkpt>
      <trkpt lat="42.605338" lon="0.877324">
        <ele>2217.021</ele>
        <time>2022-03-16T18:00:35Z</time>
      </trkpt>
      <trkpt lat="42.605272" lon="0.877404">
        <ele>2221.924</ele>
        <time>2022-03-17T09:11:41Z</time>
      </trkpt>
      <trkpt lat="42.604525" lon="0.879500">
        <ele>2209.204</ele>
        <time>2022-03-17T09:15:31Z</time>
      </trkpt>
      <trkpt lat="42.604048" lon="0.879914">
        <ele>2202.514</ele>
        <time>2022-03-17T09:16:55Z</time>
      </trkpt>
      <trkpt lat="42.604074" lon="0.880207">
        <ele>2199.608</ele>
        <time>2022-03-17T09:18:07Z</time>
      </trkpt>
      <trkpt lat="42.603869" lon="0.880241">
        <ele>2182.331</ele>
        <time>2022-03-17T09:20:07Z</time>
      </trkpt>
      <trkpt lat="42.602946" lon="0.881765">
        <ele>2144.610</ele>
        <time>2022-03-17T09:30:32Z</time>
      </trkpt>
      <trkpt lat="42.602818" lon="0.883387">
        <ele>2159.432</ele>
        <time>2022-03-17T09:34:50Z</time>
      </trkpt>
      <trkpt lat="42.603057" lon="0.884674">
        <ele>2160.992</ele>
        <time>2022-03-17T09:37:20Z</time>
      </trkpt>
      <trkpt lat="42.602889" lon="0.884871">
        <ele>2163.091</ele>
        <time>2022-03-17T09:38:08Z</time>
      </trkpt>
      <trkpt lat="42.603261" lon="0.884987">
        <ele>2166.540</ele>
        <time>2022-03-17T09:38:52Z</time>
      </trkpt>
      <trkpt lat="42.603324" lon="0.885558">
        <ele>2168.350</ele>
        <time>2022-03-17T09:39:53Z</time>
      </trkpt>
      <trkpt lat="42.603299" lon="0.887822">
        <ele>2186.685</ele>
        <time>2022-03-17T09:45:23Z</time>
      </trkpt>
      <trkpt lat="42.603093" lon="0.888627">
        <ele>2178.987</ele>
        <time>2022-03-17T09:46:52Z</time>
      </trkpt>
      <trkpt lat="42.602927" lon="0.888802">
        <ele>2183.542</ele>
        <time>2022-03-17T09:47:25Z</time>
      </trkpt>
      <trkpt lat="42.602824" lon="0.888554">
        <ele>2190.526</ele>
        <time>2022-03-17T09:48:05Z</time>
      </trkpt>
      <trkpt lat="42.602264" lon="0.888993">
        <ele>2206.408</ele>
        <time>2022-03-17T09:49:44Z</time>
      </trkpt>
      <trkpt lat="42.601562" lon="0.889289">
        <ele>2202.387</ele>
        <time>2022-03-17T09:51:07Z</time>
      </trkpt>
      <trkpt lat="42.600947" lon="0.890135">
        <ele>2185.946</ele>
        <time>2022-03-17T09:56:53Z</time>
      </trkpt>
      <trkpt lat="42.600370" lon="0.890454">
        <ele>2185.388</ele>
        <time>2022-03-17T09:57:57Z</time>
      </trkpt>
      <trkpt lat="42.600034" lon="0.890427">
        <ele>2191.138</ele>
        <time>2022-03-17T09:58:37Z</time>
      </trkpt>
      <trkpt lat="42.598975" lon="0.891535">
        <ele>2208.687</ele>
        <time>2022-03-17T10:02:02Z</time>
      </trkpt>
      <trkpt lat="42.598588" lon="0.892401">
        <ele>2208.966</ele>
        <time>2022-03-17T10:03:42Z</time>
      </trkpt>
      <trkpt lat="42.598295" lon="0.892664">
        <ele>2210.236</ele>
        <time>2022-03-17T10:04:36Z</time>
      </trkpt>
      <trkpt lat="42.598203" lon="0.893238">
        <ele>2216.771</ele>
        <time>2022-03-17T10:06:05Z</time>
      </trkpt>
      <trkpt lat="42.598026" lon="0.893370">
        <ele>2223.315</ele>
        <time>2022-03-17T10:07:05Z</time>
      </trkpt>
      <trkpt lat="42.597675" lon="0.894276">
        <ele>2234.865</ele>
        <time>2022-03-17T10:09:38Z</time>
      </trkpt>
      <trkpt lat="42.597442" lon="0.894459">
        <ele>2238.011</ele>
        <time>2022-03-17T10:11:00Z</time>
      </trkpt>
      <trkpt lat="42.597326" lon="0.895610">
        <ele>2250.408</ele>
        <time>2022-03-17T10:14:33Z</time>
      </trkpt>
      <trkpt lat="42.597481" lon="0.895840">
        <ele>2253.380</ele>
        <time>2022-03-17T10:15:17Z</time>
      </trkpt>
      <trkpt lat="42.596969" lon="0.895959">
        <ele>2272.989</ele>
        <time>2022-03-17T10:16:49Z</time>
      </trkpt>
      <trkpt lat="42.597084" lon="0.896340">
        <ele>2273.971</ele>
        <time>2022-03-17T10:20:53Z</time>
      </trkpt>
      <trkpt lat="42.596790" lon="0.896379">
        <ele>2276.591</ele>
        <time>2022-03-17T10:24:08Z</time>
      </trkpt>
      <trkpt lat="42.596584" lon="0.896979">
        <ele>2299.190</ele>
        <time>2022-03-17T10:26:12Z</time>
      </trkpt>
      <trkpt lat="42.596411" lon="0.897059">
        <ele>2305.299</ele>
        <time>2022-03-17T10:26:47Z</time>
      </trkpt>
      <trkpt lat="42.595745" lon="0.899199">
        <ele>2354.749</ele>
        <time>2022-03-17T10:33:20Z</time>
      </trkpt>
      <trkpt lat="42.595424" lon="0.899622">
        <ele>2361.744</ele>
        <time>2022-03-17T10:34:50Z</time>
      </trkpt>
      <trkpt lat="42.594759" lon="0.900017">
        <ele>2372.974</ele>
        <time>2022-03-17T10:37:37Z</time>
      </trkpt>
      <trkpt lat="42.594253" lon="0.900760">
        <ele>2388.256</ele>
        <time>2022-03-17T10:40:11Z</time>
      </trkpt>
      <trkpt lat="42.594095" lon="0.901249">
        <ele>2395.321</ele>
        <time>2022-03-17T10:42:48Z</time>
      </trkpt>
      <trkpt lat="42.594230" lon="0.901406">
        <ele>2397.508</ele>
        <time>2022-03-17T10:43:29Z</time>
      </trkpt>
      <trkpt lat="42.593910" lon="0.901524">
        <ele>2413.826</ele>
        <time>2022-03-17T10:46:43Z</time>
      </trkpt>
      <trkpt lat="42.593840" lon="0.901637">
        <ele>2414.485</ele>
        <time>2022-03-17T10:47:05Z</time>
      </trkpt>
      <trkpt lat="42.594000" lon="0.901874">
        <ele>2428.437</ele>
        <time>2022-03-17T10:48:45Z</time>
      </trkpt>
      <trkpt lat="42.593749" lon="0.902051">
        <ele>2450.087</ele>
        <time>2022-03-17T10:50:14Z</time>
      </trkpt>
      <trkpt lat="42.593535" lon="0.902668">
        <ele>2468.866</ele>
        <time>2022-03-17T10:58:45Z</time>
      </trkpt>
      <trkpt lat="42.593190" lon="0.902958">
        <ele>2481.785</ele>
        <time>2022-03-17T11:00:11Z</time>
      </trkpt>
      <trkpt lat="42.592940" lon="0.904432">
        <ele>2513.495</ele>
        <time>2022-03-17T11:10:56Z</time>
      </trkpt>
      <trkpt lat="42.592482" lon="0.904872">
        <ele>2512.960</ele>
        <time>2022-03-17T11:12:27Z</time>
      </trkpt>
      <trkpt lat="42.592408" lon="0.905297">
        <ele>2519.938</ele>
        <time>2022-03-17T11:13:26Z</time>
      </trkpt>
      <trkpt lat="42.592102" lon="0.905555">
        <ele>2526.270</ele>
        <time>2022-03-17T11:14:06Z</time>
      </trkpt>
      <trkpt lat="42.591578" lon="0.906929">
        <ele>2552.317</ele>
        <time>2022-03-17T11:16:58Z</time>
      </trkpt>
      <trkpt lat="42.590403" lon="0.907737">
        <ele>2550.708</ele>
        <time>2022-03-17T11:21:50Z</time>
      </trkpt>
      <trkpt lat="42.590483" lon="0.908180">
        <ele>2555.262</ele>
        <time>2022-03-17T11:22:41Z</time>
      </trkpt>
      <trkpt lat="42.590234" lon="0.908360">
        <ele>2558.771</ele>
        <time>2022-03-17T11:24:12Z</time>
      </trkpt>
      <trkpt lat="42.590147" lon="0.908980">
        <ele>2563.743</ele>
        <time>2022-03-17T11:28:49Z</time>
      </trkpt>
      <trkpt lat="42.590568" lon="0.909740">
        <ele>2576.673</ele>
        <time>2022-03-17T11:30:48Z</time>
      </trkpt>
      <trkpt lat="42.590368" lon="0.909630">
        <ele>2585.032</ele>
        <time>2022-03-17T11:31:27Z</time>
      </trkpt>
      <trkpt lat="42.590315" lon="0.909740">
        <ele>2591.391</ele>
        <time>2022-03-17T11:32:19Z</time>
      </trkpt>
      <trkpt lat="42.589645" lon="0.909793">
        <ele>2599.451</ele>
        <time>2022-03-17T11:39:52Z</time>
      </trkpt>
      <trkpt lat="42.589915" lon="0.910158">
        <ele>2602.316</ele>
        <time>2022-03-17T11:41:23Z</time>
      </trkpt>
      <trkpt lat="42.589650" lon="0.910102">
        <ele>2605.482</ele>
        <time>2022-03-17T11:43:39Z</time>
      </trkpt>
      <trkpt lat="42.589688" lon="0.910215">
        <ele>2607.243</ele>
        <time>2022-03-17T11:45:00Z</time>
      </trkpt>
      <trkpt lat="42.589903" lon="0.910477">
        <ele>2618.317</ele>
        <time>2022-03-17T11:51:32Z</time>
      </trkpt>
      <trkpt lat="42.589537" lon="0.910480">
        <ele>2675.308</ele>
        <time>2022-03-17T12:05:38Z</time>
      </trkpt>
      <trkpt lat="42.589481" lon="0.910465">
        <ele>2695.117</ele>
        <time>2022-03-17T12:29:59Z</time>
      </trkpt>
      <trkpt lat="42.589451" lon="0.910715">
        <ele>2699.596</ele>
        <time>2022-03-17T12:35:05Z</time>
      </trkpt>
      <trkpt lat="42.589083" lon="0.910971">
        <ele>2725.348</ele>
        <time>2022-03-17T12:56:46Z</time>
      </trkpt>
      <trkpt lat="42.585773" lon="0.921628">
        <ele>2571.198</ele>
        <time>2022-03-17T13:38:31Z</time>
      </trkpt>
      <trkpt lat="42.586091" lon="0.922509">
        <ele>2565.367</ele>
        <time>2022-03-17T13:39:15Z</time>
      </trkpt>
      <trkpt lat="42.586200" lon="0.924341">
        <ele>2546.946</ele>
        <time>2022-03-17T13:45:15Z</time>
      </trkpt>
      <trkpt lat="42.586045" lon="0.924499">
        <ele>2543.416</ele>
        <time>2022-03-17T13:45:34Z</time>
      </trkpt>
      <trkpt lat="42.585928" lon="0.924368">
        <ele>2540.211</ele>
        <time>2022-03-17T13:45:38Z</time>
      </trkpt>
      <trkpt lat="42.585871" lon="0.924501">
        <ele>2527.534</ele>
        <time>2022-03-17T13:47:49Z</time>
      </trkpt>
      <trkpt lat="42.585719" lon="0.924277">
        <ele>2522.455</ele>
        <time>2022-03-17T13:47:54Z</time>
      </trkpt>
      <trkpt lat="42.585608" lon="0.924473">
        <ele>2512.810</ele>
        <time>2022-03-17T13:48:18Z</time>
      </trkpt>
      <trkpt lat="42.585284" lon="0.924028">
        <ele>2506.308</ele>
        <time>2022-03-17T13:48:29Z</time>
      </trkpt>
      <trkpt lat="42.585034" lon="0.924271">
        <ele>2489.062</ele>
        <time>2022-03-17T13:51:23Z</time>
      </trkpt>
      <trkpt lat="42.584940" lon="0.923847">
        <ele>2479.711</ele>
        <time>2022-03-17T13:52:08Z</time>
      </trkpt>
      <trkpt lat="42.584823" lon="0.923908">
        <ele>2475.233</ele>
        <time>2022-03-17T13:53:08Z</time>
      </trkpt>
      <trkpt lat="42.584733" lon="0.923736">
        <ele>2464.133</ele>
        <time>2022-03-17T13:54:16Z</time>
      </trkpt>
      <trkpt lat="42.584501" lon="0.924020">
        <ele>2450.352</ele>
        <time>2022-03-17T13:54:55Z</time>
      </trkpt>
      <trkpt lat="42.584341" lon="0.922940">
        <ele>2429.471</ele>
        <time>2022-03-17T13:56:49Z</time>
      </trkpt>
      <trkpt lat="42.584188" lon="0.922955">
        <ele>2423.451</ele>
        <time>2022-03-17T13:57:07Z</time>
      </trkpt>
      <trkpt lat="42.584176" lon="0.923133">
        <ele>2416.696</ele>
        <time>2022-03-17T13:57:50Z</time>
      </trkpt>
      <trkpt lat="42.583927" lon="0.923210">
        <ele>2411.715</ele>
        <time>2022-03-17T13:57:58Z</time>
      </trkpt>
      <trkpt lat="42.583594" lon="0.923632">
        <ele>2398.365</ele>
        <time>2022-03-17T13:58:08Z</time>
      </trkpt>
      <trkpt lat="42.583440" lon="0.923551">
        <ele>2391.511</ele>
        <time>2022-03-17T14:00:58Z</time>
      </trkpt>
      <trkpt lat="42.583315" lon="0.923073">
        <ele>2371.808</ele>
        <time>2022-03-17T14:01:17Z</time>
      </trkpt>
      <trkpt lat="42.583068" lon="0.923212">
        <ele>2361.970</ele>
        <time>2022-03-17T14:01:25Z</time>
      </trkpt>
      <trkpt lat="42.583026" lon="0.922807">
        <ele>2349.359</ele>
        <time>2022-03-17T14:01:34Z</time>
      </trkpt>
      <trkpt lat="42.582654" lon="0.922918">
        <ele>2335.071</ele>
        <time>2022-03-17T14:01:49Z</time>
      </trkpt>
      <trkpt lat="42.582374" lon="0.922616">
        <ele>2312.871</ele>
        <time>2022-03-17T14:02:13Z</time>
      </trkpt>
      <trkpt lat="42.582176" lon="0.922785">
        <ele>2310.020</ele>
        <time>2022-03-17T14:02:19Z</time>
      </trkpt>
      <trkpt lat="42.582005" lon="0.922667">
        <ele>2308.179</ele>
        <time>2022-03-17T14:02:23Z</time>
      </trkpt>
      <trkpt lat="42.581534" lon="0.922784">
        <ele>2298.319</ele>
        <time>2022-03-17T14:02:38Z</time>
      </trkpt>
      <trkpt lat="42.581431" lon="0.922889">
        <ele>2294.394</ele>
        <time>2022-03-17T14:02:46Z</time>
      </trkpt>
      <trkpt lat="42.581604" lon="0.922747">
        <ele>2292.913</ele>
        <time>2022-03-17T14:03:04Z</time>
      </trkpt>
      <trkpt lat="42.581633" lon="0.923266">
        <ele>2295.343</ele>
        <time>2022-03-17T14:04:38Z</time>
      </trkpt>
      <trkpt lat="42.581596" lon="0.922977">
        <ele>2292.407</ele>
        <time>2022-03-17T14:06:01Z</time>
      </trkpt>
      <trkpt lat="42.581332" lon="0.923182">
        <ele>2290.708</ele>
        <time>2022-03-17T14:06:07Z</time>
      </trkpt>
      <trkpt lat="42.581078" lon="0.923656">
        <ele>2285.710</ele>
        <time>2022-03-17T14:06:18Z</time>
      </trkpt>
      <trkpt lat="42.581070" lon="0.924209">
        <ele>2288.399</ele>
        <time>2022-03-17T14:06:34Z</time>
      </trkpt>
      <trkpt lat="42.580209" lon="0.925256">
        <ele>2285.261</ele>
        <time>2022-03-17T14:07:36Z</time>
      </trkpt>
      <trkpt lat="42.579990" lon="0.926578">
        <ele>2270.431</ele>
        <time>2022-03-17T14:10:11Z</time>
      </trkpt>
      <trkpt lat="42.579236" lon="0.927050">
        <ele>2265.910</ele>
        <time>2022-03-17T14:12:54Z</time>
      </trkpt>
      <trkpt lat="42.579146" lon="0.927449">
        <ele>2262.819</ele>
        <time>2022-03-17T14:14:06Z</time>
      </trkpt>
      <trkpt lat="42.578656" lon="0.927161">
        <ele>2260.339</ele>
        <time>2022-03-17T14:17:00Z</time>
      </trkpt>
      <trkpt lat="42.578362" lon="0.927250">
        <ele>2255.824</ele>
        <time>2022-03-17T14:17:07Z</time>
      </trkpt>
      <trkpt lat="42.577754" lon="0.927014">
        <ele>2232.544</ele>
        <time>2022-03-17T14:22:33Z</time>
      </trkpt>
      <trkpt lat="42.577074" lon="0.927134">
        <ele>2223.305</ele>
        <time>2022-03-17T14:23:31Z</time>
      </trkpt>
      <trkpt lat="42.576764" lon="0.927878">
        <ele>2209.515</ele>
        <time>2022-03-17T14:23:45Z</time>
      </trkpt>
      <trkpt lat="42.576186" lon="0.928332">
        <ele>2177.608</ele>
        <time>2022-03-17T14:24:29Z</time>
      </trkpt>
      <trkpt lat="42.575804" lon="0.928963">
        <ele>2164.573</ele>
        <time>2022-03-17T14:24:42Z</time>
      </trkpt>
      <trkpt lat="42.575274" lon="0.930249">
        <ele>2140.072</ele>
        <time>2022-03-17T14:25:31Z</time>
      </trkpt>
      <trkpt lat="42.575431" lon="0.930949">
        <ele>2144.714</ele>
        <time>2022-03-17T14:26:45Z</time>
      </trkpt>
      <trkpt lat="42.575034" lon="0.933536">
        <ele>2127.214</ele>
        <time>2022-03-17T14:29:11Z</time>
      </trkpt>
      <trkpt lat="42.575135" lon="0.934959">
        <ele>2095.833</ele>
        <time>2022-03-17T14:29:38Z</time>
      </trkpt>
      <trkpt lat="42.574286" lon="0.934959">
        <ele>2083.442</ele>
        <time>2022-03-17T14:32:54Z</time>
      </trkpt>
      <trkpt lat="42.573784" lon="0.935388">
        <ele>2058.862</ele>
        <time>2022-03-17T14:34:15Z</time>
      </trkpt>
      <trkpt lat="42.572974" lon="0.935360">
        <ele>2032.247</ele>
        <time>2022-03-17T14:44:48Z</time>
      </trkpt>
      <trkpt lat="42.572225" lon="0.935773">
        <ele>2013.299</ele>
        <time>2022-03-17T14:49:48Z</time>
      </trkpt>
      <trkpt lat="42.572081" lon="0.936217">
        <ele>1985.907</ele>
        <time>2022-03-17T14:51:30Z</time>
      </trkpt>
      <trkpt lat="42.571466" lon="0.935826">
        <ele>1953.327</ele>
        <time>2022-03-17T14:53:06Z</time>
      </trkpt>
      <trkpt lat="42.571035" lon="0.936172">
        <ele>1953.608</ele>
        <time>2022-03-17T14:55:58Z</time>
      </trkpt>
      <trkpt lat="42.570718" lon="0.935644">
        <ele>1949.318</ele>
        <time>2022-03-17T14:59:57Z</time>
      </trkpt>
      <trkpt lat="42.570476" lon="0.935509">
        <ele>1950.167</ele>
        <time>2022-03-17T15:00:22Z</time>
      </trkpt>
      <trkpt lat="42.570256" lon="0.935614">
        <ele>1938.619</ele>
        <time>2022-03-17T15:02:01Z</time>
      </trkpt>
      <trkpt lat="42.570209" lon="0.935909">
        <ele>1940.529</ele>
        <time>2022-03-17T15:12:27Z</time>
      </trkpt>
      <trkpt lat="42.570439" lon="0.936414">
        <ele>1943.828</ele>
        <time>2022-03-17T15:14:06Z</time>
      </trkpt>
      <trkpt lat="42.570565" lon="0.936549">
        <ele>1942.747</ele>
        <time>2022-03-17T15:14:20Z</time>
      </trkpt>
      <trkpt lat="42.570973" lon="0.936557">
        <ele>1945.737</ele>
        <time>2022-03-17T15:15:58Z</time>
      </trkpt>
      <trkpt lat="42.570823" lon="0.936459">
        <ele>1948.532</ele>
        <time>2022-03-17T15:17:14Z</time>
      </trkpt>
      <trkpt lat="42.570722" lon="0.936920">
        <ele>1946.165</ele>
        <time>2022-03-17T15:20:08Z</time>
      </trkpt>
      <trkpt lat="42.570681" lon="0.938254">
        <ele>1952.868</ele>
        <time>2022-03-17T15:25:06Z</time>
      </trkpt>
      <trkpt lat="42.570836" lon="0.938386">
        <ele>1953.614</ele>
        <time>2022-03-17T15:25:18Z</time>
      </trkpt>
      <trkpt lat="42.571061" lon="0.938258">
        <ele>1955.108</ele>
        <time>2022-03-17T15:25:54Z</time>
      </trkpt>
      <trkpt lat="42.571122" lon="0.938858">
        <ele>1961.015</ele>
        <time>2022-03-17T15:27:07Z</time>
      </trkpt>
      <trkpt lat="42.571913" lon="0.941308">
        <ele>1956.914</ele>
        <time>2022-03-17T15:31:33Z</time>
      </trkpt>
      <trkpt lat="42.572220" lon="0.941931">
        <ele>1964.066</ele>
        <time>2022-03-17T15:33:28Z</time>
      </trkpt>
      <trkpt lat="42.572704" lon="0.942374">
        <ele>1975.516</ele>
        <time>2022-03-17T15:41:36Z</time>
      </trkpt>
      <trkpt lat="42.572592" lon="0.942361">
        <ele>1971.395</ele>
        <time>2022-03-17T15:42:35Z</time>
      </trkpt>
      <trkpt lat="42.572584" lon="0.942298">
        <ele>2031.354</ele>
        <time>2022-03-18T09:08:01Z</time>
      </trkpt>
      <trkpt lat="42.572422" lon="0.942561">
        <ele>2031.356</ele>
        <time>2022-03-18T09:09:11Z</time>
      </trkpt>
      <trkpt lat="42.572440" lon="0.944380">
        <ele>2015.511</ele>
        <time>2022-03-18T09:10:19Z</time>
      </trkpt>
      <trkpt lat="42.572397" lon="0.946582">
        <ele>2014.508</ele>
        <time>2022-03-18T09:10:59Z</time>
      </trkpt>
      <trkpt lat="42.572173" lon="0.947544">
        <ele>2013.234</ele>
        <time>2022-03-18T09:12:02Z</time>
      </trkpt>
      <trkpt lat="42.572259" lon="0.948761">
        <ele>2006.143</ele>
        <time>2022-03-18T09:13:30Z</time>
      </trkpt>
      <trkpt lat="42.572551" lon="0.950088">
        <ele>1992.425</ele>
        <time>2022-03-18T09:16:37Z</time>
      </trkpt>
      <trkpt lat="42.572407" lon="0.950035">
        <ele>1990.736</ele>
        <time>2022-03-18T09:17:24Z</time>
      </trkpt>
      <trkpt lat="42.572934" lon="0.952826">
        <ele>1997.365</ele>
        <time>2022-03-18T09:22:10Z</time>
      </trkpt>
      <trkpt lat="42.572975" lon="0.953408">
        <ele>2001.292</ele>
        <time>2022-03-18T09:24:44Z</time>
      </trkpt>
      <trkpt lat="42.573374" lon="0.954804">
        <ele>2001.588</ele>
        <time>2022-03-18T09:27:53Z</time>
      </trkpt>
      <trkpt lat="42.573249" lon="0.955239">
        <ele>2010.068</ele>
        <time>2022-03-18T09:29:20Z</time>
      </trkpt>
      <trkpt lat="42.572948" lon="0.955827">
        <ele>2023.482</ele>
        <time>2022-03-18T09:30:38Z</time>
      </trkpt>
      <trkpt lat="42.572831" lon="0.956311">
        <ele>2028.143</ele>
        <time>2022-03-18T09:31:19Z</time>
      </trkpt>
      <trkpt lat="42.572776" lon="0.956637">
        <ele>2055.217</ele>
        <time>2022-03-18T09:34:40Z</time>
      </trkpt>
      <trkpt lat="42.572910" lon="0.957283">
        <ele>2061.008</ele>
        <time>2022-03-18T09:40:42Z</time>
      </trkpt>
      <trkpt lat="42.572651" lon="0.957278">
        <ele>2064.017</ele>
        <time>2022-03-18T09:41:32Z</time>
      </trkpt>
      <trkpt lat="42.572736" lon="0.957642">
        <ele>2072.146</ele>
        <time>2022-03-18T09:42:16Z</time>
      </trkpt>
      <trkpt lat="42.572409" lon="0.957985">
        <ele>2082.788</ele>
        <time>2022-03-18T09:43:38Z</time>
      </trkpt>
      <trkpt lat="42.572294" lon="0.958616">
        <ele>2090.049</ele>
        <time>2022-03-18T09:45:11Z</time>
      </trkpt>
      <trkpt lat="42.572618" lon="0.958867">
        <ele>2101.598</ele>
        <time>2022-03-18T09:46:52Z</time>
      </trkpt>
      <trkpt lat="42.573249" lon="0.960006">
        <ele>2126.625</ele>
        <time>2022-03-18T09:50:34Z</time>
      </trkpt>
      <trkpt lat="42.572662" lon="0.961212">
        <ele>2147.271</ele>
        <time>2022-03-18T09:55:13Z</time>
      </trkpt>
      <trkpt lat="42.573032" lon="0.962027">
        <ele>2161.411</ele>
        <time>2022-03-18T09:57:23Z</time>
      </trkpt>
      <trkpt lat="42.573330" lon="0.962236">
        <ele>2168.827</ele>
        <time>2022-03-18T09:59:01Z</time>
      </trkpt>
      <trkpt lat="42.573055" lon="0.962527">
        <ele>2179.868</ele>
        <time>2022-03-18T10:00:18Z</time>
      </trkpt>
      <trkpt lat="42.573368" lon="0.962750">
        <ele>2186.414</ele>
        <time>2022-03-18T10:01:44Z</time>
      </trkpt>
      <trkpt lat="42.573428" lon="0.963485">
        <ele>2197.908</ele>
        <time>2022-03-18T10:04:10Z</time>
      </trkpt>
      <trkpt lat="42.573551" lon="0.963593">
        <ele>2202.221</ele>
        <time>2022-03-18T10:04:46Z</time>
      </trkpt>
      <trkpt lat="42.573491" lon="0.964028">
        <ele>2208.670</ele>
        <time>2022-03-18T10:06:42Z</time>
      </trkpt>
      <trkpt lat="42.573704" lon="0.964392">
        <ele>2230.332</ele>
        <time>2022-03-18T10:09:46Z</time>
      </trkpt>
      <trkpt lat="42.573967" lon="0.965240">
        <ele>2263.343</ele>
        <time>2022-03-18T10:15:04Z</time>
      </trkpt>
      <trkpt lat="42.574193" lon="0.965252">
        <ele>2271.992</ele>
        <time>2022-03-18T10:16:10Z</time>
      </trkpt>
      <trkpt lat="42.574358" lon="0.965750">
        <ele>2280.079</ele>
        <time>2022-03-18T10:17:29Z</time>
      </trkpt>
      <trkpt lat="42.574731" lon="0.965944">
        <ele>2285.635</ele>
        <time>2022-03-18T10:26:07Z</time>
      </trkpt>
      <trkpt lat="42.575527" lon="0.965563">
        <ele>2284.715</ele>
        <time>2022-03-18T10:34:43Z</time>
      </trkpt>
      <trkpt lat="42.575768" lon="0.965553">
        <ele>2288.243</ele>
        <time>2022-03-18T10:35:16Z</time>
      </trkpt>
      <trkpt lat="42.575973" lon="0.965738">
        <ele>2291.264</ele>
        <time>2022-03-18T10:36:00Z</time>
      </trkpt>
      <trkpt lat="42.576217" lon="0.966049">
        <ele>2302.310</ele>
        <time>2022-03-18T10:37:04Z</time>
      </trkpt>
      <trkpt lat="42.576603" lon="0.967533">
        <ele>2322.808</ele>
        <time>2022-03-18T10:40:08Z</time>
      </trkpt>
      <trkpt lat="42.577346" lon="0.968185">
        <ele>2336.893</ele>
        <time>2022-03-18T10:45:52Z</time>
      </trkpt>
      <trkpt lat="42.577499" lon="0.968516">
        <ele>2342.422</ele>
        <time>2022-03-18T10:46:43Z</time>
      </trkpt>
      <trkpt lat="42.577632" lon="0.968512">
        <ele>2346.284</ele>
        <time>2022-03-18T10:47:15Z</time>
      </trkpt>
      <trkpt lat="42.577779" lon="0.968905">
        <ele>2355.745</ele>
        <time>2022-03-18T10:48:20Z</time>
      </trkpt>
      <trkpt lat="42.577909" lon="0.968857">
        <ele>2362.824</ele>
        <time>2022-03-18T10:48:52Z</time>
      </trkpt>
      <trkpt lat="42.578247" lon="0.969867">
        <ele>2386.841</ele>
        <time>2022-03-18T10:52:07Z</time>
      </trkpt>
      <trkpt lat="42.578461" lon="0.969860">
        <ele>2392.087</ele>
        <time>2022-03-18T10:54:22Z</time>
      </trkpt>
      <trkpt lat="42.578605" lon="0.970731">
        <ele>2415.557</ele>
        <time>2022-03-18T10:56:47Z</time>
      </trkpt>
      <trkpt lat="42.579084" lon="0.971011">
        <ele>2433.133</ele>
        <time>2022-03-18T10:59:02Z</time>
      </trkpt>
      <trkpt lat="42.579241" lon="0.971802">
        <ele>2451.123</ele>
        <time>2022-03-18T11:01:15Z</time>
      </trkpt>
      <trkpt lat="42.579819" lon="0.971154">
        <ele>2470.715</ele>
        <time>2022-03-18T11:04:23Z</time>
      </trkpt>
      <trkpt lat="42.580388" lon="0.972496">
        <ele>2505.908</ele>
        <time>2022-03-18T11:09:03Z</time>
      </trkpt>
      <trkpt lat="42.581006" lon="0.970921">
        <ele>2543.782</ele>
        <time>2022-03-18T11:24:33Z</time>
      </trkpt>
      <trkpt lat="42.581401" lon="0.971898">
        <ele>2564.451</ele>
        <time>2022-03-18T11:28:34Z</time>
      </trkpt>
      <trkpt lat="42.581926" lon="0.970321">
        <ele>2603.953</ele>
        <time>2022-03-18T11:34:17Z</time>
      </trkpt>
      <trkpt lat="42.582310" lon="0.971145">
        <ele>2628.654</ele>
        <time>2022-03-18T11:40:20Z</time>
      </trkpt>
      <trkpt lat="42.582527" lon="0.970429">
        <ele>2649.813</ele>
        <time>2022-03-18T11:43:05Z</time>
      </trkpt>
      <trkpt lat="42.582839" lon="0.971100">
        <ele>2668.860</ele>
        <time>2022-03-18T11:47:03Z</time>
      </trkpt>
      <trkpt lat="42.583157" lon="0.969888">
        <ele>2700.756</ele>
        <time>2022-03-18T11:52:06Z</time>
      </trkpt>
      <trkpt lat="42.583277" lon="0.969685">
        <ele>2705.856</ele>
        <time>2022-03-18T11:52:44Z</time>
      </trkpt>
      <trkpt lat="42.583367" lon="0.969747">
        <ele>2704.758</ele>
        <time>2022-03-18T11:54:00Z</time>
      </trkpt>
      <trkpt lat="42.583639" lon="0.970454">
        <ele>2730.252</ele>
        <time>2022-03-18T12:00:49Z</time>
      </trkpt>
      <trkpt lat="42.583733" lon="0.970223">
        <ele>2738.917</ele>
        <time>2022-03-18T12:17:49Z</time>
      </trkpt>
      <trkpt lat="42.583542" lon="0.970955">
        <ele>2727.808</ele>
        <time>2022-03-18T12:37:36Z</time>
      </trkpt>
      <trkpt lat="42.583296" lon="0.971434">
        <ele>2709.154</ele>
        <time>2022-03-18T12:38:53Z</time>
      </trkpt>
      <trkpt lat="42.583111" lon="0.971519">
        <ele>2698.233</ele>
        <time>2022-03-18T12:39:43Z</time>
      </trkpt>
      <trkpt lat="42.582864" lon="0.971112">
        <ele>2680.635</ele>
        <time>2022-03-18T12:41:28Z</time>
      </trkpt>
      <trkpt lat="42.582613" lon="0.971267">
        <ele>2661.046</ele>
        <time>2022-03-18T12:42:40Z</time>
      </trkpt>
      <trkpt lat="42.582422" lon="0.971974">
        <ele>2640.615</ele>
        <time>2022-03-18T12:43:29Z</time>
      </trkpt>
      <trkpt lat="42.582453" lon="0.972950">
        <ele>2631.622</ele>
        <time>2022-03-18T12:45:00Z</time>
      </trkpt>
      <trkpt lat="42.582612" lon="0.973070">
        <ele>2630.988</ele>
        <time>2022-03-18T13:05:30Z</time>
      </trkpt>
      <trkpt lat="42.582904" lon="0.973287">
        <ele>2619.638</ele>
        <time>2022-03-18T13:11:53Z</time>
      </trkpt>
      <trkpt lat="42.582880" lon="0.973334">
        <ele>2618.658</ele>
        <time>2022-03-18T13:14:48Z</time>
      </trkpt>
      <trkpt lat="42.583106" lon="0.973531">
        <ele>2615.352</ele>
        <time>2022-03-18T13:19:13Z</time>
      </trkpt>
      <trkpt lat="42.583509" lon="0.974185">
        <ele>2612.917</ele>
        <time>2022-03-18T13:27:21Z</time>
      </trkpt>
      <trkpt lat="42.583584" lon="0.974038">
        <ele>2611.808</ele>
        <time>2022-03-18T13:28:09Z</time>
      </trkpt>
      <trkpt lat="42.583615" lon="0.974342">
        <ele>2616.454</ele>
        <time>2022-03-18T13:28:47Z</time>
      </trkpt>
      <trkpt lat="42.583865" lon="0.974630">
        <ele>2592.843</ele>
        <time>2022-03-18T13:39:49Z</time>
      </trkpt>
      <trkpt lat="42.584111" lon="0.974635">
        <ele>2592.475</ele>
        <time>2022-03-18T13:41:02Z</time>
      </trkpt>
      <trkpt lat="42.584128" lon="0.974483">
        <ele>2590.316</ele>
        <time>2022-03-18T13:42:11Z</time>
      </trkpt>
      <trkpt lat="42.584541" lon="0.975032">
        <ele>2565.015</ele>
        <time>2022-03-18T13:44:22Z</time>
      </trkpt>
      <trkpt lat="42.584593" lon="0.974921">
        <ele>2558.312</ele>
        <time>2022-03-18T13:44:29Z</time>
      </trkpt>
      <trkpt lat="42.584796" lon="0.975069">
        <ele>2552.078</ele>
        <time>2022-03-18T13:44:53Z</time>
      </trkpt>
      <trkpt lat="42.584968" lon="0.975001">
        <ele>2548.238</ele>
        <time>2022-03-18T13:45:37Z</time>
      </trkpt>
      <trkpt lat="42.584965" lon="0.974664">
        <ele>2543.614</ele>
        <time>2022-03-18T13:45:41Z</time>
      </trkpt>
      <trkpt lat="42.585516" lon="0.974409">
        <ele>2522.554</ele>
        <time>2022-03-18T13:49:54Z</time>
      </trkpt>
      <trkpt lat="42.585940" lon="0.973889">
        <ele>2518.809</ele>
        <time>2022-03-18T13:52:15Z</time>
      </trkpt>
      <trkpt lat="42.586385" lon="0.973615">
        <ele>2505.208</ele>
        <time>2022-03-18T13:53:11Z</time>
      </trkpt>
      <trkpt lat="42.586711" lon="0.973671">
        <ele>2496.150</ele>
        <time>2022-03-18T13:53:54Z</time>
      </trkpt>
      <trkpt lat="42.586740" lon="0.973915">
        <ele>2491.959</ele>
        <time>2022-03-18T13:54:13Z</time>
      </trkpt>
      <trkpt lat="42.587134" lon="0.974199">
        <ele>2474.821</ele>
        <time>2022-03-18T13:55:31Z</time>
      </trkpt>
      <trkpt lat="42.587261" lon="0.974511">
        <ele>2464.252</ele>
        <time>2022-03-18T13:55:58Z</time>
      </trkpt>
      <trkpt lat="42.587473" lon="0.974035">
        <ele>2453.031</ele>
        <time>2022-03-18T13:56:44Z</time>
      </trkpt>
      <trkpt lat="42.587492" lon="0.973127">
        <ele>2429.418</ele>
        <time>2022-03-18T13:57:41Z</time>
      </trkpt>
      <trkpt lat="42.587797" lon="0.972787">
        <ele>2402.224</ele>
        <time>2022-03-18T13:58:12Z</time>
      </trkpt>
      <trkpt lat="42.588020" lon="0.971874">
        <ele>2388.364</ele>
        <time>2022-03-18T13:59:07Z</time>
      </trkpt>
      <trkpt lat="42.588729" lon="0.971778">
        <ele>2371.982</ele>
        <time>2022-03-18T14:02:20Z</time>
      </trkpt>
      <trkpt lat="42.589228" lon="0.972115">
        <ele>2366.643</ele>
        <time>2022-03-18T14:02:48Z</time>
      </trkpt>
      <trkpt lat="42.589685" lon="0.971913">
        <ele>2362.817</ele>
        <time>2022-03-18T14:03:03Z</time>
      </trkpt>
      <trkpt lat="42.590853" lon="0.972622">
        <ele>2346.108</ele>
        <time>2022-03-18T14:03:40Z</time>
      </trkpt>
      <trkpt lat="42.591224" lon="0.972365">
        <ele>2339.397</ele>
        <time>2022-03-18T14:03:48Z</time>
      </trkpt>
      <trkpt lat="42.591569" lon="0.972511">
        <ele>2328.836</ele>
        <time>2022-03-18T14:04:06Z</time>
      </trkpt>
      <trkpt lat="42.591914" lon="0.973055">
        <ele>2321.048</ele>
        <time>2022-03-18T14:04:19Z</time>
      </trkpt>
      <trkpt lat="42.592041" lon="0.973624">
        <ele>2314.849</ele>
        <time>2022-03-18T14:04:31Z</time>
      </trkpt>
      <trkpt lat="42.592283" lon="0.973623">
        <ele>2314.168</ele>
        <time>2022-03-18T14:05:20Z</time>
      </trkpt>
      <trkpt lat="42.592497" lon="0.974708">
        <ele>2306.645</ele>
        <time>2022-03-18T14:08:07Z</time>
      </trkpt>
      <trkpt lat="42.593779" lon="0.975239">
        <ele>2285.861</ele>
        <time>2022-03-18T14:08:49Z</time>
      </trkpt>
      <trkpt lat="42.593874" lon="0.975462">
        <ele>2283.181</ele>
        <time>2022-03-18T14:08:53Z</time>
      </trkpt>
      <trkpt lat="42.593766" lon="0.976954">
        <ele>2277.044</ele>
        <time>2022-03-18T14:09:34Z</time>
      </trkpt>
      <trkpt lat="42.593926" lon="0.977135">
        <ele>2277.605</ele>
        <time>2022-03-18T14:09:48Z</time>
      </trkpt>
      <trkpt lat="42.593948" lon="0.977543">
        <ele>2274.015</ele>
        <time>2022-03-18T14:09:53Z</time>
      </trkpt>
      <trkpt lat="42.593302" lon="0.979193">
        <ele>2267.408</ele>
        <time>2022-03-18T14:10:59Z</time>
      </trkpt>
      <trkpt lat="42.593008" lon="0.980363">
        <ele>2280.153</ele>
        <time>2022-03-18T14:40:03Z</time>
      </trkpt>
      <trkpt lat="42.593476" lon="0.980911">
        <ele>2284.742</ele>
        <time>2022-03-18T14:41:27Z</time>
      </trkpt>
      <trkpt lat="42.594006" lon="0.980419">
        <ele>2294.054</ele>
        <time>2022-03-18T14:46:44Z</time>
      </trkpt>
      <trkpt lat="42.594291" lon="0.980410">
        <ele>2290.245</ele>
        <time>2022-03-18T14:47:01Z</time>
      </trkpt>
      <trkpt lat="42.594933" lon="0.981130">
        <ele>2308.754</ele>
        <time>2022-03-18T14:51:15Z</time>
      </trkpt>
      <trkpt lat="42.595445" lon="0.980892">
        <ele>2317.211</ele>
        <time>2022-03-18T14:52:50Z</time>
      </trkpt>
      <trkpt lat="42.596129" lon="0.981066">
        <ele>2329.067</ele>
        <time>2022-03-18T14:54:35Z</time>
      </trkpt>
      <trkpt lat="42.596426" lon="0.981502">
        <ele>2335.167</ele>
        <time>2022-03-18T14:56:07Z</time>
      </trkpt>
      <trkpt lat="42.596618" lon="0.982313">
        <ele>2341.269</ele>
        <time>2022-03-18T14:58:01Z</time>
      </trkpt>
      <trkpt lat="42.596560" lon="0.983895">
        <ele>2372.704</ele>
        <time>2022-03-18T15:02:55Z</time>
      </trkpt>
      <trkpt lat="42.596259" lon="0.984567">
        <ele>2377.124</ele>
        <time>2022-03-18T15:04:22Z</time>
      </trkpt>
      <trkpt lat="42.596519" lon="0.984851">
        <ele>2379.308</ele>
        <time>2022-03-18T15:05:08Z</time>
      </trkpt>
      <trkpt lat="42.597118" lon="0.984835">
        <ele>2414.533</ele>
        <time>2022-03-19T08:51:00Z</time>
      </trkpt>
      <trkpt lat="42.597061" lon="0.984778">
        <ele>2414.523</ele>
        <time>2022-03-19T08:51:02Z</time>
      </trkpt>
      <trkpt lat="42.597058" lon="0.984845">
        <ele>2414.515</ele>
        <time>2022-03-19T08:51:03Z</time>
      </trkpt>
      <trkpt lat="42.597006" lon="0.984772">
        <ele>2414.508</ele>
        <time>2022-03-19T08:51:06Z</time>
      </trkpt>
      <trkpt lat="42.596986" lon="0.984712">
        <ele>2414.562</ele>
        <time>2022-03-19T08:51:09Z</time>
      </trkpt>
      <trkpt lat="42.596979" lon="0.984649">
        <ele>2414.550</ele>
        <time>2022-03-19T08:51:22Z</time>
      </trkpt>
      <trkpt lat="42.596989" lon="0.984576">
        <ele>2414.592</ele>
        <time>2022-03-19T08:51:30Z</time>
      </trkpt>
      <trkpt lat="42.596979" lon="0.984464">
        <ele>2414.571</ele>
        <time>2022-03-19T08:54:14Z</time>
      </trkpt>
      <trkpt lat="42.597031" lon="0.984444">
        <ele>2396.689</ele>
        <time>2022-03-19T08:54:32Z</time>
      </trkpt>
      <trkpt lat="42.597066" lon="0.984392">
        <ele>2379.431</ele>
        <time>2022-03-19T08:54:37Z</time>
      </trkpt>
      <trkpt lat="42.597101" lon="0.984352">
        <ele>2367.688</ele>
        <time>2022-03-19T08:54:41Z</time>
      </trkpt>
      <trkpt lat="42.597146" lon="0.984317">
        <ele>2367.522</ele>
        <time>2022-03-19T08:54:45Z</time>
      </trkpt>
      <trkpt lat="42.597179" lon="0.984270">
        <ele>2367.312</ele>
        <time>2022-03-19T08:54:50Z</time>
      </trkpt>
      <trkpt lat="42.597199" lon="0.984208">
        <ele>2367.332</ele>
        <time>2022-03-19T08:54:55Z</time>
      </trkpt>
      <trkpt lat="42.597231" lon="0.984146">
        <ele>2367.105</ele>
        <time>2022-03-19T08:55:01Z</time>
      </trkpt>
      <trkpt lat="42.597264" lon="0.984088">
        <ele>2367.208</ele>
        <time>2022-03-19T08:55:06Z</time>
      </trkpt>
      <trkpt lat="42.597294" lon="0.984035">
        <ele>2367.350</ele>
        <time>2022-03-19T08:55:12Z</time>
      </trkpt>
      <trkpt lat="42.597327" lon="0.983988">
        <ele>2367.548</ele>
        <time>2022-03-19T08:55:18Z</time>
      </trkpt>
      <trkpt lat="42.597362" lon="0.983941">
        <ele>2367.910</ele>
        <time>2022-03-19T08:55:24Z</time>
      </trkpt>
      <trkpt lat="42.597404" lon="0.983891">
        <ele>2368.019</ele>
        <time>2022-03-19T08:55:33Z</time>
      </trkpt>
      <trkpt lat="42.597439" lon="0.983839">
        <ele>2368.887</ele>
        <time>2022-03-19T08:55:42Z</time>
      </trkpt>
      <trkpt lat="42.597476" lon="0.983797">
        <ele>2369.419</ele>
        <time>2022-03-19T08:55:49Z</time>
      </trkpt>
      <trkpt lat="42.597518" lon="0.983760">
        <ele>2370.516</ele>
        <time>2022-03-19T08:55:57Z</time>
      </trkpt>
      <trkpt lat="42.597560" lon="0.983728">
        <ele>2372.770</ele>
        <time>2022-03-19T08:56:07Z</time>
      </trkpt>
      <trkpt lat="42.597597" lon="0.983690">
        <ele>2374.841</ele>
        <time>2022-03-19T08:56:15Z</time>
      </trkpt>
      <trkpt lat="42.597642" lon="0.983657">
        <ele>2375.681</ele>
        <time>2022-03-19T08:56:21Z</time>
      </trkpt>
      <trkpt lat="42.597680" lon="0.983624">
        <ele>2376.409</ele>
        <time>2022-03-19T08:56:27Z</time>
      </trkpt>
      <trkpt lat="42.597723" lon="0.983581">
        <ele>2377.008</ele>
        <time>2022-03-19T08:56:34Z</time>
      </trkpt>
      <trkpt lat="42.597745" lon="0.983516">
        <ele>2377.523</ele>
        <time>2022-03-19T08:56:40Z</time>
      </trkpt>
      <trkpt lat="42.597767" lon="0.983453">
        <ele>2378.231</ele>
        <time>2022-03-19T08:56:45Z</time>
      </trkpt>
      <trkpt lat="42.597802" lon="0.983405">
        <ele>2378.623</ele>
        <time>2022-03-19T08:56:51Z</time>
      </trkpt>
      <trkpt lat="42.597817" lon="0.983338">
        <ele>2378.952</ele>
        <time>2022-03-19T08:56:56Z</time>
      </trkpt>
      <trkpt lat="42.597840" lon="0.983278">
        <ele>2379.480</ele>
        <time>2022-03-19T08:57:02Z</time>
      </trkpt>
      <trkpt lat="42.597873" lon="0.983226">
        <ele>2379.662</ele>
        <time>2022-03-19T08:57:07Z</time>
      </trkpt>
      <trkpt lat="42.597911" lon="0.983188">
        <ele>2380.039</ele>
        <time>2022-03-19T08:57:12Z</time>
      </trkpt>
      <trkpt lat="42.597943" lon="0.983130">
        <ele>2379.933</ele>
        <time>2022-03-19T08:57:17Z</time>
      </trkpt>
      <trkpt lat="42.597971" lon="0.983065">
        <ele>2379.424</ele>
        <time>2022-03-19T08:57:22Z</time>
      </trkpt>
      <trkpt lat="42.598001" lon="0.983013">
        <ele>2379.404</ele>
        <time>2022-03-19T08:57:27Z</time>
      </trkpt>
      <trkpt lat="42.598041" lon="0.982965">
        <ele>2379.514</ele>
        <time>2022-03-19T08:57:33Z</time>
      </trkpt>
      <trkpt lat="42.598058" lon="0.982898">
        <ele>2379.908</ele>
        <time>2022-03-19T08:57:39Z</time>
      </trkpt>
      <trkpt lat="42.598075" lon="0.982840">
        <ele>2380.121</ele>
        <time>2022-03-19T08:57:45Z</time>
      </trkpt>
      <trkpt lat="42.598098" lon="0.982778">
        <ele>2381.429</ele>
        <time>2022-03-19T08:57:51Z</time>
      </trkpt>
      <trkpt lat="42.598120" lon="0.982723">
        <ele>2382.311</ele>
        <time>2022-03-19T08:57:55Z</time>
      </trkpt>
      <trkpt lat="42.598138" lon="0.982665">
        <ele>2382.890</ele>
        <time>2022-03-19T08:57:59Z</time>
      </trkpt>
      <trkpt lat="42.598176" lon="0.982608">
        <ele>2383.388</ele>
        <time>2022-03-19T08:58:04Z</time>
      </trkpt>
      <trkpt lat="42.598196" lon="0.982540">
        <ele>2383.980</ele>
        <time>2022-03-19T08:58:09Z</time>
      </trkpt>
      <trkpt lat="42.598229" lon="0.982498">
        <ele>2384.147</ele>
        <time>2022-03-19T08:58:12Z</time>
      </trkpt>
      <trkpt lat="42.598264" lon="0.982450">
        <ele>2384.481</ele>
        <time>2022-03-19T08:58:16Z</time>
      </trkpt>
      <trkpt lat="42.598297" lon="0.982400">
        <ele>2383.765</ele>
        <time>2022-03-19T08:58:20Z</time>
      </trkpt>
      <trkpt lat="42.598339" lon="0.982363">
        <ele>2383.568</ele>
        <time>2022-03-19T08:58:24Z</time>
      </trkpt>
      <trkpt lat="42.598374" lon="0.982305">
        <ele>2383.614</ele>
        <time>2022-03-19T08:58:29Z</time>
      </trkpt>
      <trkpt lat="42.598397" lon="0.982242">
        <ele>2383.308</ele>
        <time>2022-03-19T08:58:34Z</time>
      </trkpt>
      <trkpt lat="42.598404" lon="0.982179">
        <ele>2383.065</ele>
        <time>2022-03-19T08:58:39Z</time>
      </trkpt>
      <trkpt lat="42.598421" lon="0.982112">
        <ele>2382.423</ele>
        <time>2022-03-19T08:58:44Z</time>
      </trkpt>
      <trkpt lat="42.598444" lon="0.982047">
        <ele>2381.645</ele>
        <time>2022-03-19T08:58:47Z</time>
      </trkpt>
      <trkpt lat="42.598469" lon="0.981995">
        <ele>2381.024</ele>
        <time>2022-03-19T08:58:49Z</time>
      </trkpt>
      <trkpt lat="42.598492" lon="0.981933">
        <ele>2380.172</ele>
        <time>2022-03-19T08:58:51Z</time>
      </trkpt>
      <trkpt lat="42.598527" lon="0.981866">
        <ele>2379.284</ele>
        <time>2022-03-19T08:58:53Z</time>
      </trkpt>
      <trkpt lat="42.598567" lon="0.981799">
        <ele>2378.421</ele>
        <time>2022-03-19T08:58:55Z</time>
      </trkpt>
      <trkpt lat="42.598592" lon="0.981731">
        <ele>2377.565</ele>
        <time>2022-03-19T08:58:57Z</time>
      </trkpt>
      <trkpt lat="42.598610" lon="0.981669">
        <ele>2376.819</ele>
        <time>2022-03-19T08:59:00Z</time>
      </trkpt>
      <trkpt lat="42.598638" lon="0.981606">
        <ele>2375.309</ele>
        <time>2022-03-19T08:59:03Z</time>
      </trkpt>
      <trkpt lat="42.598656" lon="0.981546">
        <ele>2374.419</ele>
        <time>2022-03-19T08:59:07Z</time>
      </trkpt>
      <trkpt lat="42.598683" lon="0.981479">
        <ele>2372.508</ele>
        <time>2022-03-19T08:59:12Z</time>
      </trkpt>
      <trkpt lat="42.598693" lon="0.981417">
        <ele>2371.410</ele>
        <time>2022-03-19T08:59:18Z</time>
      </trkpt>
      <trkpt lat="42.598713" lon="0.981357">
        <ele>2369.848</ele>
        <time>2022-03-19T08:59:23Z</time>
      </trkpt>
      <trkpt lat="42.598741" lon="0.981297">
        <ele>2369.480</ele>
        <time>2022-03-19T08:59:28Z</time>
      </trkpt>
      <trkpt lat="42.598769" lon="0.981237">
        <ele>2368.759</ele>
        <time>2022-03-19T08:59:33Z</time>
      </trkpt>
      <trkpt lat="42.598807" lon="0.981190">
        <ele>2368.457</ele>
        <time>2022-03-19T08:59:37Z</time>
      </trkpt>
      <trkpt lat="42.598835" lon="0.981127">
        <ele>2368.369</ele>
        <time>2022-03-19T08:59:42Z</time>
      </trkpt>
      <trkpt lat="42.598858" lon="0.981059">
        <ele>2368.986</ele>
        <time>2022-03-19T08:59:47Z</time>
      </trkpt>
      <trkpt lat="42.598886" lon="0.981006">
        <ele>2368.840</ele>
        <time>2022-03-19T08:59:51Z</time>
      </trkpt>
      <trkpt lat="42.598913" lon="0.980954">
        <ele>2370.053</ele>
        <time>2022-03-19T09:00:09Z</time>
      </trkpt>
      <trkpt lat="42.598933" lon="0.980896">
        <ele>2370.004</ele>
        <time>2022-03-19T09:00:14Z</time>
      </trkpt>
      <trkpt lat="42.598973" lon="0.980839">
        <ele>2370.014</ele>
        <time>2022-03-19T09:00:19Z</time>
      </trkpt>
      <trkpt lat="42.598995" lon="0.980781">
        <ele>2370.608</ele>
        <time>2022-03-19T09:00:24Z</time>
      </trkpt>
      <trkpt lat="42.599012" lon="0.980718">
        <ele>2370.914</ele>
        <time>2022-03-19T09:00:29Z</time>
      </trkpt>
      <trkpt lat="42.599040" lon="0.980655">
        <ele>2371.152</ele>
        <time>2022-03-19T09:00:34Z</time>
      </trkpt>
      <trkpt lat="42.599072" lon="0.980607">
        <ele>2371.594</ele>
        <time>2022-03-19T09:00:38Z</time>
      </trkpt>
      <trkpt lat="42.599089" lon="0.980542">
        <ele>2371.843</ele>
        <time>2022-03-19T09:00:43Z</time>
      </trkpt>
      <trkpt lat="42.599117" lon="0.980494">
        <ele>2372.341</ele>
        <time>2022-03-19T09:00:47Z</time>
      </trkpt>
      <trkpt lat="42.599154" lon="0.980434">
        <ele>2372.393</ele>
        <time>2022-03-19T09:00:51Z</time>
      </trkpt>
      <trkpt lat="42.599181" lon="0.980377">
        <ele>2371.960</ele>
        <time>2022-03-19T09:00:55Z</time>
      </trkpt>
      <trkpt lat="42.599209" lon="0.980319">
        <ele>2371.964</ele>
        <time>2022-03-19T09:00:59Z</time>
      </trkpt>
      <trkpt lat="42.599229" lon="0.980257">
        <ele>2372.332</ele>
        <time>2022-03-19T09:01:04Z</time>
      </trkpt>
      <trkpt lat="42.599247" lon="0.980192">
        <ele>2372.192</ele>
        <time>2022-03-19T09:01:08Z</time>
      </trkpt>
      <trkpt lat="42.599277" lon="0.980144">
        <ele>2371.811</ele>
        <time>2022-03-19T09:01:12Z</time>
      </trkpt>
      <trkpt lat="42.599309" lon="0.980087">
        <ele>2371.908</ele>
        <time>2022-03-19T09:01:16Z</time>
      </trkpt>
      <trkpt lat="42.599339" lon="0.980032">
        <ele>2372.362</ele>
        <time>2022-03-19T09:01:20Z</time>
      </trkpt>
      <trkpt lat="42.599371" lon="0.979985">
        <ele>2372.930</ele>
        <time>2022-03-19T09:01:24Z</time>
      </trkpt>
      <trkpt lat="42.599398" lon="0.979928">
        <ele>2372.642</ele>
        <time>2022-03-19T09:01:28Z</time>
      </trkpt>
      <trkpt lat="42.599425" lon="0.979873">
        <ele>2372.241</ele>
        <time>2022-03-19T09:01:32Z</time>
      </trkpt>
      <trkpt lat="42.599458" lon="0.979821">
        <ele>2371.749</ele>
        <time>2022-03-19T09:01:36Z</time>
      </trkpt>
      <trkpt lat="42.599475" lon="0.979761">
        <ele>2371.561</ele>
        <time>2022-03-19T09:01:41Z</time>
      </trkpt>
      <trkpt lat="42.599483" lon="0.979693">
        <ele>2371.318</ele>
        <time>2022-03-19T09:01:46Z</time>
      </trkpt>
      <trkpt lat="42.599521" lon="0.979641">
        <ele>2371.482</ele>
        <time>2022-03-19T09:01:50Z</time>
      </trkpt>
      <trkpt lat="42.599553" lon="0.979578">
        <ele>2371.633</ele>
        <time>2022-03-19T09:01:54Z</time>
      </trkpt>
      <trkpt lat="42.599595" lon="0.979528">
        <ele>2372.323</ele>
        <time>2022-03-19T09:01:58Z</time>
      </trkpt>
      <trkpt lat="42.599628" lon="0.979475">
        <ele>2372.815</ele>
        <time>2022-03-19T09:02:02Z</time>
      </trkpt>
      <trkpt lat="42.599668" lon="0.979427">
        <ele>2373.008</ele>
        <time>2022-03-19T09:02:06Z</time>
      </trkpt>
      <trkpt lat="42.599685" lon="0.979369">
        <ele>2373.472</ele>
        <time>2022-03-19T09:02:10Z</time>
      </trkpt>
      <trkpt lat="42.599720" lon="0.979327">
        <ele>2373.860</ele>
        <time>2022-03-19T09:02:14Z</time>
      </trkpt>
      <trkpt lat="42.599733" lon="0.979262">
        <ele>2374.042</ele>
        <time>2022-03-19T09:02:20Z</time>
      </trkpt>
      <trkpt lat="42.599761" lon="0.979207">
        <ele>2373.861</ele>
        <time>2022-03-19T09:02:25Z</time>
      </trkpt>
      <trkpt lat="42.599803" lon="0.979157">
        <ele>2373.099</ele>
        <time>2022-03-19T09:02:30Z</time>
      </trkpt>
      <trkpt lat="42.599843" lon="0.979102">
        <ele>2372.521</ele>
        <time>2022-03-19T09:02:35Z</time>
      </trkpt>
      <trkpt lat="42.599876" lon="0.979052">
        <ele>2373.018</ele>
        <time>2022-03-19T09:02:40Z</time>
      </trkpt>
      <trkpt lat="42.599886" lon="0.978984">
        <ele>2373.162</ele>
        <time>2022-03-19T09:02:47Z</time>
      </trkpt>
      <trkpt lat="42.599904" lon="0.978924">
        <ele>2372.944</ele>
        <time>2022-03-19T09:02:53Z</time>
      </trkpt>
      <trkpt lat="42.599947" lon="0.978887">
        <ele>2372.805</ele>
        <time>2022-03-19T09:02:57Z</time>
      </trkpt>
      <trkpt lat="42.599985" lon="0.978840">
        <ele>2372.615</ele>
        <time>2022-03-19T09:03:02Z</time>
      </trkpt>
      <trkpt lat="42.600020" lon="0.978785">
        <ele>2372.008</ele>
        <time>2022-03-19T09:03:06Z</time>
      </trkpt>
      <trkpt lat="42.600060" lon="0.978735">
        <ele>2371.033</ele>
        <time>2022-03-19T09:03:12Z</time>
      </trkpt>
      <trkpt lat="42.600097" lon="0.978680">
        <ele>2370.781</ele>
        <time>2022-03-19T09:03:17Z</time>
      </trkpt>
      <trkpt lat="42.600132" lon="0.978638">
        <ele>2370.973</ele>
        <time>2022-03-19T09:03:21Z</time>
      </trkpt>
      <trkpt lat="42.600170" lon="0.978603">
        <ele>2370.882</ele>
        <time>2022-03-19T09:03:25Z</time>
      </trkpt>
      <trkpt lat="42.600202" lon="0.978553">
        <ele>2371.030</ele>
        <time>2022-03-19T09:03:30Z</time>
      </trkpt>
      <trkpt lat="42.600239" lon="0.978513">
        <ele>2371.542</ele>
        <time>2022-03-19T09:03:35Z</time>
      </trkpt>
      <trkpt lat="42.600277" lon="0.978463">
        <ele>2371.399</ele>
        <time>2022-03-19T09:03:39Z</time>
      </trkpt>
      <trkpt lat="42.600302" lon="0.978403">
        <ele>2371.413</ele>
        <time>2022-03-19T09:03:46Z</time>
      </trkpt>
      <trkpt lat="42.600332" lon="0.978353">
        <ele>2372.383</ele>
        <time>2022-03-19T09:03:52Z</time>
      </trkpt>
      <trkpt lat="42.600372" lon="0.978311">
        <ele>2374.725</ele>
        <time>2022-03-19T09:04:00Z</time>
      </trkpt>
      <trkpt lat="42.600412" lon="0.978283">
        <ele>2375.917</ele>
        <time>2022-03-19T09:04:04Z</time>
      </trkpt>
      <trkpt lat="42.600450" lon="0.978235">
        <ele>2376.608</ele>
        <time>2022-03-19T09:04:10Z</time>
      </trkpt>
      <trkpt lat="42.600447" lon="0.978157">
        <ele>2376.297</ele>
        <time>2022-03-19T09:04:56Z</time>
      </trkpt>
      <trkpt lat="42.600475" lon="0.978102">
        <ele>2376.445</ele>
        <time>2022-03-19T09:05:41Z</time>
      </trkpt>
      <trkpt lat="42.600423" lon="0.978040">
        <ele>2377.277</ele>
        <time>2022-03-19T09:06:01Z</time>
      </trkpt>
      <trkpt lat="42.600406" lon="0.977977">
        <ele>2377.816</ele>
        <time>2022-03-19T09:06:09Z</time>
      </trkpt>
      <trkpt lat="42.600411" lon="0.977909">
        <ele>2378.324</ele>
        <time>2022-03-19T09:06:18Z</time>
      </trkpt>
      <trkpt lat="42.600448" lon="0.977847">
        <ele>2379.386</ele>
        <time>2022-03-19T09:06:34Z</time>
      </trkpt>
      <trkpt lat="42.600491" lon="0.977825">
        <ele>2379.663</ele>
        <time>2022-03-19T09:06:39Z</time>
      </trkpt>
      <trkpt lat="42.600529" lon="0.977787">
        <ele>2379.847</ele>
        <time>2022-03-19T09:06:44Z</time>
      </trkpt>
      <trkpt lat="42.600571" lon="0.977747">
        <ele>2379.937</ele>
        <time>2022-03-19T09:06:51Z</time>
      </trkpt>
      <trkpt lat="42.600603" lon="0.977702">
        <ele>2379.949</ele>
        <time>2022-03-19T09:06:58Z</time>
      </trkpt>
      <trkpt lat="42.600590" lon="0.977639">
        <ele>2379.913</ele>
        <time>2022-03-19T09:07:06Z</time>
      </trkpt>
      <trkpt lat="42.600577" lon="0.977567">
        <ele>2380.108</ele>
        <time>2022-03-19T09:07:14Z</time>
      </trkpt>
      <trkpt lat="42.600554" lon="0.977507">
        <ele>2380.322</ele>
        <time>2022-03-19T09:07:21Z</time>
      </trkpt>
      <trkpt lat="42.600562" lon="0.977444">
        <ele>2381.240</ele>
        <time>2022-03-19T09:07:29Z</time>
      </trkpt>
      <trkpt lat="42.600542" lon="0.977382">
        <ele>2382.032</ele>
        <time>2022-03-19T09:07:38Z</time>
      </trkpt>
      <trkpt lat="42.600547" lon="0.977317">
        <ele>2383.661</ele>
        <time>2022-03-19T09:07:47Z</time>
      </trkpt>
      <trkpt lat="42.600559" lon="0.977254">
        <ele>2384.739</ele>
        <time>2022-03-19T09:07:55Z</time>
      </trkpt>
      <trkpt lat="42.600572" lon="0.977191">
        <ele>2385.931</ele>
        <time>2022-03-19T09:08:01Z</time>
      </trkpt>
      <trkpt lat="42.600584" lon="0.977126">
        <ele>2387.778</ele>
        <time>2022-03-19T09:08:11Z</time>
      </trkpt>
      <trkpt lat="42.600557" lon="0.977069">
        <ele>2389.272</ele>
        <time>2022-03-19T09:08:19Z</time>
      </trkpt>
      <trkpt lat="42.600584" lon="0.977019">
        <ele>2391.219</ele>
        <time>2022-03-19T09:08:28Z</time>
      </trkpt>
      <trkpt lat="42.600634" lon="0.977002">
        <ele>2392.809</ele>
        <time>2022-03-19T09:08:37Z</time>
      </trkpt>
      <trkpt lat="42.600679" lon="0.976975">
        <ele>2393.519</ele>
        <time>2022-03-19T09:08:45Z</time>
      </trkpt>
      <trkpt lat="42.600681" lon="0.976902">
        <ele>2393.808</ele>
        <time>2022-03-19T09:08:58Z</time>
      </trkpt>
      <trkpt lat="42.600676" lon="0.976837">
        <ele>2394.290</ele>
        <time>2022-03-19T09:09:08Z</time>
      </trkpt>
      <trkpt lat="42.600711" lon="0.976792">
        <ele>2396.068</ele>
        <time>2022-03-19T09:09:18Z</time>
      </trkpt>
      <trkpt lat="42.600766" lon="0.976744">
        <ele>2398.940</ele>
        <time>2022-03-19T09:09:34Z</time>
      </trkpt>
      <trkpt lat="42.600796" lon="0.976696">
        <ele>2400.839</ele>
        <time>2022-03-19T09:09:42Z</time>
      </trkpt>
      <trkpt lat="42.600814" lon="0.976639">
        <ele>2402.217</ele>
        <time>2022-03-19T09:09:52Z</time>
      </trkpt>
      <trkpt lat="42.600854" lon="0.976572">
        <ele>2405.579</ele>
        <time>2022-03-19T09:10:13Z</time>
      </trkpt>
      <trkpt lat="42.600874" lon="0.976469">
        <ele>2407.466</ele>
        <time>2022-03-19T09:10:54Z</time>
      </trkpt>
      <trkpt lat="42.600952" lon="0.976424">
        <ele>2409.480</ele>
        <time>2022-03-19T09:11:17Z</time>
      </trkpt>
      <trkpt lat="42.600975" lon="0.976371">
        <ele>2409.749</ele>
        <time>2022-03-19T09:11:25Z</time>
      </trkpt>
      <trkpt lat="42.600960" lon="0.976311">
        <ele>2411.802</ele>
        <time>2022-03-19T09:11:38Z</time>
      </trkpt>
      <trkpt lat="42.600988" lon="0.976259">
        <ele>2413.822</ele>
        <time>2022-03-19T09:11:58Z</time>
      </trkpt>
      <trkpt lat="42.601033" lon="0.976271">
        <ele>2418.408</ele>
        <time>2022-03-19T09:12:07Z</time>
      </trkpt>
      <trkpt lat="42.601063" lon="0.976219">
        <ele>2419.963</ele>
        <time>2022-03-19T09:12:18Z</time>
      </trkpt>
      <trkpt lat="42.601063" lon="0.976146">
        <ele>2422.531</ele>
        <time>2022-03-19T09:12:35Z</time>
      </trkpt>
      <trkpt lat="42.601085" lon="0.976086">
        <ele>2424.733</ele>
        <time>2022-03-19T09:12:54Z</time>
      </trkpt>
      <trkpt lat="42.601097" lon="0.976018">
        <ele>2426.572</ele>
        <time>2022-03-19T09:13:07Z</time>
      </trkpt>
      <trkpt lat="42.601067" lon="0.975970">
        <ele>2427.960</ele>
        <time>2022-03-19T09:13:19Z</time>
      </trkpt>
      <trkpt lat="42.601037" lon="0.975923">
        <ele>2429.312</ele>
        <time>2022-03-19T09:13:27Z</time>
      </trkpt>
      <trkpt lat="42.601032" lon="0.975860">
        <ele>2430.969</ele>
        <time>2022-03-19T09:13:42Z</time>
      </trkpt>
      <trkpt lat="42.601077" lon="0.975833">
        <ele>2431.393</ele>
        <time>2022-03-19T09:13:49Z</time>
      </trkpt>
      <trkpt lat="42.601125" lon="0.975826">
        <ele>2432.519</ele>
        <time>2022-03-19T09:13:59Z</time>
      </trkpt>
      <trkpt lat="42.601133" lon="0.975749">
        <ele>2434.809</ele>
        <time>2022-03-19T09:14:10Z</time>
      </trkpt>
      <trkpt lat="42.601091" lon="0.975726">
        <ele>2438.019</ele>
        <time>2022-03-19T09:14:17Z</time>
      </trkpt>
      <trkpt lat="42.601043" lon="0.975693">
        <ele>2439.108</ele>
        <time>2022-03-19T09:14:28Z</time>
      </trkpt>
      <trkpt lat="42.600985" lon="0.975610">
        <ele>2441.740</ele>
        <time>2022-03-19T09:14:46Z</time>
      </trkpt>
      <trkpt lat="42.600942" lon="0.975578">
        <ele>2443.288</ele>
        <time>2022-03-19T09:14:54Z</time>
      </trkpt>
      <trkpt lat="42.600840" lon="0.975531">
        <ele>2448.890</ele>
        <time>2022-03-19T09:15:20Z</time>
      </trkpt>
      <trkpt lat="42.600785" lon="0.975493">
        <ele>2450.649</ele>
        <time>2022-03-19T09:15:33Z</time>
      </trkpt>
      <trkpt lat="42.600797" lon="0.975433">
        <ele>2451.467</ele>
        <time>2022-03-19T09:15:56Z</time>
      </trkpt>
      <trkpt lat="42.600837" lon="0.975405">
        <ele>2452.369</ele>
        <time>2022-03-19T09:16:11Z</time>
      </trkpt>
      <trkpt lat="42.600880" lon="0.975377">
        <ele>2452.866</ele>
        <time>2022-03-19T09:16:19Z</time>
      </trkpt>
      <trkpt lat="42.600915" lon="0.975334">
        <ele>2454.350</ele>
        <time>2022-03-19T09:16:35Z</time>
      </trkpt>
      <trkpt lat="42.600960" lon="0.975307">
        <ele>2454.954</ele>
        <time>2022-03-19T09:16:44Z</time>
      </trkpt>
      <trkpt lat="42.600992" lon="0.975222">
        <ele>2458.256</ele>
        <time>2022-03-19T09:17:46Z</time>
      </trkpt>
      <trkpt lat="42.600960" lon="0.975167">
        <ele>2458.711</ele>
        <time>2022-03-19T09:17:53Z</time>
      </trkpt>
      <trkpt lat="42.600918" lon="0.975139">
        <ele>2459.808</ele>
        <time>2022-03-19T09:18:03Z</time>
      </trkpt>
      <trkpt lat="42.600853" lon="0.975054">
        <ele>2463.244</ele>
        <time>2022-03-19T09:18:30Z</time>
      </trkpt>
      <trkpt lat="42.600820" lon="0.975006">
        <ele>2465.212</ele>
        <time>2022-03-19T09:18:39Z</time>
      </trkpt>
      <trkpt lat="42.600778" lon="0.974981">
        <ele>2467.324</ele>
        <time>2022-03-19T09:18:48Z</time>
      </trkpt>
      <trkpt lat="42.600820" lon="0.974958">
        <ele>2469.173</ele>
        <time>2022-03-19T09:19:01Z</time>
      </trkpt>
      <trkpt lat="42.600862" lon="0.974918">
        <ele>2471.691</ele>
        <time>2022-03-19T09:19:18Z</time>
      </trkpt>
      <trkpt lat="42.600907" lon="0.974878">
        <ele>2471.483</ele>
        <time>2022-03-19T09:19:39Z</time>
      </trkpt>
      <trkpt lat="42.600955" lon="0.974866">
        <ele>2471.950</ele>
        <time>2022-03-19T09:19:45Z</time>
      </trkpt>
      <trkpt lat="42.600950" lon="0.974799">
        <ele>2473.174</ele>
        <time>2022-03-19T09:20:00Z</time>
      </trkpt>
      <trkpt lat="42.600982" lon="0.974754">
        <ele>2472.921</ele>
        <time>2022-03-19T09:20:20Z</time>
      </trkpt>
      <trkpt lat="42.601017" lon="0.974709">
        <ele>2473.641</ele>
        <time>2022-03-19T09:20:27Z</time>
      </trkpt>
      <trkpt lat="42.601010" lon="0.974642">
        <ele>2476.105</ele>
        <time>2022-03-19T09:20:42Z</time>
      </trkpt>
      <trkpt lat="42.600992" lon="0.974579">
        <ele>2477.608</ele>
        <time>2022-03-19T09:20:49Z</time>
      </trkpt>
      <trkpt lat="42.600920" lon="0.974586">
        <ele>2479.261</ele>
        <time>2022-03-19T09:21:00Z</time>
      </trkpt>
      <trkpt lat="42.600927" lon="0.974518">
        <ele>2482.689</ele>
        <time>2022-03-19T09:22:12Z</time>
      </trkpt>
      <trkpt lat="42.600954" lon="0.974438">
        <ele>2482.951</ele>
        <time>2022-03-19T09:22:16Z</time>
      </trkpt>
      <trkpt lat="42.600979" lon="0.974385">
        <ele>2483.280</ele>
        <time>2022-03-19T09:22:20Z</time>
      </trkpt>
      <trkpt lat="42.600989" lon="0.974323">
        <ele>2483.378</ele>
        <time>2022-03-19T09:22:24Z</time>
      </trkpt>
      <trkpt lat="42.600984" lon="0.974261">
        <ele>2483.970</ele>
        <time>2022-03-19T09:22:28Z</time>
      </trkpt>
      <trkpt lat="42.600996" lon="0.974201">
        <ele>2484.817</ele>
        <time>2022-03-19T09:22:34Z</time>
      </trkpt>
      <trkpt lat="42.601008" lon="0.974141">
        <ele>2485.441</ele>
        <time>2022-03-19T09:22:39Z</time>
      </trkpt>
      <trkpt lat="42.601041" lon="0.974078">
        <ele>2485.059</ele>
        <time>2022-03-19T09:22:44Z</time>
      </trkpt>
      <trkpt lat="42.601076" lon="0.974028">
        <ele>2484.703</ele>
        <time>2022-03-19T09:22:49Z</time>
      </trkpt>
      <trkpt lat="42.601089" lon="0.973963">
        <ele>2484.023</ele>
        <time>2022-03-19T09:22:56Z</time>
      </trkpt>
      <trkpt lat="42.601076" lon="0.973896">
        <ele>2483.808</ele>
        <time>2022-03-19T09:23:04Z</time>
      </trkpt>
      <trkpt lat="42.600996" lon="0.973883">
        <ele>2483.274</ele>
        <time>2022-03-19T09:23:33Z</time>
      </trkpt>
      <trkpt lat="42.601014" lon="0.973816">
        <ele>2482.572</ele>
        <time>2022-03-19T09:24:06Z</time>
      </trkpt>
      <trkpt lat="42.601076" lon="0.973759">
        <ele>2485.424</ele>
        <time>2022-03-19T09:25:25Z</time>
      </trkpt>
      <trkpt lat="42.601083" lon="0.973684">
        <ele>2485.113</ele>
        <time>2022-03-19T09:25:30Z</time>
      </trkpt>
      <trkpt lat="42.601090" lon="0.973607">
        <ele>2484.661</ele>
        <time>2022-03-19T09:25:33Z</time>
      </trkpt>
      <trkpt lat="42.601107" lon="0.973537">
        <ele>2483.763</ele>
        <time>2022-03-19T09:25:36Z</time>
      </trkpt>
      <trkpt lat="42.601117" lon="0.973475">
        <ele>2482.020</ele>
        <time>2022-03-19T09:25:39Z</time>
      </trkpt>
      <trkpt lat="42.601139" lon="0.973415">
        <ele>2480.164</ele>
        <time>2022-03-19T09:25:43Z</time>
      </trkpt>
      <trkpt lat="42.601159" lon="0.973350">
        <ele>2478.925</ele>
        <time>2022-03-19T09:25:46Z</time>
      </trkpt>
      <trkpt lat="42.601181" lon="0.973282">
        <ele>2476.726</ele>
        <time>2022-03-19T09:25:49Z</time>
      </trkpt>
      <trkpt lat="42.601206" lon="0.973222">
        <ele>2475.408</ele>
        <time>2022-03-19T09:25:51Z</time>
      </trkpt>
      <trkpt lat="42.601228" lon="0.973154">
        <ele>2473.608</ele>
        <time>2022-03-19T09:25:53Z</time>
      </trkpt>
      <trkpt lat="42.601240" lon="0.973066">
        <ele>2471.621</ele>
        <time>2022-03-19T09:25:55Z</time>
      </trkpt>
      <trkpt lat="42.601253" lon="0.972984">
        <ele>2469.889</ele>
        <time>2022-03-19T09:25:57Z</time>
      </trkpt>
      <trkpt lat="42.601275" lon="0.972906">
        <ele>2467.911</ele>
        <time>2022-03-19T09:25:59Z</time>
      </trkpt>
      <trkpt lat="42.601298" lon="0.972826">
        <ele>2466.880</ele>
        <time>2022-03-19T09:26:01Z</time>
      </trkpt>
      <trkpt lat="42.601313" lon="0.972753">
        <ele>2465.538</ele>
        <time>2022-03-19T09:26:03Z</time>
      </trkpt>
      <trkpt lat="42.601325" lon="0.972681">
        <ele>2464.310</ele>
        <time>2022-03-19T09:26:05Z</time>
      </trkpt>
      <trkpt lat="42.601338" lon="0.972606">
        <ele>2463.097</ele>
        <time>2022-03-19T09:26:08Z</time>
      </trkpt>
      <trkpt lat="42.601361" lon="0.972543">
        <ele>2461.921</ele>
        <time>2022-03-19T09:26:13Z</time>
      </trkpt>
      <trkpt lat="42.601393" lon="0.972488">
        <ele>2457.057</ele>
        <time>2022-03-19T09:26:19Z</time>
      </trkpt>
      <trkpt lat="42.601348" lon="0.972495">
        <ele>2452.700</ele>
        <time>2022-03-19T09:27:59Z</time>
      </trkpt>
      <trkpt lat="42.601373" lon="0.972428">
        <ele>2452.620</ele>
        <time>2022-03-19T09:28:09Z</time>
      </trkpt>
      <trkpt lat="42.601420" lon="0.972390">
        <ele>2452.508</ele>
        <time>2022-03-19T09:28:15Z</time>
      </trkpt>
      <trkpt lat="42.601465" lon="0.972363">
        <ele>2452.834</ele>
        <time>2022-03-19T09:28:22Z</time>
      </trkpt>
      <trkpt lat="42.601505" lon="0.972290">
        <ele>2452.652</ele>
        <time>2022-03-19T09:28:25Z</time>
      </trkpt>
      <trkpt lat="42.601532" lon="0.972232">
        <ele>2452.664</ele>
        <time>2022-03-19T09:28:27Z</time>
      </trkpt>
      <trkpt lat="42.601559" lon="0.972154">
        <ele>2452.693</ele>
        <time>2022-03-19T09:28:30Z</time>
      </trkpt>
      <trkpt lat="42.601592" lon="0.972084">
        <ele>2452.091</ele>
        <time>2022-03-19T09:28:33Z</time>
      </trkpt>
      <trkpt lat="42.601620" lon="0.972026">
        <ele>2451.333</ele>
        <time>2022-03-19T09:28:35Z</time>
      </trkpt>
      <trkpt lat="42.601652" lon="0.971971">
        <ele>2450.140</ele>
        <time>2022-03-19T09:28:38Z</time>
      </trkpt>
      <trkpt lat="42.601680" lon="0.971913">
        <ele>2449.164</ele>
        <time>2022-03-19T09:28:41Z</time>
      </trkpt>
      <trkpt lat="42.601692" lon="0.971850">
        <ele>2448.356</ele>
        <time>2022-03-19T09:28:45Z</time>
      </trkpt>
      <trkpt lat="42.601700" lon="0.971783">
        <ele>2446.259</ele>
        <time>2022-03-19T09:28:51Z</time>
      </trkpt>
      <trkpt lat="42.601705" lon="0.971713">
        <ele>2446.014</ele>
        <time>2022-03-19T09:29:03Z</time>
      </trkpt>
      <trkpt lat="42.601717" lon="0.971651">
        <ele>2446.208</ele>
        <time>2022-03-19T09:29:08Z</time>
      </trkpt>
      <trkpt lat="42.601735" lon="0.971593">
        <ele>2446.484</ele>
        <time>2022-03-19T09:29:12Z</time>
      </trkpt>
      <trkpt lat="42.601733" lon="0.971531">
        <ele>2446.352</ele>
        <time>2022-03-19T09:29:15Z</time>
      </trkpt>
      <trkpt lat="42.601738" lon="0.971469">
        <ele>2446.494</ele>
        <time>2022-03-19T09:29:18Z</time>
      </trkpt>
      <trkpt lat="42.601730" lon="0.971401">
        <ele>2446.593</ele>
        <time>2022-03-19T09:29:22Z</time>
      </trkpt>
      <trkpt lat="42.601740" lon="0.971336">
        <ele>2447.041</ele>
        <time>2022-03-19T09:29:26Z</time>
      </trkpt>
      <trkpt lat="42.601752" lon="0.971258">
        <ele>2447.323</ele>
        <time>2022-03-19T09:29:30Z</time>
      </trkpt>
      <trkpt lat="42.601747" lon="0.971186">
        <ele>2448.950</ele>
        <time>2022-03-19T09:29:34Z</time>
      </trkpt>
      <trkpt lat="42.601712" lon="0.971129">
        <ele>2449.924</ele>
        <time>2022-03-19T09:29:37Z</time>
      </trkpt>
      <trkpt lat="42.601677" lon="0.971067">
        <ele>2450.639</ele>
        <time>2022-03-19T09:29:40Z</time>
      </trkpt>
      <trkpt lat="42.601645" lon="0.971005">
        <ele>2451.201</ele>
        <time>2022-03-19T09:29:43Z</time>
      </trkpt>
      <trkpt lat="42.601615" lon="0.970940">
        <ele>2451.721</ele>
        <time>2022-03-19T09:29:49Z</time>
      </trkpt>
      <trkpt lat="42.601608" lon="0.970873">
        <ele>2451.208</ele>
        <time>2022-03-19T09:29:54Z</time>
      </trkpt>
      <trkpt lat="42.601608" lon="0.970791">
        <ele>2450.422</ele>
        <time>2022-03-19T09:29:57Z</time>
      </trkpt>
      <trkpt lat="42.601595" lon="0.970706">
        <ele>2449.840</ele>
        <time>2022-03-19T09:29:59Z</time>
      </trkpt>
      <trkpt lat="42.601588" lon="0.970631">
        <ele>2448.472</ele>
        <time>2022-03-19T09:30:02Z</time>
      </trkpt>
      <trkpt lat="42.601576" lon="0.970571">
        <ele>2447.631</ele>
        <time>2022-03-19T09:30:05Z</time>
      </trkpt>
      <trkpt lat="42.601573" lon="0.970501">
        <ele>2447.129</ele>
        <time>2022-03-19T09:30:08Z</time>
      </trkpt>
      <trkpt lat="42.601563" lon="0.970433">
        <ele>2446.471</ele>
        <time>2022-03-19T09:30:11Z</time>
      </trkpt>
      <trkpt lat="42.601543" lon="0.970373">
        <ele>2445.298</ele>
        <time>2022-03-19T09:30:14Z</time>
      </trkpt>
      <trkpt lat="42.601528" lon="0.970296">
        <ele>2442.732</ele>
        <time>2022-03-19T09:30:19Z</time>
      </trkpt>
      <trkpt lat="42.601526" lon="0.970226">
        <ele>2441.138</ele>
        <time>2022-03-19T09:30:23Z</time>
      </trkpt>
      <trkpt lat="42.601521" lon="0.970149">
        <ele>2440.470</ele>
        <time>2022-03-19T09:30:27Z</time>
      </trkpt>
      <trkpt lat="42.601504" lon="0.970076">
        <ele>2439.817</ele>
        <time>2022-03-19T09:30:30Z</time>
      </trkpt>
      <trkpt lat="42.601486" lon="0.970019">
        <ele>2439.508</ele>
        <time>2022-03-19T09:30:32Z</time>
      </trkpt>
      <trkpt lat="42.601469" lon="0.969944">
        <ele>2438.772</ele>
        <time>2022-03-19T09:30:35Z</time>
      </trkpt>
      <trkpt lat="42.601467" lon="0.969876">
        <ele>2437.690</ele>
        <time>2022-03-19T09:30:38Z</time>
      </trkpt>
      <trkpt lat="42.601457" lon="0.969813">
        <ele>2436.282</ele>
        <time>2022-03-19T09:30:42Z</time>
      </trkpt>
      <trkpt lat="42.601445" lon="0.969746">
        <ele>2435.151</ele>
        <time>2022-03-19T09:30:47Z</time>
      </trkpt>
      <trkpt lat="42.601422" lon="0.969689">
        <ele>2434.559</ele>
        <time>2022-03-19T09:30:52Z</time>
      </trkpt>
      <trkpt lat="42.601410" lon="0.969622">
        <ele>2434.091</ele>
        <time>2022-03-19T09:30:57Z</time>
      </trkpt>
      <trkpt lat="42.601398" lon="0.969557">
        <ele>2434.818</ele>
        <time>2022-03-19T09:31:03Z</time>
      </trkpt>
      <trkpt lat="42.601365" lon="0.969514">
        <ele>2435.332</ele>
        <time>2022-03-19T09:31:08Z</time>
      </trkpt>
      <trkpt lat="42.601328" lon="0.969472">
        <ele>2435.572</ele>
        <time>2022-03-19T09:31:13Z</time>
      </trkpt>
      <trkpt lat="42.601291" lon="0.969424">
        <ele>2436.313</ele>
        <time>2022-03-19T09:31:18Z</time>
      </trkpt>
      <trkpt lat="42.601253" lon="0.969377">
        <ele>2436.814</ele>
        <time>2022-03-19T09:31:24Z</time>
      </trkpt>
      <trkpt lat="42.601223" lon="0.969314">
        <ele>2437.208</ele>
        <time>2022-03-19T09:31:29Z</time>
      </trkpt>
      <trkpt lat="42.601208" lon="0.969251">
        <ele>2437.736</ele>
        <time>2022-03-19T09:31:33Z</time>
      </trkpt>
      <trkpt lat="42.601193" lon="0.969189">
        <ele>2437.934</ele>
        <time>2022-03-19T09:31:37Z</time>
      </trkpt>
      <trkpt lat="42.601181" lon="0.969126">
        <ele>2437.686</ele>
        <time>2022-03-19T09:31:43Z</time>
      </trkpt>
      <trkpt lat="42.601174" lon="0.969063">
        <ele>2437.535</ele>
        <time>2022-03-19T09:31:47Z</time>
      </trkpt>
      <trkpt lat="42.601164" lon="0.968993">
        <ele>2437.743</ele>
        <time>2022-03-19T09:31:52Z</time>
      </trkpt>
      <trkpt lat="42.601164" lon="0.968928">
        <ele>2437.875</ele>
        <time>2022-03-19T09:31:56Z</time>
      </trkpt>
      <trkpt lat="42.601151" lon="0.968856">
        <ele>2436.962</ele>
        <time>2022-03-19T09:32:01Z</time>
      </trkpt>
      <trkpt lat="42.601143" lon="0.968794">
        <ele>2436.866</ele>
        <time>2022-03-19T09:32:06Z</time>
      </trkpt>
      <trkpt lat="42.601148" lon="0.968729">
        <ele>2436.873</ele>
        <time>2022-03-19T09:32:12Z</time>
      </trkpt>
      <trkpt lat="42.601156" lon="0.968664">
        <ele>2436.185</ele>
        <time>2022-03-19T09:32:17Z</time>
      </trkpt>
      <trkpt lat="42.601146" lon="0.968604">
        <ele>2435.113</ele>
        <time>2022-03-19T09:32:24Z</time>
      </trkpt>
      <trkpt lat="42.601129" lon="0.968542">
        <ele>2435.108</ele>
        <time>2022-03-19T09:32:33Z</time>
      </trkpt>
      <trkpt lat="42.601104" lon="0.968487">
        <ele>2435.516</ele>
        <time>2022-03-19T09:32:39Z</time>
      </trkpt>
      <trkpt lat="42.601079" lon="0.968434">
        <ele>2435.134</ele>
        <time>2022-03-19T09:32:54Z</time>
      </trkpt>
      <trkpt lat="42.601109" lon="0.968361">
        <ele>2434.776</ele>
        <time>2022-03-19T09:33:10Z</time>
      </trkpt>
      <trkpt lat="42.601151" lon="0.968336">
        <ele>2434.575</ele>
        <time>2022-03-19T09:33:20Z</time>
      </trkpt>
      <trkpt lat="42.601123" lon="0.968284">
        <ele>2434.993</ele>
        <time>2022-03-19T09:33:30Z</time>
      </trkpt>
      <trkpt lat="42.601110" lon="0.968221">
        <ele>2435.995</ele>
        <time>2022-03-19T09:33:40Z</time>
      </trkpt>
      <trkpt lat="42.601143" lon="0.968156">
        <ele>2440.732</ele>
        <time>2022-03-19T09:33:54Z</time>
      </trkpt>
      <trkpt lat="42.601180" lon="0.968041">
        <ele>2444.846</ele>
        <time>2022-03-19T09:34:41Z</time>
      </trkpt>
      <trkpt lat="42.601215" lon="0.967929">
        <ele>2447.687</ele>
        <time>2022-03-19T09:35:19Z</time>
      </trkpt>
      <trkpt lat="42.601270" lon="0.967936">
        <ele>2449.242</ele>
        <time>2022-03-19T09:35:34Z</time>
      </trkpt>
      <trkpt lat="42.601295" lon="0.967881">
        <ele>2450.826</ele>
        <time>2022-03-19T09:35:42Z</time>
      </trkpt>
      <trkpt lat="42.601307" lon="0.967819">
        <ele>2453.008</ele>
        <time>2022-03-19T09:35:50Z</time>
      </trkpt>
      <trkpt lat="42.601290" lon="0.967761">
        <ele>2455.267</ele>
        <time>2022-03-19T09:35:59Z</time>
      </trkpt>
      <trkpt lat="42.601293" lon="0.967699">
        <ele>2457.295</ele>
        <time>2022-03-19T09:36:08Z</time>
      </trkpt>
      <trkpt lat="42.601280" lon="0.967639">
        <ele>2459.437</ele>
        <time>2022-03-19T09:36:21Z</time>
      </trkpt>
      <trkpt lat="42.601327" lon="0.967626">
        <ele>2461.846</ele>
        <time>2022-03-19T09:36:30Z</time>
      </trkpt>
      <trkpt lat="42.601372" lon="0.967618">
        <ele>2463.814</ele>
        <time>2022-03-19T09:36:40Z</time>
      </trkpt>
      <trkpt lat="42.601420" lon="0.967603">
        <ele>2463.776</ele>
        <time>2022-03-19T09:36:49Z</time>
      </trkpt>
      <trkpt lat="42.601435" lon="0.967518">
        <ele>2465.173</ele>
        <time>2022-03-19T09:37:13Z</time>
      </trkpt>
      <trkpt lat="42.601427" lon="0.967451">
        <ele>2466.247</ele>
        <time>2022-03-19T09:37:23Z</time>
      </trkpt>
      <trkpt lat="42.601412" lon="0.967384">
        <ele>2467.038</ele>
        <time>2022-03-19T09:37:33Z</time>
      </trkpt>
      <trkpt lat="42.601389" lon="0.967317">
        <ele>2468.470</ele>
        <time>2022-03-19T09:37:53Z</time>
      </trkpt>
      <trkpt lat="42.601437" lon="0.967330">
        <ele>2469.417</ele>
        <time>2022-03-19T09:38:01Z</time>
      </trkpt>
      <trkpt lat="42.601480" lon="0.967347">
        <ele>2471.508</ele>
        <time>2022-03-19T09:38:10Z</time>
      </trkpt>
      <trkpt lat="42.601542" lon="0.967394">
        <ele>2474.172</ele>
        <time>2022-03-19T09:38:28Z</time>
      </trkpt>
      <trkpt lat="42.601565" lon="0.967321">
        <ele>2474.120</ele>
        <time>2022-03-19T09:38:47Z</time>
      </trkpt>
      <trkpt lat="42.601548" lon="0.967261">
        <ele>2474.812</ele>
        <time>2022-03-19T09:38:56Z</time>
      </trkpt>
      <trkpt lat="42.601550" lon="0.967193">
        <ele>2477.181</ele>
        <time>2022-03-19T09:39:07Z</time>
      </trkpt>
      <trkpt lat="42.601515" lon="0.967146">
        <ele>2479.969</ele>
        <time>2022-03-19T09:39:17Z</time>
      </trkpt>
      <trkpt lat="42.601480" lon="0.967093">
        <ele>2482.311</ele>
        <time>2022-03-19T09:39:29Z</time>
      </trkpt>
      <trkpt lat="42.601470" lon="0.967033">
        <ele>2485.198</ele>
        <time>2022-03-19T09:39:41Z</time>
      </trkpt>
      <trkpt lat="42.601448" lon="0.966940">
        <ele>2487.932</ele>
        <time>2022-03-19T09:40:08Z</time>
      </trkpt>
      <trkpt lat="42.601463" lon="0.966882">
        <ele>2488.876</ele>
        <time>2022-03-19T09:40:17Z</time>
      </trkpt>
      <trkpt lat="42.601516" lon="0.966855">
        <ele>2490.390</ele>
        <time>2022-03-19T09:40:35Z</time>
      </trkpt>
      <trkpt lat="42.601563" lon="0.966830">
        <ele>2490.819</ele>
        <time>2022-03-19T09:40:41Z</time>
      </trkpt>
      <trkpt lat="42.601601" lon="0.966795">
        <ele>2491.308</ele>
        <time>2022-03-19T09:40:47Z</time>
      </trkpt>
      <trkpt lat="42.601636" lon="0.966755">
        <ele>2491.956</ele>
        <time>2022-03-19T09:40:53Z</time>
      </trkpt>
      <trkpt lat="42.601684" lon="0.966728">
        <ele>2492.754</ele>
        <time>2022-03-19T09:41:01Z</time>
      </trkpt>
      <trkpt lat="42.601726" lon="0.966698">
        <ele>2493.466</ele>
        <time>2022-03-19T09:41:07Z</time>
      </trkpt>
      <trkpt lat="42.601768" lon="0.966668">
        <ele>2494.655</ele>
        <time>2022-03-19T09:41:14Z</time>
      </trkpt>
      <trkpt lat="42.601803" lon="0.966618">
        <ele>2495.393</ele>
        <time>2022-03-19T09:41:20Z</time>
      </trkpt>
      <trkpt lat="42.601796" lon="0.966556">
        <ele>2496.065</ele>
        <time>2022-03-19T09:41:26Z</time>
      </trkpt>
      <trkpt lat="42.601808" lon="0.966493">
        <ele>2497.152</ele>
        <time>2022-03-19T09:41:33Z</time>
      </trkpt>
      <trkpt lat="42.601835" lon="0.966421">
        <ele>2502.916</ele>
        <time>2022-03-19T09:46:13Z</time>
      </trkpt>
      <trkpt lat="42.601882" lon="0.966386">
        <ele>2502.118</ele>
        <time>2022-03-19T09:46:17Z</time>
      </trkpt>
      <trkpt lat="42.601919" lon="0.966336">
        <ele>2501.798</ele>
        <time>2022-03-19T09:46:21Z</time>
      </trkpt>
      <trkpt lat="42.601951" lon="0.966274">
        <ele>2500.717</ele>
        <time>2022-03-19T09:46:25Z</time>
      </trkpt>
      <trkpt lat="42.601974" lon="0.966212">
        <ele>2499.008</ele>
        <time>2022-03-19T09:46:31Z</time>
      </trkpt>
      <trkpt lat="42.601996" lon="0.966155">
        <ele>2498.520</ele>
        <time>2022-03-19T09:46:36Z</time>
      </trkpt>
      <trkpt lat="42.602003" lon="0.966088">
        <ele>2498.378</ele>
        <time>2022-03-19T09:46:41Z</time>
      </trkpt>
      <trkpt lat="42.602021" lon="0.966025">
        <ele>2497.260</ele>
        <time>2022-03-19T09:46:46Z</time>
      </trkpt>
      <trkpt lat="42.602036" lon="0.965953">
        <ele>2496.659</ele>
        <time>2022-03-19T09:46:50Z</time>
      </trkpt>
      <trkpt lat="42.602051" lon="0.965888">
        <ele>2496.147</ele>
        <time>2022-03-19T09:46:54Z</time>
      </trkpt>
      <trkpt lat="42.602069" lon="0.965831">
        <ele>2495.669</ele>
        <time>2022-03-19T09:46:57Z</time>
      </trkpt>
      <trkpt lat="42.602074" lon="0.965758">
        <ele>2495.256</ele>
        <time>2022-03-19T09:47:00Z</time>
      </trkpt>
      <trkpt lat="42.602076" lon="0.965693">
        <ele>2495.440</ele>
        <time>2022-03-19T09:47:04Z</time>
      </trkpt>
      <trkpt lat="42.602094" lon="0.965635">
        <ele>2495.079</ele>
        <time>2022-03-19T09:47:10Z</time>
      </trkpt>
      <trkpt lat="42.602114" lon="0.965580">
        <ele>2494.805</ele>
        <time>2022-03-19T09:47:16Z</time>
      </trkpt>
      <trkpt lat="42.602122" lon="0.965507">
        <ele>2495.025</ele>
        <time>2022-03-19T09:47:21Z</time>
      </trkpt>
      <trkpt lat="42.602125" lon="0.965439">
        <ele>2494.908</ele>
        <time>2022-03-19T09:47:25Z</time>
      </trkpt>
      <trkpt lat="42.602138" lon="0.965376">
        <ele>2495.066</ele>
        <time>2022-03-19T09:47:30Z</time>
      </trkpt>
      <trkpt lat="42.602133" lon="0.965309">
        <ele>2495.954</ele>
        <time>2022-03-19T09:47:36Z</time>
      </trkpt>
      <trkpt lat="42.602146" lon="0.965242">
        <ele>2495.226</ele>
        <time>2022-03-19T09:47:43Z</time>
      </trkpt>
      <trkpt lat="42.602169" lon="0.965177">
        <ele>2495.465</ele>
        <time>2022-03-19T09:47:50Z</time>
      </trkpt>
      <trkpt lat="42.602186" lon="0.965114">
        <ele>2496.523</ele>
        <time>2022-03-19T09:47:56Z</time>
      </trkpt>
      <trkpt lat="42.602208" lon="0.965056">
        <ele>2497.635</ele>
        <time>2022-03-19T09:48:05Z</time>
      </trkpt>
      <trkpt lat="42.602230" lon="0.964999">
        <ele>2499.162</ele>
        <time>2022-03-19T09:48:13Z</time>
      </trkpt>
      <trkpt lat="42.602258" lon="0.964941">
        <ele>2500.736</ele>
        <time>2022-03-19T09:48:23Z</time>
      </trkpt>
      <trkpt lat="42.602293" lon="0.964899">
        <ele>2501.326</ele>
        <time>2022-03-19T09:48:30Z</time>
      </trkpt>
      <trkpt lat="42.602283" lon="0.964837">
        <ele>2503.047</ele>
        <time>2022-03-19T09:48:38Z</time>
      </trkpt>
      <trkpt lat="42.602283" lon="0.964772">
        <ele>2504.011</ele>
        <time>2022-03-19T09:48:44Z</time>
      </trkpt>
      <trkpt lat="42.602300" lon="0.964712">
        <ele>2505.108</ele>
        <time>2022-03-19T09:48:51Z</time>
      </trkpt>
      <trkpt lat="42.602312" lon="0.964649">
        <ele>2506.531</ele>
        <time>2022-03-19T09:49:00Z</time>
      </trkpt>
      <trkpt lat="42.602340" lon="0.964597">
        <ele>2507.079</ele>
        <time>2022-03-19T09:49:06Z</time>
      </trkpt>
      <trkpt lat="42.602378" lon="0.964554">
        <ele>2506.441</ele>
        <time>2022-03-19T09:49:23Z</time>
      </trkpt>
      <trkpt lat="42.602373" lon="0.964489">
        <ele>2507.160</ele>
        <time>2022-03-19T09:49:30Z</time>
      </trkpt>
      <trkpt lat="42.602398" lon="0.964427">
        <ele>2508.168</ele>
        <time>2022-03-19T09:49:37Z</time>
      </trkpt>
      <trkpt lat="42.602428" lon="0.964375">
        <ele>2508.820</ele>
        <time>2022-03-19T09:49:45Z</time>
      </trkpt>
      <trkpt lat="42.602441" lon="0.964312">
        <ele>2509.397</ele>
        <time>2022-03-19T09:49:52Z</time>
      </trkpt>
      <trkpt lat="42.602433" lon="0.964250">
        <ele>2510.581</ele>
        <time>2022-03-19T09:50:04Z</time>
      </trkpt>
      <trkpt lat="42.602460" lon="0.964193">
        <ele>2511.041</ele>
        <time>2022-03-19T09:50:11Z</time>
      </trkpt>
      <trkpt lat="42.602492" lon="0.964148">
        <ele>2512.081</ele>
        <time>2022-03-19T09:50:17Z</time>
      </trkpt>
      <trkpt lat="42.602507" lon="0.964090">
        <ele>2513.809</ele>
        <time>2022-03-19T09:50:26Z</time>
      </trkpt>
      <trkpt lat="42.602509" lon="0.964025">
        <ele>2515.108</ele>
        <time>2022-03-19T09:50:51Z</time>
      </trkpt>
      <trkpt lat="42.602514" lon="0.963960">
        <ele>2515.983</ele>
        <time>2022-03-19T09:50:59Z</time>
      </trkpt>
      <trkpt lat="42.602487" lon="0.963902">
        <ele>2517.581</ele>
        <time>2022-03-19T09:51:08Z</time>
      </trkpt>
      <trkpt lat="42.602477" lon="0.963840">
        <ele>2520.023</ele>
        <time>2022-03-19T09:51:20Z</time>
      </trkpt>
      <trkpt lat="42.602470" lon="0.963777">
        <ele>2522.172</ele>
        <time>2022-03-19T09:51:29Z</time>
      </trkpt>
      <trkpt lat="42.602485" lon="0.963700">
        <ele>2523.650</ele>
        <time>2022-03-19T09:51:41Z</time>
      </trkpt>
      <trkpt lat="42.602488" lon="0.963638">
        <ele>2524.892</ele>
        <time>2022-03-19T09:51:51Z</time>
      </trkpt>
      <trkpt lat="42.602473" lon="0.963565">
        <ele>2527.639</ele>
        <time>2022-03-19T09:52:10Z</time>
      </trkpt>
      <trkpt lat="42.602465" lon="0.963430">
        <ele>2529.673</ele>
        <time>2022-03-19T09:52:57Z</time>
      </trkpt>
      <trkpt lat="42.602435" lon="0.963382">
        <ele>2530.749</ele>
        <time>2022-03-19T09:53:09Z</time>
      </trkpt>
      <trkpt lat="42.602430" lon="0.963304">
        <ele>2531.702</ele>
        <time>2022-03-19T09:53:36Z</time>
      </trkpt>
      <trkpt lat="42.602418" lon="0.963236">
        <ele>2533.022</ele>
        <time>2022-03-19T09:53:44Z</time>
      </trkpt>
      <trkpt lat="42.602396" lon="0.963181">
        <ele>2534.408</ele>
        <time>2022-03-19T09:53:52Z</time>
      </trkpt>
      <trkpt lat="42.602364" lon="0.963134">
        <ele>2536.013</ele>
        <time>2022-03-19T09:54:01Z</time>
      </trkpt>
      <trkpt lat="42.602354" lon="0.963074">
        <ele>2537.131</ele>
        <time>2022-03-19T09:54:08Z</time>
      </trkpt>
      <trkpt lat="42.602304" lon="0.963042">
        <ele>2538.213</ele>
        <time>2022-03-19T09:54:14Z</time>
      </trkpt>
      <trkpt lat="42.602259" lon="0.963022">
        <ele>2539.342</ele>
        <time>2022-03-19T09:54:18Z</time>
      </trkpt>
      <trkpt lat="42.602264" lon="0.962942">
        <ele>2540.270</ele>
        <time>2022-03-19T09:59:34Z</time>
      </trkpt>
      <trkpt lat="42.602262" lon="0.962877">
        <ele>2540.552</ele>
        <time>2022-03-19T09:59:47Z</time>
      </trkpt>
      <trkpt lat="42.602269" lon="0.962815">
        <ele>2541.329</ele>
        <time>2022-03-19T09:59:57Z</time>
      </trkpt>
      <trkpt lat="42.602281" lon="0.962745">
        <ele>2542.163</ele>
        <time>2022-03-19T10:00:05Z</time>
      </trkpt>
      <trkpt lat="42.602291" lon="0.962677">
        <ele>2543.776</ele>
        <time>2022-03-19T10:00:11Z</time>
      </trkpt>
      <trkpt lat="42.602316" lon="0.962614">
        <ele>2544.690</ele>
        <time>2022-03-19T10:00:17Z</time>
      </trkpt>
      <trkpt lat="42.602336" lon="0.962551">
        <ele>2546.019</ele>
        <time>2022-03-19T10:00:24Z</time>
      </trkpt>
      <trkpt lat="42.602359" lon="0.962496">
        <ele>2547.108</ele>
        <time>2022-03-19T10:00:30Z</time>
      </trkpt>
      <trkpt lat="42.602386" lon="0.962446">
        <ele>2548.286</ele>
        <time>2022-03-19T10:00:36Z</time>
      </trkpt>
      <trkpt lat="42.602411" lon="0.962383">
        <ele>2550.324</ele>
        <time>2022-03-19T10:00:44Z</time>
      </trkpt>
      <trkpt lat="42.602429" lon="0.962318">
        <ele>2552.096</ele>
        <time>2022-03-19T10:00:50Z</time>
      </trkpt>
      <trkpt lat="42.602434" lon="0.962248">
        <ele>2554.345</ele>
        <time>2022-03-19T10:00:58Z</time>
      </trkpt>
      <trkpt lat="42.602456" lon="0.962193">
        <ele>2555.473</ele>
        <time>2022-03-19T10:01:03Z</time>
      </trkpt>
      <trkpt lat="42.602473" lon="0.962135">
        <ele>2556.375</ele>
        <time>2022-03-19T10:01:09Z</time>
      </trkpt>
      <trkpt lat="42.602496" lon="0.962068">
        <ele>2556.922</ele>
        <time>2022-03-19T10:01:14Z</time>
      </trkpt>
      <trkpt lat="42.602516" lon="0.962013">
        <ele>2556.986</ele>
        <time>2022-03-19T10:01:19Z</time>
      </trkpt>
      <trkpt lat="42.602516" lon="0.961943">
        <ele>2556.534</ele>
        <time>2022-03-19T10:01:26Z</time>
      </trkpt>
      <trkpt lat="42.602516" lon="0.961878">
        <ele>2557.155</ele>
        <time>2022-03-19T10:01:32Z</time>
      </trkpt>
      <trkpt lat="42.602504" lon="0.961813">
        <ele>2558.110</ele>
        <time>2022-03-19T10:01:40Z</time>
      </trkpt>
      <trkpt lat="42.602506" lon="0.961746">
        <ele>2558.508</ele>
        <time>2022-03-19T10:01:46Z</time>
      </trkpt>
      <trkpt lat="42.602511" lon="0.961679">
        <ele>2559.292</ele>
        <time>2022-03-19T10:01:54Z</time>
      </trkpt>
      <trkpt lat="42.602539" lon="0.961622">
        <ele>2559.670</ele>
        <time>2022-03-19T10:02:00Z</time>
      </trkpt>
      <trkpt lat="42.602569" lon="0.961575">
        <ele>2559.272</ele>
        <time>2022-03-19T10:02:05Z</time>
      </trkpt>
      <trkpt lat="42.602592" lon="0.961512">
        <ele>2559.351</ele>
        <time>2022-03-19T10:02:12Z</time>
      </trkpt>
      <trkpt lat="42.602622" lon="0.961455">
        <ele>2559.379</ele>
        <time>2022-03-19T10:02:17Z</time>
      </trkpt>
      <trkpt lat="42.602645" lon="0.961398">
        <ele>2559.541</ele>
        <time>2022-03-19T10:02:22Z</time>
      </trkpt>
      <trkpt lat="42.602663" lon="0.961338">
        <ele>2559.858</ele>
        <time>2022-03-19T10:02:28Z</time>
      </trkpt>
      <trkpt lat="42.602678" lon="0.961275">
        <ele>2560.932</ele>
        <time>2022-03-19T10:02:34Z</time>
      </trkpt>
      <trkpt lat="42.602686" lon="0.961210">
        <ele>2562.538</ele>
        <time>2022-03-19T10:02:41Z</time>
      </trkpt>
      <trkpt lat="42.602696" lon="0.961140">
        <ele>2563.970</ele>
        <time>2022-03-19T10:02:49Z</time>
      </trkpt>
      <trkpt lat="42.602691" lon="0.961073">
        <ele>2565.717</ele>
        <time>2022-03-19T10:02:57Z</time>
      </trkpt>
      <trkpt lat="42.602684" lon="0.961006">
        <ele>2566.808</ele>
        <time>2022-03-19T10:03:04Z</time>
      </trkpt>
      <trkpt lat="42.602689" lon="0.960939">
        <ele>2568.052</ele>
        <time>2022-03-19T10:03:12Z</time>
      </trkpt>
      <trkpt lat="42.602682" lon="0.960874">
        <ele>2568.810</ele>
        <time>2022-03-19T10:03:20Z</time>
      </trkpt>
      <trkpt lat="42.602665" lon="0.960816">
        <ele>2569.872</ele>
        <time>2022-03-19T10:03:29Z</time>
      </trkpt>
      <trkpt lat="42.602633" lon="0.960764">
        <ele>2571.151</ele>
        <time>2022-03-19T10:03:38Z</time>
      </trkpt>
      <trkpt lat="42.602628" lon="0.960702">
        <ele>2572.629</ele>
        <time>2022-03-19T10:03:46Z</time>
      </trkpt>
      <trkpt lat="42.602640" lon="0.960625">
        <ele>2574.691</ele>
        <time>2022-03-19T10:03:58Z</time>
      </trkpt>
      <trkpt lat="42.602648" lon="0.960560">
        <ele>2575.698</ele>
        <time>2022-03-19T10:04:05Z</time>
      </trkpt>
      <trkpt lat="42.602641" lon="0.960497">
        <ele>2576.282</ele>
        <time>2022-03-19T10:04:14Z</time>
      </trkpt>
      <trkpt lat="42.602639" lon="0.960429">
        <ele>2576.822</ele>
        <time>2022-03-19T10:04:22Z</time>
      </trkpt>
      <trkpt lat="42.602646" lon="0.960367">
        <ele>2577.562</ele>
        <time>2022-03-19T10:04:29Z</time>
      </trkpt>
      <trkpt lat="42.602664" lon="0.960302">
        <ele>2578.008</ele>
        <time>2022-03-19T10:04:36Z</time>
      </trkpt>
      <trkpt lat="42.602679" lon="0.960232">
        <ele>2578.608</ele>
        <time>2022-03-19T10:04:44Z</time>
      </trkpt>
      <trkpt lat="42.602699" lon="0.960167">
        <ele>2578.571</ele>
        <time>2022-03-19T10:04:53Z</time>
      </trkpt>
      <trkpt lat="42.602714" lon="0.960107">
        <ele>2578.639</ele>
        <time>2022-03-19T10:05:01Z</time>
      </trkpt>
      <trkpt lat="42.602727" lon="0.960040">
        <ele>2579.491</ele>
        <time>2022-03-19T10:05:10Z</time>
      </trkpt>
      <trkpt lat="42.602735" lon="0.959978">
        <ele>2580.270</ele>
        <time>2022-03-19T10:05:16Z</time>
      </trkpt>
      <trkpt lat="42.602745" lon="0.959915">
        <ele>2580.748</ele>
        <time>2022-03-19T10:05:23Z</time>
      </trkpt>
      <trkpt lat="42.602758" lon="0.959852">
        <ele>2580.850</ele>
        <time>2022-03-19T10:05:30Z</time>
      </trkpt>
      <trkpt lat="42.602765" lon="0.959789">
        <ele>2580.957</ele>
        <time>2022-03-19T10:05:37Z</time>
      </trkpt>
      <trkpt lat="42.602792" lon="0.959734">
        <ele>2580.621</ele>
        <time>2022-03-19T10:05:47Z</time>
      </trkpt>
      <trkpt lat="42.602827" lon="0.959694">
        <ele>2580.437</ele>
        <time>2022-03-19T10:05:53Z</time>
      </trkpt>
      <trkpt lat="42.602845" lon="0.959632">
        <ele>2580.549</ele>
        <time>2022-03-19T10:05:59Z</time>
      </trkpt>
      <trkpt lat="42.602840" lon="0.959564">
        <ele>2581.413</ele>
        <time>2022-03-19T10:06:07Z</time>
      </trkpt>
      <trkpt lat="42.602842" lon="0.959502">
        <ele>2581.808</ele>
        <time>2022-03-19T10:06:14Z</time>
      </trkpt>
      <trkpt lat="42.602834" lon="0.959437">
        <ele>2582.512</ele>
        <time>2022-03-19T10:06:21Z</time>
      </trkpt>
      <trkpt lat="42.602817" lon="0.959372">
        <ele>2583.430</ele>
        <time>2022-03-19T10:06:29Z</time>
      </trkpt>
      <trkpt lat="42.602789" lon="0.959324">
        <ele>2583.592</ele>
        <time>2022-03-19T10:06:40Z</time>
      </trkpt>
      <trkpt lat="42.602772" lon="0.959266">
        <ele>2583.851</ele>
        <time>2022-03-19T10:07:08Z</time>
      </trkpt>
      <trkpt lat="42.602760" lon="0.959199">
        <ele>2585.339</ele>
        <time>2022-03-19T10:07:15Z</time>
      </trkpt>
      <trkpt lat="42.602773" lon="0.959132">
        <ele>2586.871</ele>
        <time>2022-03-19T10:07:22Z</time>
      </trkpt>
      <trkpt lat="42.602780" lon="0.959070">
        <ele>2588.148</ele>
        <time>2022-03-19T10:07:31Z</time>
      </trkpt>
      <trkpt lat="42.602798" lon="0.959005">
        <ele>2588.062</ele>
        <time>2022-03-19T10:07:42Z</time>
      </trkpt>
      <trkpt lat="42.602820" lon="0.958938">
        <ele>2588.184</ele>
        <time>2022-03-19T10:07:48Z</time>
      </trkpt>
      <trkpt lat="42.602840" lon="0.958881">
        <ele>2588.407</ele>
        <time>2022-03-19T10:07:56Z</time>
      </trkpt>
      <trkpt lat="42.602850" lon="0.958816">
        <ele>2589.017</ele>
        <time>2022-03-19T10:08:04Z</time>
      </trkpt>
      <trkpt lat="42.602833" lon="0.958753">
        <ele>2589.108</ele>
        <time>2022-03-19T10:08:58Z</time>
      </trkpt>
      <trkpt lat="42.602790" lon="0.958731">
        <ele>2589.657</ele>
        <time>2022-03-19T10:09:09Z</time>
      </trkpt>
      <trkpt lat="42.602745" lon="0.958693">
        <ele>2589.875</ele>
        <time>2022-03-19T10:09:51Z</time>
      </trkpt>
      <trkpt lat="42.602698" lon="0.958683">
        <ele>2590.217</ele>
        <time>2022-03-19T10:09:59Z</time>
      </trkpt>
      <trkpt lat="42.602650" lon="0.958673">
        <ele>2590.116</ele>
        <time>2022-03-19T10:10:13Z</time>
      </trkpt>
      <trkpt lat="42.602598" lon="0.958681">
        <ele>2589.994</ele>
        <time>2022-03-19T10:10:22Z</time>
      </trkpt>
      <trkpt lat="42.602551" lon="0.958693">
        <ele>2590.046</ele>
        <time>2022-03-19T10:10:31Z</time>
      </trkpt>
      <trkpt lat="42.602506" lon="0.958713">
        <ele>2590.623</ele>
        <time>2022-03-19T10:10:40Z</time>
      </trkpt>
      <trkpt lat="42.602461" lon="0.958718">
        <ele>2591.527</ele>
        <time>2022-03-19T10:10:48Z</time>
      </trkpt>
      <trkpt lat="42.602413" lon="0.958741">
        <ele>2592.479</ele>
        <time>2022-03-19T10:10:56Z</time>
      </trkpt>
      <trkpt lat="42.602365" lon="0.958744">
        <ele>2593.405</ele>
        <time>2022-03-19T10:11:05Z</time>
      </trkpt>
      <trkpt lat="42.602322" lon="0.958727">
        <ele>2594.125</ele>
        <time>2022-03-19T10:11:15Z</time>
      </trkpt>
      <trkpt lat="42.602274" lon="0.958727">
        <ele>2594.008</ele>
        <time>2022-03-19T10:11:24Z</time>
      </trkpt>
      <trkpt lat="42.602226" lon="0.958720">
        <ele>2593.586</ele>
        <time>2022-03-19T10:11:31Z</time>
      </trkpt>
      <trkpt lat="42.602183" lon="0.958738">
        <ele>2593.354</ele>
        <time>2022-03-19T10:11:37Z</time>
      </trkpt>
      <trkpt lat="42.602136" lon="0.958748">
        <ele>2593.786</ele>
        <time>2022-03-19T10:11:45Z</time>
      </trkpt>
      <trkpt lat="42.602133" lon="0.958681">
        <ele>2596.895</ele>
        <time>2022-03-19T10:12:01Z</time>
      </trkpt>
      <trkpt lat="42.602168" lon="0.958636">
        <ele>2600.353</ele>
        <time>2022-03-19T10:12:12Z</time>
      </trkpt>
      <trkpt lat="42.602140" lon="0.958588">
        <ele>2610.565</ele>
        <time>2022-03-19T10:12:41Z</time>
      </trkpt>
      <trkpt lat="42.602095" lon="0.958625">
        <ele>2611.562</ele>
        <time>2022-03-19T10:12:50Z</time>
      </trkpt>
      <trkpt lat="42.602048" lon="0.958653">
        <ele>2612.016</ele>
        <time>2022-03-19T10:13:00Z</time>
      </trkpt>
      <trkpt lat="42.602003" lon="0.958665">
        <ele>2612.757</ele>
        <time>2022-03-19T10:13:08Z</time>
      </trkpt>
      <trkpt lat="42.601961" lon="0.958700">
        <ele>2614.100</ele>
        <time>2022-03-19T10:13:16Z</time>
      </trkpt>
      <trkpt lat="42.601921" lon="0.958738">
        <ele>2615.720</ele>
        <time>2022-03-19T10:13:22Z</time>
      </trkpt>
      <trkpt lat="42.601893" lon="0.958786">
        <ele>2616.508</ele>
        <time>2022-03-19T10:13:30Z</time>
      </trkpt>
      <trkpt lat="42.601855" lon="0.958824">
        <ele>2617.614</ele>
        <time>2022-03-19T10:13:38Z</time>
      </trkpt>
      <trkpt lat="42.601862" lon="0.958759">
        <ele>2620.382</ele>
        <time>2022-03-19T10:13:55Z</time>
      </trkpt>
      <trkpt lat="42.601890" lon="0.958709">
        <ele>2623.064</ele>
        <time>2022-03-19T10:14:12Z</time>
      </trkpt>
      <trkpt lat="42.601903" lon="0.958642">
        <ele>2624.143</ele>
        <time>2022-03-19T10:14:20Z</time>
      </trkpt>
      <trkpt lat="42.601898" lon="0.958580">
        <ele>2624.871</ele>
        <time>2022-03-19T10:14:26Z</time>
      </trkpt>
      <trkpt lat="42.601853" lon="0.958578">
        <ele>2625.083</ele>
        <time>2022-03-19T10:14:32Z</time>
      </trkpt>
      <trkpt lat="42.601805" lon="0.958596">
        <ele>2626.060</ele>
        <time>2022-03-19T10:14:41Z</time>
      </trkpt>
      <trkpt lat="42.601757" lon="0.958609">
        <ele>2627.514</ele>
        <time>2022-03-19T10:14:52Z</time>
      </trkpt>
      <trkpt lat="42.601710" lon="0.958624">
        <ele>2629.232</ele>
        <time>2022-03-19T10:15:00Z</time>
      </trkpt>
      <trkpt lat="42.601658" lon="0.958619">
        <ele>2630.892</ele>
        <time>2022-03-19T10:15:07Z</time>
      </trkpt>
      <trkpt lat="42.601613" lon="0.958617">
        <ele>2631.511</ele>
        <time>2022-03-19T10:15:13Z</time>
      </trkpt>
      <trkpt lat="42.601568" lon="0.958625">
        <ele>2632.508</ele>
        <time>2022-03-19T10:15:20Z</time>
      </trkpt>
      <trkpt lat="42.601520" lon="0.958632">
        <ele>2633.462</ele>
        <time>2022-03-19T10:15:28Z</time>
      </trkpt>
      <trkpt lat="42.601473" lon="0.958629">
        <ele>2634.450</ele>
        <time>2022-03-19T10:15:36Z</time>
      </trkpt>
      <trkpt lat="42.601425" lon="0.958627">
        <ele>2636.242</ele>
        <time>2022-03-19T10:15:45Z</time>
      </trkpt>
      <trkpt lat="42.601378" lon="0.958649">
        <ele>2637.691</ele>
        <time>2022-03-19T10:15:54Z</time>
      </trkpt>
      <trkpt lat="42.601401" lon="0.958592">
        <ele>2641.089</ele>
        <time>2022-03-19T10:16:14Z</time>
      </trkpt>
      <trkpt lat="42.601433" lon="0.958547">
        <ele>2641.931</ele>
        <time>2022-03-19T10:16:22Z</time>
      </trkpt>
      <trkpt lat="42.601465" lon="0.958502">
        <ele>2642.758</ele>
        <time>2022-03-19T10:16:31Z</time>
      </trkpt>
      <trkpt lat="42.601502" lon="0.958462">
        <ele>2643.572</ele>
        <time>2022-03-19T10:16:40Z</time>
      </trkpt>
      <trkpt lat="42.601545" lon="0.958424">
        <ele>2644.536</ele>
        <time>2022-03-19T10:16:45Z</time>
      </trkpt>
      <trkpt lat="42.601578" lon="0.958377">
        <ele>2645.417</ele>
        <time>2022-03-19T10:16:52Z</time>
      </trkpt>
      <trkpt lat="42.601605" lon="0.958327">
        <ele>2645.918</ele>
        <time>2022-03-19T10:16:59Z</time>
      </trkpt>
      <trkpt lat="42.601625" lon="0.958265">
        <ele>2646.508</ele>
        <time>2022-03-19T10:17:07Z</time>
      </trkpt>
      <trkpt lat="42.601643" lon="0.958205">
        <ele>2646.492</ele>
        <time>2022-03-19T10:17:16Z</time>
      </trkpt>
      <trkpt lat="42.601688" lon="0.958160">
        <ele>2646.580</ele>
        <time>2022-03-19T10:17:23Z</time>
      </trkpt>
      <trkpt lat="42.601731" lon="0.958128">
        <ele>2645.972</ele>
        <time>2022-03-19T10:17:43Z</time>
      </trkpt>
      <trkpt lat="42.601766" lon="0.958088">
        <ele>2647.971</ele>
        <time>2022-03-19T10:17:51Z</time>
      </trkpt>
      <trkpt lat="42.601721" lon="0.958060">
        <ele>2647.179</ele>
        <time>2022-03-19T10:18:10Z</time>
      </trkpt>
      <trkpt lat="42.601671" lon="0.958063">
        <ele>2646.951</ele>
        <time>2022-03-19T10:18:18Z</time>
      </trkpt>
      <trkpt lat="42.601621" lon="0.958066">
        <ele>2647.418</ele>
        <time>2022-03-19T10:18:26Z</time>
      </trkpt>
      <trkpt lat="42.601561" lon="0.958063">
        <ele>2648.742</ele>
        <time>2022-03-19T10:18:40Z</time>
      </trkpt>
      <trkpt lat="42.601511" lon="0.958083">
        <ele>2649.842</ele>
        <time>2022-03-19T10:18:48Z</time>
      </trkpt>
      <trkpt lat="42.601464" lon="0.958090">
        <ele>2650.822</ele>
        <time>2022-03-19T10:18:53Z</time>
      </trkpt>
      <trkpt lat="42.601414" lon="0.958108">
        <ele>2651.414</ele>
        <time>2022-03-19T10:18:58Z</time>
      </trkpt>
      <trkpt lat="42.601371" lon="0.958131">
        <ele>2653.708</ele>
        <time>2022-03-19T10:19:08Z</time>
      </trkpt>
      <trkpt lat="42.601333" lon="0.958173">
        <ele>2655.413</ele>
        <time>2022-03-19T10:19:15Z</time>
      </trkpt>
      <trkpt lat="42.601283" lon="0.958188">
        <ele>2657.341</ele>
        <time>2022-03-19T10:19:23Z</time>
      </trkpt>
      <trkpt lat="42.601240" lon="0.958205">
        <ele>2659.733</ele>
        <time>2022-03-19T10:19:32Z</time>
      </trkpt>
      <trkpt lat="42.601193" lon="0.958190">
        <ele>2661.552</ele>
        <time>2022-03-19T10:19:41Z</time>
      </trkpt>
      <trkpt lat="42.601148" lon="0.958188">
        <ele>2662.440</ele>
        <time>2022-03-19T10:19:48Z</time>
      </trkpt>
      <trkpt lat="42.601105" lon="0.958208">
        <ele>2664.082</ele>
        <time>2022-03-19T10:19:56Z</time>
      </trkpt>
      <trkpt lat="42.601062" lon="0.958188">
        <ele>2664.429</ele>
        <time>2022-03-19T10:20:03Z</time>
      </trkpt>
      <trkpt lat="42.601020" lon="0.958226">
        <ele>2666.663</ele>
        <time>2022-03-19T10:20:13Z</time>
      </trkpt>
      <trkpt lat="42.600977" lon="0.958201">
        <ele>2667.675</ele>
        <time>2022-03-19T10:20:22Z</time>
      </trkpt>
      <trkpt lat="42.600932" lon="0.958169">
        <ele>2667.628</ele>
        <time>2022-03-19T10:20:29Z</time>
      </trkpt>
      <trkpt lat="42.600890" lon="0.958134">
        <ele>2667.420</ele>
        <time>2022-03-19T10:20:36Z</time>
      </trkpt>
      <trkpt lat="42.600843" lon="0.958116">
        <ele>2666.808</ele>
        <time>2022-03-19T10:20:43Z</time>
      </trkpt>
      <trkpt lat="42.600800" lon="0.958086">
        <ele>2666.326</ele>
        <time>2022-03-19T10:20:50Z</time>
      </trkpt>
      <trkpt lat="42.600752" lon="0.958079">
        <ele>2665.624</ele>
        <time>2022-03-19T10:22:05Z</time>
      </trkpt>
      <trkpt lat="42.600765" lon="0.958017">
        <ele>2666.796</ele>
        <time>2022-03-19T10:22:50Z</time>
      </trkpt>
      <trkpt lat="42.600802" lon="0.957975">
        <ele>2667.615</ele>
        <time>2022-03-19T10:22:56Z</time>
      </trkpt>
      <trkpt lat="42.600842" lon="0.957935">
        <ele>2668.633</ele>
        <time>2022-03-19T10:23:02Z</time>
      </trkpt>
      <trkpt lat="42.600867" lon="0.957882">
        <ele>2669.095</ele>
        <time>2022-03-19T10:23:20Z</time>
      </trkpt>
      <trkpt lat="42.600905" lon="0.957839">
        <ele>2668.722</ele>
        <time>2022-03-19T10:23:26Z</time>
      </trkpt>
      <trkpt lat="42.600952" lon="0.957809">
        <ele>2668.926</ele>
        <time>2022-03-19T10:23:32Z</time>
      </trkpt>
      <trkpt lat="42.600987" lon="0.957766">
        <ele>2669.984</ele>
        <time>2022-03-19T10:23:40Z</time>
      </trkpt>
      <trkpt lat="42.601030" lon="0.957736">
        <ele>2669.907</ele>
        <time>2022-03-19T10:23:46Z</time>
      </trkpt>
      <trkpt lat="42.600985" lon="0.957711">
        <ele>2672.817</ele>
        <time>2022-03-19T10:24:13Z</time>
      </trkpt>
      <trkpt lat="42.600937" lon="0.957694">
        <ele>2673.808</ele>
        <time>2022-03-19T10:24:24Z</time>
      </trkpt>
      <trkpt lat="42.600914" lon="0.957639">
        <ele>2675.177</ele>
        <time>2022-03-19T10:24:32Z</time>
      </trkpt>
      <trkpt lat="42.600877" lon="0.957601">
        <ele>2676.785</ele>
        <time>2022-03-19T10:24:42Z</time>
      </trkpt>
      <trkpt lat="42.600835" lon="0.957569">
        <ele>2677.727</ele>
        <time>2022-03-19T10:24:48Z</time>
      </trkpt>
      <trkpt lat="42.600797" lon="0.957536">
        <ele>2678.736</ele>
        <time>2022-03-19T10:24:55Z</time>
      </trkpt>
      <trkpt lat="42.600805" lon="0.957474">
        <ele>2680.044</ele>
        <time>2022-03-19T10:25:04Z</time>
      </trkpt>
      <trkpt lat="42.600828" lon="0.957419">
        <ele>2681.516</ele>
        <time>2022-03-19T10:25:12Z</time>
      </trkpt>
      <trkpt lat="42.600838" lon="0.957352">
        <ele>2682.833</ele>
        <time>2022-03-19T10:25:20Z</time>
      </trkpt>
      <trkpt lat="42.600798" lon="0.957295">
        <ele>2683.777</ele>
        <time>2022-03-19T10:25:36Z</time>
      </trkpt>
      <trkpt lat="42.600765" lon="0.957240">
        <ele>2684.255</ele>
        <time>2022-03-19T10:25:45Z</time>
      </trkpt>
      <trkpt lat="42.600760" lon="0.957178">
        <ele>2685.107</ele>
        <time>2022-03-19T10:25:54Z</time>
      </trkpt>
      <trkpt lat="42.600757" lon="0.957115">
        <ele>2686.617</ele>
        <time>2022-03-19T10:26:01Z</time>
      </trkpt>
      <trkpt lat="42.600744" lon="0.957048">
        <ele>2687.808</ele>
        <time>2022-03-19T10:26:09Z</time>
      </trkpt>
      <trkpt lat="42.600722" lon="0.956993">
        <ele>2688.934</ele>
        <time>2022-03-19T10:26:37Z</time>
      </trkpt>
      <trkpt lat="42.600694" lon="0.956940">
        <ele>2690.242</ele>
        <time>2022-03-19T10:26:46Z</time>
      </trkpt>
      <trkpt lat="42.600667" lon="0.956882">
        <ele>2691.844</ele>
        <time>2022-03-19T10:26:55Z</time>
      </trkpt>
      <trkpt lat="42.600644" lon="0.956822">
        <ele>2693.183</ele>
        <time>2022-03-19T10:27:03Z</time>
      </trkpt>
      <trkpt lat="42.600621" lon="0.956760">
        <ele>2693.781</ele>
        <time>2022-03-19T10:27:09Z</time>
      </trkpt>
      <trkpt lat="42.600593" lon="0.956705">
        <ele>2694.713</ele>
        <time>2022-03-19T10:27:16Z</time>
      </trkpt>
      <trkpt lat="42.600558" lon="0.956650">
        <ele>2695.840</ele>
        <time>2022-03-19T10:27:23Z</time>
      </trkpt>
      <trkpt lat="42.600543" lon="0.956585">
        <ele>2697.174</ele>
        <time>2022-03-19T10:27:32Z</time>
      </trkpt>
      <trkpt lat="42.600525" lon="0.956527">
        <ele>2698.131</ele>
        <time>2022-03-19T10:27:39Z</time>
      </trkpt>
      <trkpt lat="42.600498" lon="0.956470">
        <ele>2699.861</ele>
        <time>2022-03-19T10:27:47Z</time>
      </trkpt>
      <trkpt lat="42.600473" lon="0.956412">
        <ele>2702.207</ele>
        <time>2022-03-19T10:27:57Z</time>
      </trkpt>
      <trkpt lat="42.600445" lon="0.956357">
        <ele>2703.408</ele>
        <time>2022-03-19T10:28:04Z</time>
      </trkpt>
      <trkpt lat="42.600415" lon="0.956300">
        <ele>2704.052</ele>
        <time>2022-03-19T10:28:10Z</time>
      </trkpt>
      <trkpt lat="42.600380" lon="0.956255">
        <ele>2705.260</ele>
        <time>2022-03-19T10:28:16Z</time>
      </trkpt>
      <trkpt lat="42.600367" lon="0.956193">
        <ele>2706.142</ele>
        <time>2022-03-19T10:28:22Z</time>
      </trkpt>
      <trkpt lat="42.600355" lon="0.956126">
        <ele>2706.981</ele>
        <time>2022-03-19T10:28:30Z</time>
      </trkpt>
      <trkpt lat="42.600310" lon="0.956099">
        <ele>2707.669</ele>
        <time>2022-03-19T10:28:38Z</time>
      </trkpt>
      <trkpt lat="42.600275" lon="0.956051">
        <ele>2708.681</ele>
        <time>2022-03-19T10:28:46Z</time>
      </trkpt>
      <trkpt lat="42.600265" lon="0.955989">
        <ele>2709.488</ele>
        <time>2022-03-19T10:28:55Z</time>
      </trkpt>
      <trkpt lat="42.600245" lon="0.955927">
        <ele>2709.972</ele>
        <time>2022-03-19T10:29:03Z</time>
      </trkpt>
      <trkpt lat="42.600210" lon="0.955887">
        <ele>2711.812</ele>
        <time>2022-03-19T10:29:12Z</time>
      </trkpt>
      <trkpt lat="42.600208" lon="0.955822">
        <ele>2712.932</ele>
        <time>2022-03-19T10:29:21Z</time>
      </trkpt>
      <trkpt lat="42.600186" lon="0.955767">
        <ele>2713.405</ele>
        <time>2022-03-19T10:29:28Z</time>
      </trkpt>
      <trkpt lat="42.600173" lon="0.955704">
        <ele>2713.808</ele>
        <time>2022-03-19T10:29:35Z</time>
      </trkpt>
      <trkpt lat="42.600161" lon="0.955641">
        <ele>2714.460</ele>
        <time>2022-03-19T10:29:45Z</time>
      </trkpt>
      <trkpt lat="42.600149" lon="0.955579">
        <ele>2714.758</ele>
        <time>2022-03-19T10:29:52Z</time>
      </trkpt>
      <trkpt lat="42.600154" lon="0.955517">
        <ele>2714.750</ele>
        <time>2022-03-19T10:30:00Z</time>
      </trkpt>
      <trkpt lat="42.600127" lon="0.955462">
        <ele>2713.899</ele>
        <time>2022-03-19T10:30:11Z</time>
      </trkpt>
      <trkpt lat="42.600107" lon="0.955397">
        <ele>2712.757</ele>
        <time>2022-03-19T10:30:21Z</time>
      </trkpt>
      <trkpt lat="42.600090" lon="0.955337">
        <ele>2713.259</ele>
        <time>2022-03-19T10:30:32Z</time>
      </trkpt>
      <trkpt lat="42.600048" lon="0.955309">
        <ele>2714.596</ele>
        <time>2022-03-19T10:30:42Z</time>
      </trkpt>
      <trkpt lat="42.600001" lon="0.955267">
        <ele>2715.850</ele>
        <time>2022-03-19T10:30:48Z</time>
      </trkpt>
      <trkpt lat="42.599954" lon="0.955260">
        <ele>2717.398</ele>
        <time>2022-03-19T10:30:55Z</time>
      </trkpt>
      <trkpt lat="42.599954" lon="0.955187">
        <ele>2718.415</ele>
        <time>2022-03-19T10:31:35Z</time>
      </trkpt>
      <trkpt lat="42.599946" lon="0.955122">
        <ele>2719.026</ele>
        <time>2022-03-19T10:31:41Z</time>
      </trkpt>
      <trkpt lat="42.599921" lon="0.955065">
        <ele>2719.808</ele>
        <time>2022-03-19T10:31:48Z</time>
      </trkpt>
      <trkpt lat="42.599893" lon="0.955008">
        <ele>2721.088</ele>
        <time>2022-03-19T10:31:56Z</time>
      </trkpt>
      <trkpt lat="42.599860" lon="0.954958">
        <ele>2722.086</ele>
        <time>2022-03-19T10:32:02Z</time>
      </trkpt>
      <trkpt lat="42.599837" lon="0.954896">
        <ele>2723.678</ele>
        <time>2022-03-19T10:32:12Z</time>
      </trkpt>
      <trkpt lat="42.599830" lon="0.954833">
        <ele>2725.187</ele>
        <time>2022-03-19T10:32:21Z</time>
      </trkpt>
      <trkpt lat="42.599805" lon="0.954768">
        <ele>2726.335</ele>
        <time>2022-03-19T10:32:30Z</time>
      </trkpt>
      <trkpt lat="42.599777" lon="0.954711">
        <ele>2727.647</ele>
        <time>2022-03-19T10:32:38Z</time>
      </trkpt>
      <trkpt lat="42.599754" lon="0.954654">
        <ele>2729.314</ele>
        <time>2022-03-19T10:32:47Z</time>
      </trkpt>
      <trkpt lat="42.599767" lon="0.954586">
        <ele>2730.738</ele>
        <time>2022-03-19T10:33:06Z</time>
      </trkpt>
      <trkpt lat="42.599805" lon="0.954544">
        <ele>2727.679</ele>
        <time>2022-03-19T10:49:13Z</time>
      </trkpt>
      <trkpt lat="42.599803" lon="0.954471">
        <ele>2728.105</ele>
        <time>2022-03-19T10:50:17Z</time>
      </trkpt>
      <trkpt lat="42.599793" lon="0.954406">
        <ele>2729.225</ele>
        <time>2022-03-19T10:50:32Z</time>
      </trkpt>
      <trkpt lat="42.599791" lon="0.954343">
        <ele>2729.708</ele>
        <time>2022-03-19T10:50:39Z</time>
      </trkpt>
      <trkpt lat="42.599778" lon="0.954281">
        <ele>2731.336</ele>
        <time>2022-03-19T10:50:56Z</time>
      </trkpt>
      <trkpt lat="42.599790" lon="0.954221">
        <ele>2731.854</ele>
        <time>2022-03-19T10:51:02Z</time>
      </trkpt>
      <trkpt lat="42.599832" lon="0.954251">
        <ele>2735.086</ele>
        <time>2022-03-19T10:51:21Z</time>
      </trkpt>
      <trkpt lat="42.599874" lon="0.954278">
        <ele>2737.075</ele>
        <time>2022-03-19T10:51:33Z</time>
      </trkpt>
      <trkpt lat="42.599917" lon="0.954310">
        <ele>2739.233</ele>
        <time>2022-03-19T10:51:42Z</time>
      </trkpt>
      <trkpt lat="42.599962" lon="0.954337">
        <ele>2741.685</ele>
        <time>2022-03-19T10:52:46Z</time>
      </trkpt>
      <trkpt lat="42.600040" lon="0.954360">
        <ele>2743.272</ele>
        <time>2022-03-19T10:54:38Z</time>
      </trkpt>
      <trkpt lat="42.600082" lon="0.954383">
        <ele>2746.236</ele>
        <time>2022-03-19T10:54:45Z</time>
      </trkpt>
      <trkpt lat="42.600125" lon="0.954401">
        <ele>2748.763</ele>
        <time>2022-03-19T10:54:54Z</time>
      </trkpt>
      <trkpt lat="42.600183" lon="0.954449">
        <ele>2752.444</ele>
        <time>2022-03-19T10:55:20Z</time>
      </trkpt>
      <trkpt lat="42.600150" lon="0.954334">
        <ele>2751.318</ele>
        <time>2022-03-19T10:55:42Z</time>
      </trkpt>
      <trkpt lat="42.600115" lon="0.954287">
        <ele>2751.308</ele>
        <time>2022-03-19T10:55:53Z</time>
      </trkpt>
      <trkpt lat="42.600085" lon="0.954240">
        <ele>2751.325</ele>
        <time>2022-03-19T10:56:01Z</time>
      </trkpt>
      <trkpt lat="42.600057" lon="0.954190">
        <ele>2753.393</ele>
        <time>2022-03-19T10:56:14Z</time>
      </trkpt>
      <trkpt lat="42.600055" lon="0.954127">
        <ele>2753.965</ele>
        <time>2022-03-19T10:56:26Z</time>
      </trkpt>
      <trkpt lat="42.600117" lon="0.954129">
        <ele>2753.034</ele>
        <time>2022-03-19T10:56:59Z</time>
      </trkpt>
      <trkpt lat="42.600167" lon="0.954137">
        <ele>2753.772</ele>
        <time>2022-03-19T10:57:07Z</time>
      </trkpt>
      <trkpt lat="42.600152" lon="0.954060">
        <ele>2758.854</ele>
        <time>2022-03-19T10:58:43Z</time>
      </trkpt>
      <trkpt lat="42.600119" lon="0.954013">
        <ele>2760.331</ele>
        <time>2022-03-19T10:58:52Z</time>
      </trkpt>
      <trkpt lat="42.600097" lon="0.953955">
        <ele>2761.565</ele>
        <time>2022-03-19T10:59:02Z</time>
      </trkpt>
      <trkpt lat="42.600077" lon="0.953895">
        <ele>2762.445</ele>
        <time>2022-03-19T10:59:11Z</time>
      </trkpt>
      <trkpt lat="42.600040" lon="0.953857">
        <ele>2763.447</ele>
        <time>2022-03-19T10:59:18Z</time>
      </trkpt>
      <trkpt lat="42.600080" lon="0.953885">
        <ele>2764.911</ele>
        <time>2022-03-19T10:59:30Z</time>
      </trkpt>
      <trkpt lat="42.600127" lon="0.953900">
        <ele>2765.608</ele>
        <time>2022-03-19T10:59:38Z</time>
      </trkpt>
      <trkpt lat="42.600162" lon="0.953942">
        <ele>2766.753</ele>
        <time>2022-03-19T10:59:45Z</time>
      </trkpt>
      <trkpt lat="42.600154" lon="0.953879">
        <ele>2768.521</ele>
        <time>2022-03-19T11:00:02Z</time>
      </trkpt>
      <trkpt lat="42.600142" lon="0.953802">
        <ele>2771.453</ele>
        <time>2022-03-19T11:00:18Z</time>
      </trkpt>
      <trkpt lat="42.600130" lon="0.953732">
        <ele>2773.072</ele>
        <time>2022-03-19T11:00:26Z</time>
      </trkpt>
      <trkpt lat="42.600120" lon="0.953672">
        <ele>2775.340</ele>
        <time>2022-03-19T11:00:36Z</time>
      </trkpt>
      <trkpt lat="42.600093" lon="0.953622">
        <ele>2780.682</ele>
        <time>2022-03-19T11:00:47Z</time>
      </trkpt>
      <trkpt lat="42.600076" lon="0.953560">
        <ele>2784.069</ele>
        <time>2022-03-19T11:00:57Z</time>
      </trkpt>
      <trkpt lat="42.600078" lon="0.953498">
        <ele>2784.963</ele>
        <time>2022-03-19T11:01:23Z</time>
      </trkpt>
      <trkpt lat="42.600098" lon="0.953558">
        <ele>2784.273</ele>
        <time>2022-03-19T11:01:33Z</time>
      </trkpt>
      <trkpt lat="42.600123" lon="0.953610">
        <ele>2784.285</ele>
        <time>2022-03-19T11:01:41Z</time>
      </trkpt>
      <trkpt lat="42.600168" lon="0.953637">
        <ele>2784.313</ele>
        <time>2022-03-19T11:01:51Z</time>
      </trkpt>
      <trkpt lat="42.600231" lon="0.953690">
        <ele>2785.508</ele>
        <time>2022-03-19T11:02:21Z</time>
      </trkpt>
      <trkpt lat="42.600288" lon="0.953713">
        <ele>2788.356</ele>
        <time>2022-03-19T11:03:10Z</time>
      </trkpt>
      <trkpt lat="42.600333" lon="0.953720">
        <ele>2790.544</ele>
        <time>2022-03-19T11:03:18Z</time>
      </trkpt>
      <trkpt lat="42.600370" lon="0.953758">
        <ele>2793.076</ele>
        <time>2022-03-19T11:03:29Z</time>
      </trkpt>
      <trkpt lat="42.600418" lon="0.953785">
        <ele>2796.565</ele>
        <time>2022-03-19T11:03:54Z</time>
      </trkpt>
      <trkpt lat="42.600395" lon="0.953730">
        <ele>2797.883</ele>
        <time>2022-03-19T11:04:32Z</time>
      </trkpt>
      <trkpt lat="42.600387" lon="0.953658">
        <ele>2798.635</ele>
        <time>2022-03-19T11:04:41Z</time>
      </trkpt>
      <trkpt lat="42.600359" lon="0.953610">
        <ele>2799.632</ele>
        <time>2022-03-19T11:04:53Z</time>
      </trkpt>
      <trkpt lat="42.600371" lon="0.953547">
        <ele>2800.896</ele>
        <time>2022-03-19T11:05:05Z</time>
      </trkpt>
      <trkpt lat="42.600341" lon="0.953495">
        <ele>2802.415</ele>
        <time>2022-03-19T11:05:15Z</time>
      </trkpt>
      <trkpt lat="42.600349" lon="0.953428">
        <ele>2804.665</ele>
        <time>2022-03-19T11:05:25Z</time>
      </trkpt>
      <trkpt lat="42.600387" lon="0.953466">
        <ele>2806.811</ele>
        <time>2022-03-19T11:05:38Z</time>
      </trkpt>
      <trkpt lat="42.600415" lon="0.953519">
        <ele>2808.408</ele>
        <time>2022-03-19T11:05:46Z</time>
      </trkpt>
      <trkpt lat="42.600455" lon="0.953487">
        <ele>2811.720</ele>
        <time>2022-03-19T11:06:02Z</time>
      </trkpt>
      <trkpt lat="42.600500" lon="0.953477">
        <ele>2812.648</ele>
        <time>2022-03-19T11:06:24Z</time>
      </trkpt>
      <trkpt lat="42.600543" lon="0.953499">
        <ele>2813.970</ele>
        <time>2022-03-19T11:06:49Z</time>
      </trkpt>
      <trkpt lat="42.600590" lon="0.953516">
        <ele>2814.969</ele>
        <time>2022-03-19T11:06:58Z</time>
      </trkpt>
      <trkpt lat="42.600632" lon="0.953541">
        <ele>2816.497</ele>
        <time>2022-03-19T11:07:06Z</time>
      </trkpt>
      <trkpt lat="42.600675" lon="0.953574">
        <ele>2818.379</ele>
        <time>2022-03-19T11:07:15Z</time>
      </trkpt>
      <trkpt lat="42.600720" lon="0.953567">
        <ele>2819.366</ele>
        <time>2022-03-19T11:07:23Z</time>
      </trkpt>
      <trkpt lat="42.600682" lon="0.953520">
        <ele>2819.530</ele>
        <time>2022-03-19T11:07:40Z</time>
      </trkpt>
      <trkpt lat="42.600650" lon="0.953472">
        <ele>2821.369</ele>
        <time>2022-03-19T11:08:00Z</time>
      </trkpt>
      <trkpt lat="42.600645" lon="0.953405">
        <ele>2823.904</ele>
        <time>2022-03-19T11:08:10Z</time>
      </trkpt>
      <trkpt lat="42.600690" lon="0.953432">
        <ele>2829.224</ele>
        <time>2022-03-19T11:33:18Z</time>
      </trkpt>
      <trkpt lat="42.600733" lon="0.953449">
        <ele>2831.008</ele>
        <time>2022-03-19T11:33:27Z</time>
      </trkpt>
      <trkpt lat="42.600780" lon="0.953439">
        <ele>2834.855</ele>
        <time>2022-03-19T11:33:39Z</time>
      </trkpt>
      <trkpt lat="42.600832" lon="0.953447">
        <ele>2835.993</ele>
        <time>2022-03-19T11:34:20Z</time>
      </trkpt>
      <trkpt lat="42.600880" lon="0.953414">
        <ele>2838.535</ele>
        <time>2022-03-19T11:34:37Z</time>
      </trkpt>
      <trkpt lat="42.600897" lon="0.953352">
        <ele>2840.754</ele>
        <time>2022-03-19T11:35:19Z</time>
      </trkpt>
      <trkpt lat="42.600944" lon="0.953370">
        <ele>2842.122</ele>
        <time>2022-03-19T11:35:34Z</time>
      </trkpt>
      <trkpt lat="42.601039" lon="0.953395">
        <ele>2850.154</ele>
        <time>2022-03-19T11:36:37Z</time>
      </trkpt>
      <trkpt lat="42.601101" lon="0.953355">
        <ele>2853.391</ele>
        <time>2022-03-19T11:37:24Z</time>
      </trkpt>
      <trkpt lat="42.601151" lon="0.953355">
        <ele>2857.255</ele>
        <time>2022-03-19T11:38:46Z</time>
      </trkpt>
      <trkpt lat="42.601198" lon="0.953368">
        <ele>2859.036</ele>
        <time>2022-03-19T11:38:56Z</time>
      </trkpt>
      <trkpt lat="42.601243" lon="0.953366">
        <ele>2862.317</ele>
        <time>2022-03-19T11:39:09Z</time>
      </trkpt>
      <trkpt lat="42.601286" lon="0.953338">
        <ele>2865.018</ele>
        <time>2022-03-19T11:39:23Z</time>
      </trkpt>
      <trkpt lat="42.601333" lon="0.953343">
        <ele>2866.008</ele>
        <time>2022-03-19T11:39:30Z</time>
      </trkpt>
      <trkpt lat="42.601285" lon="0.953345">
        <ele>2866.522</ele>
        <time>2022-03-19T11:42:34Z</time>
      </trkpt>
      <trkpt lat="42.601242" lon="0.953372">
        <ele>2865.930</ele>
        <time>2022-03-19T11:42:38Z</time>
      </trkpt>
      <trkpt lat="42.601197" lon="0.953375">
        <ele>2864.572</ele>
        <time>2022-03-19T11:42:45Z</time>
      </trkpt>
      <trkpt lat="42.601150" lon="0.953370">
        <ele>2863.021</ele>
        <time>2022-03-19T11:42:52Z</time>
      </trkpt>
      <trkpt lat="42.601102" lon="0.953373">
        <ele>2862.039</ele>
        <time>2022-03-19T11:42:58Z</time>
      </trkpt>
      <trkpt lat="42.601059" lon="0.953400">
        <ele>2858.711</ele>
        <time>2022-03-19T11:43:09Z</time>
      </trkpt>
      <trkpt lat="42.601012" lon="0.953420">
        <ele>2855.248</ele>
        <time>2022-03-19T11:43:22Z</time>
      </trkpt>
      <trkpt lat="42.600964" lon="0.953402">
        <ele>2851.822</ele>
        <time>2022-03-19T11:43:33Z</time>
      </trkpt>
      <trkpt lat="42.600902" lon="0.953429">
        <ele>2849.326</ele>
        <time>2022-03-19T11:43:55Z</time>
      </trkpt>
      <trkpt lat="42.600857" lon="0.953437">
        <ele>2848.147</ele>
        <time>2022-03-19T11:44:02Z</time>
      </trkpt>
      <trkpt lat="42.600792" lon="0.953460">
        <ele>2841.511</ele>
        <time>2022-03-19T11:44:24Z</time>
      </trkpt>
      <trkpt lat="42.600740" lon="0.953457">
        <ele>2837.108</ele>
        <time>2022-03-19T11:44:35Z</time>
      </trkpt>
      <trkpt lat="42.600693" lon="0.953444">
        <ele>2832.371</ele>
        <time>2022-03-19T11:44:46Z</time>
      </trkpt>
      <trkpt lat="42.600651" lon="0.953417">
        <ele>2830.019</ele>
        <time>2022-03-19T11:45:04Z</time>
      </trkpt>
      <trkpt lat="42.600604" lon="0.953409">
        <ele>2826.611</ele>
        <time>2022-03-19T11:48:32Z</time>
      </trkpt>
      <trkpt lat="42.600629" lon="0.953476">
        <ele>2825.220</ele>
        <time>2022-03-19T11:54:03Z</time>
      </trkpt>
      <trkpt lat="42.600659" lon="0.953533">
        <ele>2824.378</ele>
        <time>2022-03-19T11:54:08Z</time>
      </trkpt>
      <trkpt lat="42.600694" lon="0.953586">
        <ele>2823.330</ele>
        <time>2022-03-19T11:54:13Z</time>
      </trkpt>
      <trkpt lat="42.600712" lon="0.953649">
        <ele>2822.797</ele>
        <time>2022-03-19T11:54:17Z</time>
      </trkpt>
      <trkpt lat="42.600684" lon="0.953701">
        <ele>2821.631</ele>
        <time>2022-03-19T11:54:45Z</time>
      </trkpt>
      <trkpt lat="42.600667" lon="0.953774">
        <ele>2818.437</ele>
        <time>2022-03-19T11:56:22Z</time>
      </trkpt>
      <trkpt lat="42.600627" lon="0.953817">
        <ele>2817.549</ele>
        <time>2022-03-19T11:56:24Z</time>
      </trkpt>
      <trkpt lat="42.600597" lon="0.953890">
        <ele>2815.013</ele>
        <time>2022-03-19T11:56:27Z</time>
      </trkpt>
      <trkpt lat="42.600597" lon="0.953960">
        <ele>2812.308</ele>
        <time>2022-03-19T11:56:29Z</time>
      </trkpt>
      <trkpt lat="42.600564" lon="0.954035">
        <ele>2808.082</ele>
        <time>2022-03-19T11:56:32Z</time>
      </trkpt>
      <trkpt lat="42.600517" lon="0.954045">
        <ele>2805.430</ele>
        <time>2022-03-19T11:56:34Z</time>
      </trkpt>
      <trkpt lat="42.600539" lon="0.954100">
        <ele>2792.742</ele>
        <time>2022-03-19T11:59:29Z</time>
      </trkpt>
      <trkpt lat="42.600534" lon="0.954168">
        <ele>2792.261</ele>
        <time>2022-03-19T12:00:44Z</time>
      </trkpt>
      <trkpt lat="42.600512" lon="0.954230">
        <ele>2791.329</ele>
        <time>2022-03-19T12:00:47Z</time>
      </trkpt>
      <trkpt lat="42.600485" lon="0.954280">
        <ele>2790.351</ele>
        <time>2022-03-19T12:00:49Z</time>
      </trkpt>
      <trkpt lat="42.600435" lon="0.954322">
        <ele>2787.488</ele>
        <time>2022-03-19T12:00:52Z</time>
      </trkpt>
      <trkpt lat="42.600388" lon="0.954315">
        <ele>2785.882</ele>
        <time>2022-03-19T12:00:57Z</time>
      </trkpt>
      <trkpt lat="42.600415" lon="0.954387">
        <ele>2783.239</ele>
        <time>2022-03-19T12:01:01Z</time>
      </trkpt>
      <trkpt lat="42.600445" lon="0.954455">
        <ele>2779.901</ele>
        <time>2022-03-19T12:01:11Z</time>
      </trkpt>
      <trkpt lat="42.600483" lon="0.954528">
        <ele>2774.321</ele>
        <time>2022-03-19T12:02:47Z</time>
      </trkpt>
      <trkpt lat="42.600515" lon="0.954580">
        <ele>2773.508</ele>
        <time>2022-03-19T12:02:49Z</time>
      </trkpt>
      <trkpt lat="42.600470" lon="0.954617">
        <ele>2769.912</ele>
        <time>2022-03-19T12:02:52Z</time>
      </trkpt>
      <trkpt lat="42.600485" lon="0.954732">
        <ele>2767.210</ele>
        <time>2022-03-19T12:02:54Z</time>
      </trkpt>
      <trkpt lat="42.600517" lon="0.954794">
        <ele>2765.922</ele>
        <time>2022-03-19T12:02:55Z</time>
      </trkpt>
      <trkpt lat="42.600554" lon="0.954851">
        <ele>2765.161</ele>
        <time>2022-03-19T12:02:56Z</time>
      </trkpt>
      <trkpt lat="42.600614" lon="0.954969">
        <ele>2764.019</ele>
        <time>2022-03-19T12:02:58Z</time>
      </trkpt>
      <trkpt lat="42.600672" lon="0.955081">
        <ele>2762.011</ele>
        <time>2022-03-19T12:03:00Z</time>
      </trkpt>
      <trkpt lat="42.600732" lon="0.955179">
        <ele>2759.558</ele>
        <time>2022-03-19T12:03:02Z</time>
      </trkpt>
      <trkpt lat="42.600782" lon="0.955266">
        <ele>2757.892</ele>
        <time>2022-03-19T12:03:04Z</time>
      </trkpt>
      <trkpt lat="42.600835" lon="0.955363">
        <ele>2755.782</ele>
        <time>2022-03-19T12:03:06Z</time>
      </trkpt>
      <trkpt lat="42.600882" lon="0.955436">
        <ele>2754.143</ele>
        <time>2022-03-19T12:03:08Z</time>
      </trkpt>
      <trkpt lat="42.600914" lon="0.955489">
        <ele>2751.517</ele>
        <time>2022-03-19T12:03:10Z</time>
      </trkpt>
      <trkpt lat="42.600946" lon="0.955544">
        <ele>2748.308</ele>
        <time>2022-03-19T12:03:12Z</time>
      </trkpt>
      <trkpt lat="42.600991" lon="0.955614">
        <ele>2745.457</ele>
        <time>2022-03-19T12:03:15Z</time>
      </trkpt>
      <trkpt lat="42.600939" lon="0.955627">
        <ele>2741.125</ele>
        <time>2022-03-19T12:03:49Z</time>
      </trkpt>
      <trkpt lat="42.600889" lon="0.955617">
        <ele>2740.317</ele>
        <time>2022-03-19T12:03:51Z</time>
      </trkpt>
      <trkpt lat="42.600831" lon="0.955597">
        <ele>2739.636</ele>
        <time>2022-03-19T12:03:53Z</time>
      </trkpt>
      <trkpt lat="42.600781" lon="0.955614">
        <ele>2738.384</ele>
        <time>2022-03-19T12:03:55Z</time>
      </trkpt>
      <trkpt lat="42.600716" lon="0.955699">
        <ele>2735.116</ele>
        <time>2022-03-19T12:03:57Z</time>
      </trkpt>
      <trkpt lat="42.600713" lon="0.955764">
        <ele>2733.753</ele>
        <time>2022-03-19T12:03:59Z</time>
      </trkpt>
      <trkpt lat="42.600716" lon="0.955842">
        <ele>2728.827</ele>
        <time>2022-03-19T12:04:37Z</time>
      </trkpt>
      <trkpt lat="42.600709" lon="0.955940">
        <ele>2728.073</ele>
        <time>2022-03-19T12:04:39Z</time>
      </trkpt>
      <trkpt lat="42.600697" lon="0.956003">
        <ele>2727.485</ele>
        <time>2022-03-19T12:04:40Z</time>
      </trkpt>
      <trkpt lat="42.600679" lon="0.956103">
        <ele>2724.813</ele>
        <time>2022-03-19T12:04:42Z</time>
      </trkpt>
      <trkpt lat="42.600646" lon="0.956195">
        <ele>2722.008</ele>
        <time>2022-03-19T12:04:44Z</time>
      </trkpt>
      <trkpt lat="42.600659" lon="0.956280">
        <ele>2719.666</ele>
        <time>2022-03-19T12:04:46Z</time>
      </trkpt>
      <trkpt lat="42.600697" lon="0.956338">
        <ele>2716.874</ele>
        <time>2022-03-19T12:04:49Z</time>
      </trkpt>
      <trkpt lat="42.600725" lon="0.956420">
        <ele>2712.356</ele>
        <time>2022-03-19T12:05:31Z</time>
      </trkpt>
      <trkpt lat="42.600755" lon="0.956478">
        <ele>2711.165</ele>
        <time>2022-03-19T12:05:33Z</time>
      </trkpt>
      <trkpt lat="42.600798" lon="0.956568">
        <ele>2709.273</ele>
        <time>2022-03-19T12:05:35Z</time>
      </trkpt>
      <trkpt lat="42.600821" lon="0.956681">
        <ele>2706.885</ele>
        <time>2022-03-19T12:05:37Z</time>
      </trkpt>
      <trkpt lat="42.600823" lon="0.956799">
        <ele>2704.122</ele>
        <time>2022-03-19T12:05:39Z</time>
      </trkpt>
      <trkpt lat="42.600848" lon="0.956922">
        <ele>2701.366</ele>
        <time>2022-03-19T12:05:41Z</time>
      </trkpt>
      <trkpt lat="42.600846" lon="0.957050">
        <ele>2698.831</ele>
        <time>2022-03-19T12:05:43Z</time>
      </trkpt>
      <trkpt lat="42.600854" lon="0.957168">
        <ele>2696.661</ele>
        <time>2022-03-19T12:05:45Z</time>
      </trkpt>
      <trkpt lat="42.600889" lon="0.957276">
        <ele>2693.807</ele>
        <time>2022-03-19T12:05:47Z</time>
      </trkpt>
      <trkpt lat="42.600944" lon="0.957321">
        <ele>2691.408</ele>
        <time>2022-03-19T12:05:49Z</time>
      </trkpt>
      <trkpt lat="42.601004" lon="0.957331">
        <ele>2689.262</ele>
        <time>2022-03-19T12:05:52Z</time>
      </trkpt>
      <trkpt lat="42.601066" lon="0.957344">
        <ele>2687.660</ele>
        <time>2022-03-19T12:05:55Z</time>
      </trkpt>
      <trkpt lat="42.601113" lon="0.957356">
        <ele>2686.182</ele>
        <time>2022-03-19T12:05:58Z</time>
      </trkpt>
      <trkpt lat="42.601161" lon="0.957349">
        <ele>2682.231</ele>
        <time>2022-03-19T12:07:17Z</time>
      </trkpt>
      <trkpt lat="42.601208" lon="0.957347">
        <ele>2681.839</ele>
        <time>2022-03-19T12:07:19Z</time>
      </trkpt>
      <trkpt lat="42.601275" lon="0.957339">
        <ele>2681.281</ele>
        <time>2022-03-19T12:07:21Z</time>
      </trkpt>
      <trkpt lat="42.601348" lon="0.957321">
        <ele>2680.638</ele>
        <time>2022-03-19T12:07:23Z</time>
      </trkpt>
      <trkpt lat="42.601413" lon="0.957296">
        <ele>2679.852</ele>
        <time>2022-03-19T12:07:25Z</time>
      </trkpt>
      <trkpt lat="42.601476" lon="0.957271">
        <ele>2679.683</ele>
        <time>2022-03-19T12:07:27Z</time>
      </trkpt>
      <trkpt lat="42.601536" lon="0.957251">
        <ele>2679.225</ele>
        <time>2022-03-19T12:07:29Z</time>
      </trkpt>
      <trkpt lat="42.601584" lon="0.957234">
        <ele>2679.017</ele>
        <time>2022-03-19T12:07:31Z</time>
      </trkpt>
      <trkpt lat="42.601644" lon="0.957197">
        <ele>2679.208</ele>
        <time>2022-03-19T12:07:34Z</time>
      </trkpt>
      <trkpt lat="42.601699" lon="0.957182">
        <ele>2678.817</ele>
        <time>2022-03-19T12:07:37Z</time>
      </trkpt>
      <trkpt lat="42.601746" lon="0.957164">
        <ele>2678.425</ele>
        <time>2022-03-19T12:07:40Z</time>
      </trkpt>
      <trkpt lat="42.601803" lon="0.957149">
        <ele>2675.477</ele>
        <time>2022-03-19T12:08:17Z</time>
      </trkpt>
      <trkpt lat="42.601850" lon="0.957122">
        <ele>2675.346</ele>
        <time>2022-03-19T12:08:21Z</time>
      </trkpt>
      <trkpt lat="42.601905" lon="0.957095">
        <ele>2675.244</ele>
        <time>2022-03-19T12:08:24Z</time>
      </trkpt>
      <trkpt lat="42.601955" lon="0.957075">
        <ele>2675.036</ele>
        <time>2022-03-19T12:08:26Z</time>
      </trkpt>
      <trkpt lat="42.602007" lon="0.957057">
        <ele>2674.543</ele>
        <time>2022-03-19T12:08:28Z</time>
      </trkpt>
      <trkpt lat="42.602067" lon="0.957047">
        <ele>2674.087</ele>
        <time>2022-03-19T12:08:30Z</time>
      </trkpt>
      <trkpt lat="42.602137" lon="0.957035">
        <ele>2672.353</ele>
        <time>2022-03-19T12:08:32Z</time>
      </trkpt>
      <trkpt lat="42.602214" lon="0.957033">
        <ele>2670.804</ele>
        <time>2022-03-19T12:08:34Z</time>
      </trkpt>
      <trkpt lat="42.602281" lon="0.957055">
        <ele>2668.814</ele>
        <time>2022-03-19T12:08:36Z</time>
      </trkpt>
      <trkpt lat="42.602358" lon="0.957078">
        <ele>2668.108</ele>
        <time>2022-03-19T12:08:38Z</time>
      </trkpt>
      <trkpt lat="42.602410" lon="0.957066">
        <ele>2667.884</ele>
        <time>2022-03-19T12:08:40Z</time>
      </trkpt>
      <trkpt lat="42.602470" lon="0.957066">
        <ele>2666.372</ele>
        <time>2022-03-19T12:08:42Z</time>
      </trkpt>
      <trkpt lat="42.602538" lon="0.957059">
        <ele>2665.264</ele>
        <time>2022-03-19T12:08:44Z</time>
      </trkpt>
      <trkpt lat="42.602611" lon="0.957046">
        <ele>2664.093</ele>
        <time>2022-03-19T12:08:46Z</time>
      </trkpt>
      <trkpt lat="42.602688" lon="0.957028">
        <ele>2662.751</ele>
        <time>2022-03-19T12:08:48Z</time>
      </trkpt>
      <trkpt lat="42.602763" lon="0.956993">
        <ele>2661.563</ele>
        <time>2022-03-19T12:08:50Z</time>
      </trkpt>
      <trkpt lat="42.602840" lon="0.956958">
        <ele>2660.460</ele>
        <time>2022-03-19T12:08:52Z</time>
      </trkpt>
      <trkpt lat="42.602918" lon="0.956925">
        <ele>2658.914</ele>
        <time>2022-03-19T12:08:54Z</time>
      </trkpt>
      <trkpt lat="42.602996" lon="0.956885">
        <ele>2657.455</ele>
        <time>2022-03-19T12:08:56Z</time>
      </trkpt>
      <trkpt lat="42.603079" lon="0.956833">
        <ele>2655.707</ele>
        <time>2022-03-19T12:08:58Z</time>
      </trkpt>
      <trkpt lat="42.603159" lon="0.956781">
        <ele>2655.117</ele>
        <time>2022-03-19T12:09:00Z</time>
      </trkpt>
      <trkpt lat="42.603241" lon="0.956736">
        <ele>2653.608</ele>
        <time>2022-03-19T12:09:02Z</time>
      </trkpt>
      <trkpt lat="42.603338" lon="0.956701">
        <ele>2652.354</ele>
        <time>2022-03-19T12:09:04Z</time>
      </trkpt>
      <trkpt lat="42.603445" lon="0.956659">
        <ele>2651.372</ele>
        <time>2022-03-19T12:09:06Z</time>
      </trkpt>
      <trkpt lat="42.603547" lon="0.956622">
        <ele>2650.454</ele>
        <time>2022-03-19T12:09:08Z</time>
      </trkpt>
      <trkpt lat="42.603645" lon="0.956594">
        <ele>2649.623</ele>
        <time>2022-03-19T12:09:10Z</time>
      </trkpt>
      <trkpt lat="42.603735" lon="0.956571">
        <ele>2648.571</ele>
        <time>2022-03-19T12:09:12Z</time>
      </trkpt>
      <trkpt lat="42.603823" lon="0.956543">
        <ele>2647.883</ele>
        <time>2022-03-19T12:09:14Z</time>
      </trkpt>
      <trkpt lat="42.603903" lon="0.956511">
        <ele>2647.140</ele>
        <time>2022-03-19T12:09:16Z</time>
      </trkpt>
      <trkpt lat="42.603983" lon="0.956478">
        <ele>2645.784</ele>
        <time>2022-03-19T12:09:18Z</time>
      </trkpt>
      <trkpt lat="42.604056" lon="0.956446">
        <ele>2644.632</ele>
        <time>2022-03-19T12:09:20Z</time>
      </trkpt>
      <trkpt lat="42.604133" lon="0.956413">
        <ele>2643.692</ele>
        <time>2022-03-19T12:09:22Z</time>
      </trkpt>
      <trkpt lat="42.604210" lon="0.956381">
        <ele>2642.311</ele>
        <time>2022-03-19T12:09:24Z</time>
      </trkpt>
      <trkpt lat="42.604292" lon="0.956346">
        <ele>2641.008</ele>
        <time>2022-03-19T12:09:26Z</time>
      </trkpt>
      <trkpt lat="42.604374" lon="0.956311">
        <ele>2639.672</ele>
        <time>2022-03-19T12:09:28Z</time>
      </trkpt>
      <trkpt lat="42.604454" lon="0.956273">
        <ele>2638.230</ele>
        <time>2022-03-19T12:09:30Z</time>
      </trkpt>
      <trkpt lat="42.604524" lon="0.956236">
        <ele>2637.572</ele>
        <time>2022-03-19T12:09:32Z</time>
      </trkpt>
      <trkpt lat="42.604584" lon="0.956204">
        <ele>2636.841</ele>
        <time>2022-03-19T12:09:34Z</time>
      </trkpt>
      <trkpt lat="42.604632" lon="0.956174">
        <ele>2636.029</ele>
        <time>2022-03-19T12:09:36Z</time>
      </trkpt>
      <trkpt lat="42.604680" lon="0.956146">
        <ele>2635.211</ele>
        <time>2022-03-19T12:09:38Z</time>
      </trkpt>
      <trkpt lat="42.604733" lon="0.956121">
        <ele>2633.168</ele>
        <time>2022-03-19T12:09:40Z</time>
      </trkpt>
      <trkpt lat="42.604796" lon="0.956091">
        <ele>2632.252</ele>
        <time>2022-03-19T12:09:42Z</time>
      </trkpt>
      <trkpt lat="42.604861" lon="0.956056">
        <ele>2630.447</ele>
        <time>2022-03-19T12:09:44Z</time>
      </trkpt>
      <trkpt lat="42.604924" lon="0.956018">
        <ele>2629.629</ele>
        <time>2022-03-19T12:09:46Z</time>
      </trkpt>
      <trkpt lat="42.604977" lon="0.955983">
        <ele>2629.021</ele>
        <time>2022-03-19T12:09:48Z</time>
      </trkpt>
      <trkpt lat="42.605029" lon="0.955943">
        <ele>2628.808</ele>
        <time>2022-03-19T12:09:51Z</time>
      </trkpt>
      <trkpt lat="42.605086" lon="0.956000">
        <ele>2627.563</ele>
        <time>2022-03-19T12:10:03Z</time>
      </trkpt>
      <trkpt lat="42.605129" lon="0.956050">
        <ele>2626.371</ele>
        <time>2022-03-19T12:10:05Z</time>
      </trkpt>
      <trkpt lat="42.605197" lon="0.956065">
        <ele>2625.073</ele>
        <time>2022-03-19T12:10:07Z</time>
      </trkpt>
      <trkpt lat="42.605255" lon="0.956055">
        <ele>2623.772</ele>
        <time>2022-03-19T12:10:09Z</time>
      </trkpt>
      <trkpt lat="42.605315" lon="0.956072">
        <ele>2620.720</ele>
        <time>2022-03-19T12:10:12Z</time>
      </trkpt>
      <trkpt lat="42.605368" lon="0.956094">
        <ele>2617.482</ele>
        <time>2022-03-19T12:10:15Z</time>
      </trkpt>
      <trkpt lat="42.605350" lon="0.956169">
        <ele>2614.779</ele>
        <time>2022-03-19T12:10:17Z</time>
      </trkpt>
      <trkpt lat="42.605317" lon="0.956237">
        <ele>2612.273</ele>
        <time>2022-03-19T12:10:19Z</time>
      </trkpt>
      <trkpt lat="42.605342" lon="0.956317">
        <ele>2608.385</ele>
        <time>2022-03-19T12:10:22Z</time>
      </trkpt>
      <trkpt lat="42.605389" lon="0.956417">
        <ele>2605.089</ele>
        <time>2022-03-19T12:10:24Z</time>
      </trkpt>
      <trkpt lat="42.605437" lon="0.956460">
        <ele>2603.017</ele>
        <time>2022-03-19T12:10:25Z</time>
      </trkpt>
      <trkpt lat="42.605495" lon="0.956507">
        <ele>2600.108</ele>
        <time>2022-03-19T12:10:26Z</time>
      </trkpt>
      <trkpt lat="42.605627" lon="0.956525">
        <ele>2596.187</ele>
        <time>2022-03-19T12:10:28Z</time>
      </trkpt>
      <trkpt lat="42.605747" lon="0.956480">
        <ele>2591.825</ele>
        <time>2022-03-19T12:10:30Z</time>
      </trkpt>
      <trkpt lat="42.605865" lon="0.956433">
        <ele>2588.287</ele>
        <time>2022-03-19T12:10:32Z</time>
      </trkpt>
      <trkpt lat="42.605977" lon="0.956378">
        <ele>2585.066</ele>
        <time>2022-03-19T12:10:34Z</time>
      </trkpt>
      <trkpt lat="42.606104" lon="0.956338">
        <ele>2583.474</ele>
        <time>2022-03-19T12:10:36Z</time>
      </trkpt>
      <trkpt lat="42.606171" lon="0.956328">
        <ele>2583.176</ele>
        <time>2022-03-19T12:10:37Z</time>
      </trkpt>
      <trkpt lat="42.606226" lon="0.956323">
        <ele>2582.923</ele>
        <time>2022-03-19T12:10:38Z</time>
      </trkpt>
      <trkpt lat="42.606301" lon="0.956320">
        <ele>2581.897</ele>
        <time>2022-03-19T12:10:40Z</time>
      </trkpt>
      <trkpt lat="42.606344" lon="0.956273">
        <ele>2579.947</ele>
        <time>2022-03-19T12:11:13Z</time>
      </trkpt>
      <trkpt lat="42.606381" lon="0.956223">
        <ele>2579.329</ele>
        <time>2022-03-19T12:11:15Z</time>
      </trkpt>
      <trkpt lat="42.606389" lon="0.956140">
        <ele>2577.221</ele>
        <time>2022-03-19T12:11:17Z</time>
      </trkpt>
      <trkpt lat="42.606396" lon="0.956027">
        <ele>2575.108</ele>
        <time>2022-03-19T12:11:19Z</time>
      </trkpt>
      <trkpt lat="42.606413" lon="0.955924">
        <ele>2573.273</ele>
        <time>2022-03-19T12:11:21Z</time>
      </trkpt>
      <trkpt lat="42.606413" lon="0.955851">
        <ele>2571.841</ele>
        <time>2022-03-19T12:11:23Z</time>
      </trkpt>
      <trkpt lat="42.606396" lon="0.955733">
        <ele>2567.583</ele>
        <time>2022-03-19T12:11:45Z</time>
      </trkpt>
      <trkpt lat="42.606436" lon="0.955670">
        <ele>2566.822</ele>
        <time>2022-03-19T12:11:48Z</time>
      </trkpt>
      <trkpt lat="42.606504" lon="0.955618">
        <ele>2565.960</ele>
        <time>2022-03-19T12:11:50Z</time>
      </trkpt>
      <trkpt lat="42.606564" lon="0.955608">
        <ele>2564.892</ele>
        <time>2022-03-19T12:11:51Z</time>
      </trkpt>
      <trkpt lat="42.606614" lon="0.955583">
        <ele>2563.729</ele>
        <time>2022-03-19T12:11:52Z</time>
      </trkpt>
      <trkpt lat="42.606717" lon="0.955520">
        <ele>2560.873</ele>
        <time>2022-03-19T12:11:54Z</time>
      </trkpt>
      <trkpt lat="42.606759" lon="0.955485">
        <ele>2559.359</ele>
        <time>2022-03-19T12:11:55Z</time>
      </trkpt>
      <trkpt lat="42.606789" lon="0.955432">
        <ele>2557.703</ele>
        <time>2022-03-19T12:11:56Z</time>
      </trkpt>
      <trkpt lat="42.606879" lon="0.955349">
        <ele>2553.723</ele>
        <time>2022-03-19T12:11:58Z</time>
      </trkpt>
      <trkpt lat="42.606957" lon="0.955264">
        <ele>2549.008</ele>
        <time>2022-03-19T12:12:00Z</time>
      </trkpt>
      <trkpt lat="42.607004" lon="0.955224">
        <ele>2546.424</ele>
        <time>2022-03-19T12:12:01Z</time>
      </trkpt>
      <trkpt lat="42.607056" lon="0.955212">
        <ele>2543.682</ele>
        <time>2022-03-19T12:12:02Z</time>
      </trkpt>
      <trkpt lat="42.607129" lon="0.955157">
        <ele>2540.974</ele>
        <time>2022-03-19T12:12:04Z</time>
      </trkpt>
      <trkpt lat="42.607226" lon="0.955125">
        <ele>2535.223</ele>
        <time>2022-03-19T12:12:06Z</time>
      </trkpt>
      <trkpt lat="42.607283" lon="0.955140">
        <ele>2532.871</ele>
        <time>2022-03-19T12:12:07Z</time>
      </trkpt>
      <trkpt lat="42.607350" lon="0.955145">
        <ele>2531.193</ele>
        <time>2022-03-19T12:12:08Z</time>
      </trkpt>
      <trkpt lat="42.607475" lon="0.955120">
        <ele>2527.450</ele>
        <time>2022-03-19T12:12:10Z</time>
      </trkpt>
      <trkpt lat="42.607603" lon="0.955087">
        <ele>2524.544</ele>
        <time>2022-03-19T12:12:12Z</time>
      </trkpt>
      <trkpt lat="42.607663" lon="0.955067">
        <ele>2522.612</ele>
        <time>2022-03-19T12:12:13Z</time>
      </trkpt>
      <trkpt lat="42.607721" lon="0.955057">
        <ele>2521.432</ele>
        <time>2022-03-19T12:12:14Z</time>
      </trkpt>
      <trkpt lat="42.607774" lon="0.955054">
        <ele>2520.305</ele>
        <time>2022-03-19T12:12:15Z</time>
      </trkpt>
      <trkpt lat="42.607829" lon="0.955054">
        <ele>2519.408</ele>
        <time>2022-03-19T12:12:16Z</time>
      </trkpt>
      <trkpt lat="42.607884" lon="0.955044">
        <ele>2517.780</ele>
        <time>2022-03-19T12:12:18Z</time>
      </trkpt>
      <trkpt lat="42.607904" lon="0.954964">
        <ele>2511.858</ele>
        <time>2022-03-19T12:15:18Z</time>
      </trkpt>
      <trkpt lat="42.607956" lon="0.954871">
        <ele>2511.250</ele>
        <time>2022-03-19T12:15:20Z</time>
      </trkpt>
      <trkpt lat="42.608029" lon="0.954744">
        <ele>2510.199</ele>
        <time>2022-03-19T12:15:22Z</time>
      </trkpt>
      <trkpt lat="42.608117" lon="0.954609">
        <ele>2507.957</ele>
        <time>2022-03-19T12:15:24Z</time>
      </trkpt>
      <trkpt lat="42.608209" lon="0.954461">
        <ele>2506.159</ele>
        <time>2022-03-19T12:15:26Z</time>
      </trkpt>
      <trkpt lat="42.608307" lon="0.954299">
        <ele>2504.886</ele>
        <time>2022-03-19T12:15:28Z</time>
      </trkpt>
      <trkpt lat="42.608427" lon="0.954141">
        <ele>2503.880</ele>
        <time>2022-03-19T12:15:30Z</time>
      </trkpt>
      <trkpt lat="42.608484" lon="0.954078">
        <ele>2503.348</ele>
        <time>2022-03-19T12:15:31Z</time>
      </trkpt>
      <trkpt lat="42.608536" lon="0.954015">
        <ele>2502.661</ele>
        <time>2022-03-19T12:15:32Z</time>
      </trkpt>
      <trkpt lat="42.608634" lon="0.953900">
        <ele>2500.917</ele>
        <time>2022-03-19T12:15:34Z</time>
      </trkpt>
      <trkpt lat="42.608719" lon="0.953782">
        <ele>2499.608</ele>
        <time>2022-03-19T12:15:36Z</time>
      </trkpt>
      <trkpt lat="42.608762" lon="0.953710">
        <ele>2499.413</ele>
        <time>2022-03-19T12:15:37Z</time>
      </trkpt>
      <trkpt lat="42.608795" lon="0.953645">
        <ele>2498.711</ele>
        <time>2022-03-19T12:15:38Z</time>
      </trkpt>
      <trkpt lat="42.608840" lon="0.953515">
        <ele>2496.983</ele>
        <time>2022-03-19T12:15:40Z</time>
      </trkpt>
      <trkpt lat="42.608870" lon="0.953392">
        <ele>2494.892</ele>
        <time>2022-03-19T12:15:42Z</time>
      </trkpt>
      <trkpt lat="42.608923" lon="0.953289">
        <ele>2493.370</ele>
        <time>2022-03-19T12:15:44Z</time>
      </trkpt>
      <trkpt lat="42.608983" lon="0.953181">
        <ele>2491.352</ele>
        <time>2022-03-19T12:15:46Z</time>
      </trkpt>
      <trkpt lat="42.609046" lon="0.953069">
        <ele>2489.929</ele>
        <time>2022-03-19T12:15:48Z</time>
      </trkpt>
      <trkpt lat="42.609079" lon="0.953016">
        <ele>2489.043</ele>
        <time>2022-03-19T12:15:49Z</time>
      </trkpt>
      <trkpt lat="42.609111" lon="0.952959">
        <ele>2488.336</ele>
        <time>2022-03-19T12:15:50Z</time>
      </trkpt>
      <trkpt lat="42.609179" lon="0.952844">
        <ele>2486.817</ele>
        <time>2022-03-19T12:15:52Z</time>
      </trkpt>
      <trkpt lat="42.609229" lon="0.952734">
        <ele>2485.918</ele>
        <time>2022-03-19T12:15:54Z</time>
      </trkpt>
      <trkpt lat="42.609292" lon="0.952629">
        <ele>2486.408</ele>
        <time>2022-03-19T12:15:56Z</time>
      </trkpt>
      <trkpt lat="42.609337" lon="0.952524">
        <ele>2485.962</ele>
        <time>2022-03-19T12:15:58Z</time>
      </trkpt>
      <trkpt lat="42.609372" lon="0.952411">
        <ele>2485.450</ele>
        <time>2022-03-19T12:16:00Z</time>
      </trkpt>
      <trkpt lat="42.609382" lon="0.952291">
        <ele>2483.742</ele>
        <time>2022-03-19T12:16:02Z</time>
      </trkpt>
      <trkpt lat="42.609382" lon="0.952194">
        <ele>2482.071</ele>
        <time>2022-03-19T12:16:04Z</time>
      </trkpt>
      <trkpt lat="42.609384" lon="0.952124">
        <ele>2480.389</ele>
        <time>2022-03-19T12:16:06Z</time>
      </trkpt>
      <trkpt lat="42.609396" lon="0.952061">
        <ele>2479.151</ele>
        <time>2022-03-19T12:16:08Z</time>
      </trkpt>
      <trkpt lat="42.609413" lon="0.951983">
        <ele>2477.418</ele>
        <time>2022-03-19T12:16:12Z</time>
      </trkpt>
      <trkpt lat="42.609483" lon="0.951895">
        <ele>2473.842</ele>
        <time>2022-03-19T12:16:44Z</time>
      </trkpt>
      <trkpt lat="42.609526" lon="0.951820">
        <ele>2473.043</ele>
        <time>2022-03-19T12:16:46Z</time>
      </trkpt>
      <trkpt lat="42.609596" lon="0.951767">
        <ele>2471.564</ele>
        <time>2022-03-19T12:16:48Z</time>
      </trkpt>
      <trkpt lat="42.609626" lon="0.951680">
        <ele>2469.610</ele>
        <time>2022-03-19T12:16:50Z</time>
      </trkpt>
      <trkpt lat="42.609663" lon="0.951600">
        <ele>2466.608</ele>
        <time>2022-03-19T12:16:52Z</time>
      </trkpt>
      <trkpt lat="42.609658" lon="0.951503">
        <ele>2463.733</ele>
        <time>2022-03-19T12:16:54Z</time>
      </trkpt>
      <trkpt lat="42.609710" lon="0.951435">
        <ele>2460.791</ele>
        <time>2022-03-19T12:16:56Z</time>
      </trkpt>
      <trkpt lat="42.609693" lon="0.951377">
        <ele>2458.443</ele>
        <time>2022-03-19T12:16:58Z</time>
      </trkpt>
      <trkpt lat="42.609715" lon="0.951307">
        <ele>2456.732</ele>
        <time>2022-03-19T12:17:03Z</time>
      </trkpt>
      <trkpt lat="42.609765" lon="0.951269">
        <ele>2455.030</ele>
        <time>2022-03-19T12:17:05Z</time>
      </trkpt>
      <trkpt lat="42.609717" lon="0.951176">
        <ele>2450.672</ele>
        <time>2022-03-19T12:17:11Z</time>
      </trkpt>
      <trkpt lat="42.609779" lon="0.951113">
        <ele>2448.629</ele>
        <time>2022-03-19T12:17:27Z</time>
      </trkpt>
      <trkpt lat="42.609824" lon="0.951071">
        <ele>2447.993</ele>
        <time>2022-03-19T12:17:29Z</time>
      </trkpt>
      <trkpt lat="42.609866" lon="0.951026">
        <ele>2447.083</ele>
        <time>2022-03-19T12:17:31Z</time>
      </trkpt>
      <trkpt lat="42.609894" lon="0.950971">
        <ele>2445.825</ele>
        <time>2022-03-19T12:17:34Z</time>
      </trkpt>
      <trkpt lat="42.609941" lon="0.950919">
        <ele>2444.517</ele>
        <time>2022-03-19T12:17:37Z</time>
      </trkpt>
      <trkpt lat="42.609993" lon="0.950902">
        <ele>2442.908</ele>
        <time>2022-03-19T12:17:39Z</time>
      </trkpt>
      <trkpt lat="42.610068" lon="0.950865">
        <ele>2442.927</ele>
        <time>2022-03-19T12:17:53Z</time>
      </trkpt>
      <trkpt lat="42.610126" lon="0.950850">
        <ele>2441.715</ele>
        <time>2022-03-19T12:17:55Z</time>
      </trkpt>
      <trkpt lat="42.610174" lon="0.950837">
        <ele>2440.347</ele>
        <time>2022-03-19T12:17:57Z</time>
      </trkpt>
      <trkpt lat="42.610219" lon="0.950830">
        <ele>2438.556</ele>
        <time>2022-03-19T12:17:59Z</time>
      </trkpt>
      <trkpt lat="42.610281" lon="0.950822">
        <ele>2435.154</ele>
        <time>2022-03-19T12:18:02Z</time>
      </trkpt>
      <trkpt lat="42.610279" lon="0.950759">
        <ele>2429.856</ele>
        <time>2022-03-19T12:18:06Z</time>
      </trkpt>
      <trkpt lat="42.610189" lon="0.950672">
        <ele>2426.493</ele>
        <time>2022-03-19T12:18:38Z</time>
      </trkpt>
      <trkpt lat="42.610146" lon="0.950604">
        <ele>2426.097</ele>
        <time>2022-03-19T12:18:40Z</time>
      </trkpt>
      <trkpt lat="42.610101" lon="0.950541">
        <ele>2425.687</ele>
        <time>2022-03-19T12:18:43Z</time>
      </trkpt>
      <trkpt lat="42.610058" lon="0.950478">
        <ele>2422.342</ele>
        <time>2022-03-19T12:18:47Z</time>
      </trkpt>
      <trkpt lat="42.610001" lon="0.950463">
        <ele>2420.626</ele>
        <time>2022-03-19T12:18:49Z</time>
      </trkpt>
      <trkpt lat="42.609956" lon="0.950448">
        <ele>2419.808</ele>
        <time>2022-03-19T12:18:51Z</time>
      </trkpt>
      <trkpt lat="42.609903" lon="0.950335">
        <ele>2418.937</ele>
        <time>2022-03-19T12:19:18Z</time>
      </trkpt>
      <trkpt lat="42.609905" lon="0.950270">
        <ele>2417.355</ele>
        <time>2022-03-19T12:19:23Z</time>
      </trkpt>
      <trkpt lat="42.609965" lon="0.950258">
        <ele>2415.567</ele>
        <time>2022-03-19T12:19:25Z</time>
      </trkpt>
      <trkpt lat="42.609937" lon="0.950196">
        <ele>2411.636</ele>
        <time>2022-03-19T12:19:30Z</time>
      </trkpt>
      <trkpt lat="42.609882" lon="0.950154">
        <ele>2410.234</ele>
        <time>2022-03-19T12:19:32Z</time>
      </trkpt>
      <trkpt lat="42.609905" lon="0.950082">
        <ele>2404.696</ele>
        <time>2022-03-19T12:19:38Z</time>
      </trkpt>
      <trkpt lat="42.609895" lon="0.950009">
        <ele>2401.253</ele>
        <time>2022-03-19T12:20:24Z</time>
      </trkpt>
      <trkpt lat="42.609858" lon="0.949939">
        <ele>2399.847</ele>
        <time>2022-03-19T12:20:27Z</time>
      </trkpt>
      <trkpt lat="42.609923" lon="0.949892">
        <ele>2398.157</ele>
        <time>2022-03-19T12:20:29Z</time>
      </trkpt>
      <trkpt lat="42.610001" lon="0.949872">
        <ele>2395.900</ele>
        <time>2022-03-19T12:20:31Z</time>
      </trkpt>
      <trkpt lat="42.610079" lon="0.949812">
        <ele>2392.620</ele>
        <time>2022-03-19T12:20:33Z</time>
      </trkpt>
      <trkpt lat="42.610131" lon="0.949774">
        <ele>2390.408</ele>
        <time>2022-03-19T12:20:34Z</time>
      </trkpt>
      <trkpt lat="42.610228" lon="0.949712">
        <ele>2386.114</ele>
        <time>2022-03-19T12:20:36Z</time>
      </trkpt>
      <trkpt lat="42.610275" lon="0.949684">
        <ele>2384.592</ele>
        <time>2022-03-19T12:20:37Z</time>
      </trkpt>
      <trkpt lat="42.610322" lon="0.949666">
        <ele>2383.484</ele>
        <time>2022-03-19T12:20:38Z</time>
      </trkpt>
      <trkpt lat="42.610372" lon="0.949651">
        <ele>2380.653</ele>
        <time>2022-03-19T12:20:40Z</time>
      </trkpt>
      <trkpt lat="42.610304" lon="0.949604">
        <ele>2381.481</ele>
        <time>2022-03-19T12:21:08Z</time>
      </trkpt>
      <trkpt lat="42.610251" lon="0.949574">
        <ele>2381.163</ele>
        <time>2022-03-19T12:21:10Z</time>
      </trkpt>
      <trkpt lat="42.610234" lon="0.949509">
        <ele>2379.350</ele>
        <time>2022-03-19T12:21:13Z</time>
      </trkpt>
      <trkpt lat="42.610252" lon="0.949437">
        <ele>2377.164</ele>
        <time>2022-03-19T12:21:15Z</time>
      </trkpt>
      <trkpt lat="42.610199" lon="0.949389">
        <ele>2375.559</ele>
        <time>2022-03-19T12:21:17Z</time>
      </trkpt>
      <trkpt lat="42.610189" lon="0.949294">
        <ele>2373.103</ele>
        <time>2022-03-19T12:21:19Z</time>
      </trkpt>
      <trkpt lat="42.610179" lon="0.949191">
        <ele>2370.423</ele>
        <time>2022-03-19T12:21:21Z</time>
      </trkpt>
      <trkpt lat="42.610156" lon="0.949118">
        <ele>2368.008</ele>
        <time>2022-03-19T12:21:23Z</time>
      </trkpt>
      <trkpt lat="42.610221" lon="0.949058">
        <ele>2365.054</ele>
        <time>2022-03-19T12:21:25Z</time>
      </trkpt>
      <trkpt lat="42.610288" lon="0.949000">
        <ele>2362.122</ele>
        <time>2022-03-19T12:21:27Z</time>
      </trkpt>
      <trkpt lat="42.610273" lon="0.948933">
        <ele>2357.994</ele>
        <time>2022-03-19T12:21:29Z</time>
      </trkpt>
      <trkpt lat="42.610205" lon="0.948891">
        <ele>2355.693</ele>
        <time>2022-03-19T12:21:31Z</time>
      </trkpt>
      <trkpt lat="42.610140" lon="0.948833">
        <ele>2353.471</ele>
        <time>2022-03-19T12:21:33Z</time>
      </trkpt>
      <trkpt lat="42.610118" lon="0.948765">
        <ele>2350.793</ele>
        <time>2022-03-19T12:21:35Z</time>
      </trkpt>
      <trkpt lat="42.610151" lon="0.948722">
        <ele>2347.560</ele>
        <time>2022-03-19T12:21:37Z</time>
      </trkpt>
      <trkpt lat="42.610194" lon="0.948692">
        <ele>2346.694</ele>
        <time>2022-03-19T12:21:39Z</time>
      </trkpt>
      <trkpt lat="42.610247" lon="0.948799">
        <ele>2344.382</ele>
        <time>2022-03-19T12:27:57Z</time>
      </trkpt>
      <trkpt lat="42.610257" lon="0.948681">
        <ele>2345.143</ele>
        <time>2022-03-19T12:32:22Z</time>
      </trkpt>
      <trkpt lat="42.610269" lon="0.948803">
        <ele>2340.117</ele>
        <time>2022-03-19T12:38:15Z</time>
      </trkpt>
      <trkpt lat="42.610246" lon="0.948686">
        <ele>2339.008</ele>
        <time>2022-03-19T12:42:36Z</time>
      </trkpt>
      <trkpt lat="42.610118" lon="0.948584">
        <ele>2337.537</ele>
        <time>2022-03-19T12:43:39Z</time>
      </trkpt>
      <trkpt lat="42.610055" lon="0.948516">
        <ele>2337.535</ele>
        <time>2022-03-19T12:43:41Z</time>
      </trkpt>
      <trkpt lat="42.610005" lon="0.948473">
        <ele>2337.217</ele>
        <time>2022-03-19T12:43:43Z</time>
      </trkpt>
      <trkpt lat="42.609958" lon="0.948440">
        <ele>2336.756</ele>
        <time>2022-03-19T12:43:45Z</time>
      </trkpt>
      <trkpt lat="42.609901" lon="0.948380">
        <ele>2335.944</ele>
        <time>2022-03-19T12:43:47Z</time>
      </trkpt>
      <trkpt lat="42.609793" lon="0.948265">
        <ele>2335.086</ele>
        <time>2022-03-19T12:43:49Z</time>
      </trkpt>
      <trkpt lat="42.609726" lon="0.948198">
        <ele>2334.823</ele>
        <time>2022-03-19T12:43:50Z</time>
      </trkpt>
      <trkpt lat="42.609598" lon="0.948085">
        <ele>2334.547</ele>
        <time>2022-03-19T12:43:52Z</time>
      </trkpt>
      <trkpt lat="42.609523" lon="0.948015">
        <ele>2334.077</ele>
        <time>2022-03-19T12:43:54Z</time>
      </trkpt>
      <trkpt lat="42.609475" lon="0.947970">
        <ele>2332.161</ele>
        <time>2022-03-19T12:43:56Z</time>
      </trkpt>
      <trkpt lat="42.609428" lon="0.947922">
        <ele>2331.027</ele>
        <time>2022-03-19T12:43:58Z</time>
      </trkpt>
      <trkpt lat="42.609381" lon="0.947872">
        <ele>2330.108</ele>
        <time>2022-03-19T12:44:00Z</time>
      </trkpt>
      <trkpt lat="42.609344" lon="0.947822">
        <ele>2329.586</ele>
        <time>2022-03-19T12:44:02Z</time>
      </trkpt>
      <trkpt lat="42.609324" lon="0.947750">
        <ele>2329.044</ele>
        <time>2022-03-19T12:44:06Z</time>
      </trkpt>
      <trkpt lat="42.609296" lon="0.947598">
        <ele>2328.686</ele>
        <time>2022-03-19T12:44:23Z</time>
      </trkpt>
      <trkpt lat="42.609296" lon="0.947460">
        <ele>2329.845</ele>
        <time>2022-03-19T12:44:33Z</time>
      </trkpt>
      <trkpt lat="42.609284" lon="0.947398">
        <ele>2329.323</ele>
        <time>2022-03-19T12:44:36Z</time>
      </trkpt>
      <trkpt lat="42.609279" lon="0.947335">
        <ele>2329.145</ele>
        <time>2022-03-19T12:44:38Z</time>
      </trkpt>
      <trkpt lat="42.609276" lon="0.947272">
        <ele>2328.732</ele>
        <time>2022-03-19T12:44:40Z</time>
      </trkpt>
      <trkpt lat="42.609266" lon="0.947212">
        <ele>2328.376</ele>
        <time>2022-03-19T12:44:42Z</time>
      </trkpt>
      <trkpt lat="42.609254" lon="0.947147">
        <ele>2328.194</ele>
        <time>2022-03-19T12:44:44Z</time>
      </trkpt>
      <trkpt lat="42.609251" lon="0.947074">
        <ele>2328.057</ele>
        <time>2022-03-19T12:44:46Z</time>
      </trkpt>
      <trkpt lat="42.609263" lon="0.946997">
        <ele>2328.022</ele>
        <time>2022-03-19T12:44:48Z</time>
      </trkpt>
      <trkpt lat="42.609301" lon="0.946819">
        <ele>2327.208</ele>
        <time>2022-03-19T12:45:08Z</time>
      </trkpt>
      <trkpt lat="42.609334" lon="0.946679">
        <ele>2326.248</ele>
        <time>2022-03-19T12:45:23Z</time>
      </trkpt>
      <trkpt lat="42.609361" lon="0.946611">
        <ele>2325.516</ele>
        <time>2022-03-19T12:45:28Z</time>
      </trkpt>
      <trkpt lat="42.609388" lon="0.946548">
        <ele>2325.078</ele>
        <time>2022-03-19T12:45:32Z</time>
      </trkpt>
      <trkpt lat="42.609415" lon="0.946493">
        <ele>2325.717</ele>
        <time>2022-03-19T12:45:35Z</time>
      </trkpt>
      <trkpt lat="42.609435" lon="0.946425">
        <ele>2325.845</ele>
        <time>2022-03-19T12:45:38Z</time>
      </trkpt>
      <trkpt lat="42.609460" lon="0.946365">
        <ele>2325.297</ele>
        <time>2022-03-19T12:45:40Z</time>
      </trkpt>
      <trkpt lat="42.609488" lon="0.946292">
        <ele>2324.634</ele>
        <time>2022-03-19T12:45:42Z</time>
      </trkpt>
      <trkpt lat="42.609511" lon="0.946207">
        <ele>2324.198</ele>
        <time>2022-03-19T12:45:44Z</time>
      </trkpt>
      <trkpt lat="42.609533" lon="0.946129">
        <ele>2323.911</ele>
        <time>2022-03-19T12:45:46Z</time>
      </trkpt>
      <trkpt lat="42.609556" lon="0.946057">
        <ele>2323.821</ele>
        <time>2022-03-19T12:45:49Z</time>
      </trkpt>
      <trkpt lat="42.609571" lon="0.945984">
        <ele>2324.703</ele>
        <time>2022-03-19T12:45:53Z</time>
      </trkpt>
      <trkpt lat="42.609583" lon="0.945916">
        <ele>2324.708</ele>
        <time>2022-03-19T12:45:56Z</time>
      </trkpt>
      <trkpt lat="42.609598" lon="0.945831">
        <ele>2325.090</ele>
        <time>2022-03-19T12:45:58Z</time>
      </trkpt>
      <trkpt lat="42.609615" lon="0.945743">
        <ele>2324.998</ele>
        <time>2022-03-19T12:46:00Z</time>
      </trkpt>
      <trkpt lat="42.609627" lon="0.945655">
        <ele>2324.690</ele>
        <time>2022-03-19T12:46:02Z</time>
      </trkpt>
      <trkpt lat="42.609642" lon="0.945567">
        <ele>2324.179</ele>
        <time>2022-03-19T12:46:04Z</time>
      </trkpt>
      <trkpt lat="42.609652" lon="0.945470">
        <ele>2323.727</ele>
        <time>2022-03-19T12:46:06Z</time>
      </trkpt>
      <trkpt lat="42.609670" lon="0.945372">
        <ele>2322.489</ele>
        <time>2022-03-19T12:46:08Z</time>
      </trkpt>
      <trkpt lat="42.609692" lon="0.945304">
        <ele>2321.156</ele>
        <time>2022-03-19T12:46:10Z</time>
      </trkpt>
      <trkpt lat="42.609725" lon="0.945259">
        <ele>2319.680</ele>
        <time>2022-03-19T12:46:12Z</time>
      </trkpt>
      <trkpt lat="42.609772" lon="0.945197">
        <ele>2318.714</ele>
        <time>2022-03-19T12:46:14Z</time>
      </trkpt>
      <trkpt lat="42.609692" lon="0.945105">
        <ele>2315.954</ele>
        <time>2022-03-19T12:48:25Z</time>
      </trkpt>
      <trkpt lat="42.609680" lon="0.945008">
        <ele>2315.709</ele>
        <time>2022-03-19T12:48:27Z</time>
      </trkpt>
      <trkpt lat="42.609672" lon="0.944943">
        <ele>2315.508</ele>
        <time>2022-03-19T12:48:28Z</time>
      </trkpt>
      <trkpt lat="42.609655" lon="0.944808">
        <ele>2315.030</ele>
        <time>2022-03-19T12:48:30Z</time>
      </trkpt>
      <trkpt lat="42.609647" lon="0.944733">
        <ele>2314.688</ele>
        <time>2022-03-19T12:48:31Z</time>
      </trkpt>
      <trkpt lat="42.609637" lon="0.944660">
        <ele>2314.460</ele>
        <time>2022-03-19T12:48:32Z</time>
      </trkpt>
      <trkpt lat="42.609622" lon="0.944535">
        <ele>2313.469</ele>
        <time>2022-03-19T12:48:34Z</time>
      </trkpt>
      <trkpt lat="42.609604" lon="0.944433">
        <ele>2312.747</ele>
        <time>2022-03-19T12:48:36Z</time>
      </trkpt>
      <trkpt lat="42.609592" lon="0.944336">
        <ele>2312.489</ele>
        <time>2022-03-19T12:48:38Z</time>
      </trkpt>
      <trkpt lat="42.609582" lon="0.944246">
        <ele>2313.116</ele>
        <time>2022-03-19T12:48:40Z</time>
      </trkpt>
      <trkpt lat="42.609572" lon="0.944181">
        <ele>2314.140</ele>
        <time>2022-03-19T12:48:42Z</time>
      </trkpt>
      <trkpt lat="42.609570" lon="0.944111">
        <ele>2312.716</ele>
        <time>2022-03-19T12:48:44Z</time>
      </trkpt>
      <trkpt lat="42.609570" lon="0.944018">
        <ele>2311.676</ele>
        <time>2022-03-19T12:48:46Z</time>
      </trkpt>
      <trkpt lat="42.609562" lon="0.943928">
        <ele>2311.213</ele>
        <time>2022-03-19T12:48:48Z</time>
      </trkpt>
      <trkpt lat="42.609530" lon="0.943873">
        <ele>2311.408</ele>
        <time>2022-03-19T12:48:50Z</time>
      </trkpt>
      <trkpt lat="42.609507" lon="0.943785">
        <ele>2310.960</ele>
        <time>2022-03-19T12:48:53Z</time>
      </trkpt>
      <trkpt lat="42.609489" lon="0.943703">
        <ele>2309.468</ele>
        <time>2022-03-19T12:48:55Z</time>
      </trkpt>
      <trkpt lat="42.609499" lon="0.943633">
        <ele>2308.090</ele>
        <time>2022-03-19T12:48:58Z</time>
      </trkpt>
      <trkpt lat="42.609457" lon="0.943453">
        <ele>2302.129</ele>
        <time>2022-03-19T12:50:46Z</time>
      </trkpt>
      <trkpt lat="42.609447" lon="0.943388">
        <ele>2302.067</ele>
        <time>2022-03-19T12:50:48Z</time>
      </trkpt>
      <trkpt lat="42.609419" lon="0.943263">
        <ele>2301.419</ele>
        <time>2022-03-19T12:50:50Z</time>
      </trkpt>
      <trkpt lat="42.609399" lon="0.943121">
        <ele>2300.826</ele>
        <time>2022-03-19T12:50:52Z</time>
      </trkpt>
      <trkpt lat="42.609397" lon="0.943043">
        <ele>2300.610</ele>
        <time>2022-03-19T12:50:54Z</time>
      </trkpt>
      <trkpt lat="42.609414" lon="0.942978">
        <ele>2299.774</ele>
        <time>2022-03-19T12:50:57Z</time>
      </trkpt>
      <trkpt lat="42.609419" lon="0.942916">
        <ele>2298.656</ele>
        <time>2022-03-19T12:50:59Z</time>
      </trkpt>
      <trkpt lat="42.609419" lon="0.942803">
        <ele>2298.121</ele>
        <time>2022-03-19T12:51:01Z</time>
      </trkpt>
      <trkpt lat="42.609426" lon="0.942733">
        <ele>2297.808</ele>
        <time>2022-03-19T12:51:02Z</time>
      </trkpt>
      <trkpt lat="42.609438" lon="0.942663">
        <ele>2297.486</ele>
        <time>2022-03-19T12:51:03Z</time>
      </trkpt>
      <trkpt lat="42.609451" lon="0.942596">
        <ele>2297.144</ele>
        <time>2022-03-19T12:51:04Z</time>
      </trkpt>
      <trkpt lat="42.609471" lon="0.942504">
        <ele>2296.596</ele>
        <time>2022-03-19T12:51:06Z</time>
      </trkpt>
      <trkpt lat="42.609481" lon="0.942427">
        <ele>2295.835</ele>
        <time>2022-03-19T12:51:09Z</time>
      </trkpt>
      <trkpt lat="42.609423" lon="0.942387">
        <ele>2294.413</ele>
        <time>2022-03-19T12:53:16Z</time>
      </trkpt>
      <trkpt lat="42.609393" lon="0.942319">
        <ele>2294.275</ele>
        <time>2022-03-19T12:53:18Z</time>
      </trkpt>
      <trkpt lat="42.609346" lon="0.942202">
        <ele>2293.882</ele>
        <time>2022-03-19T12:53:20Z</time>
      </trkpt>
      <trkpt lat="42.609293" lon="0.942054">
        <ele>2293.096</ele>
        <time>2022-03-19T12:53:22Z</time>
      </trkpt>
      <trkpt lat="42.609251" lon="0.941879">
        <ele>2292.546</ele>
        <time>2022-03-19T12:53:24Z</time>
      </trkpt>
      <trkpt lat="42.609244" lon="0.941796">
        <ele>2292.188</ele>
        <time>2022-03-19T12:53:25Z</time>
      </trkpt>
      <trkpt lat="42.609252" lon="0.941721">
        <ele>2291.616</ele>
        <time>2022-03-19T12:53:26Z</time>
      </trkpt>
      <trkpt lat="42.609300" lon="0.941591">
        <ele>2290.908</ele>
        <time>2022-03-19T12:53:28Z</time>
      </trkpt>
      <trkpt lat="42.609358" lon="0.941493">
        <ele>2289.543</ele>
        <time>2022-03-19T12:53:30Z</time>
      </trkpt>
      <trkpt lat="42.609421" lon="0.941365">
        <ele>2286.991</ele>
        <time>2022-03-19T12:53:32Z</time>
      </trkpt>
      <trkpt lat="42.609488" lon="0.941215">
        <ele>2286.333</ele>
        <time>2022-03-19T12:53:34Z</time>
      </trkpt>
      <trkpt lat="42.609551" lon="0.941087">
        <ele>2286.262</ele>
        <time>2022-03-19T12:53:36Z</time>
      </trkpt>
      <trkpt lat="42.609586" lon="0.941037">
        <ele>2285.540</ele>
        <time>2022-03-19T12:53:37Z</time>
      </trkpt>
      <trkpt lat="42.609624" lon="0.940990">
        <ele>2284.362</ele>
        <time>2022-03-19T12:53:38Z</time>
      </trkpt>
      <trkpt lat="42.609707" lon="0.940905">
        <ele>2282.559</ele>
        <time>2022-03-19T12:53:40Z</time>
      </trkpt>
      <trkpt lat="42.609792" lon="0.940885">
        <ele>2280.363</ele>
        <time>2022-03-19T12:53:42Z</time>
      </trkpt>
      <trkpt lat="42.609865" lon="0.940885">
        <ele>2278.423</ele>
        <time>2022-03-19T12:53:44Z</time>
      </trkpt>
      <trkpt lat="42.609940" lon="0.940880">
        <ele>2276.583</ele>
        <time>2022-03-19T12:53:46Z</time>
      </trkpt>
      <trkpt lat="42.610010" lon="0.940868">
        <ele>2275.511</ele>
        <time>2022-03-19T12:53:48Z</time>
      </trkpt>
      <trkpt lat="42.610095" lon="0.940848">
        <ele>2274.508</ele>
        <time>2022-03-19T12:53:50Z</time>
      </trkpt>
      <trkpt lat="42.610197" lon="0.940808">
        <ele>2273.921</ele>
        <time>2022-03-19T12:53:52Z</time>
      </trkpt>
      <trkpt lat="42.610329" lon="0.940793">
        <ele>2272.639</ele>
        <time>2022-03-19T12:53:54Z</time>
      </trkpt>
      <trkpt lat="42.610416" lon="0.940796">
        <ele>2272.171</ele>
        <time>2022-03-19T12:53:55Z</time>
      </trkpt>
      <trkpt lat="42.610504" lon="0.940796">
        <ele>2272.070</ele>
        <time>2022-03-19T12:53:56Z</time>
      </trkpt>
      <trkpt lat="42.610592" lon="0.940791">
        <ele>2272.768</ele>
        <time>2022-03-19T12:53:57Z</time>
      </trkpt>
      <trkpt lat="42.610662" lon="0.940776">
        <ele>2272.740</ele>
        <time>2022-03-19T12:53:58Z</time>
      </trkpt>
      <trkpt lat="42.610790" lon="0.940753">
        <ele>2272.937</ele>
        <time>2022-03-19T12:54:00Z</time>
      </trkpt>
      <trkpt lat="42.610855" lon="0.940750">
        <ele>2272.831</ele>
        <time>2022-03-19T12:54:01Z</time>
      </trkpt>
      <trkpt lat="42.610995" lon="0.940737">
        <ele>2272.295</ele>
        <time>2022-03-19T12:54:03Z</time>
      </trkpt>
      <trkpt lat="42.611063" lon="0.940720">
        <ele>2271.749</ele>
        <time>2022-03-19T12:54:04Z</time>
      </trkpt>
      <trkpt lat="42.611195" lon="0.940668">
        <ele>2270.823</ele>
        <time>2022-03-19T12:54:06Z</time>
      </trkpt>
      <trkpt lat="42.611298" lon="0.940570">
        <ele>2269.908</ele>
        <time>2022-03-19T12:54:08Z</time>
      </trkpt>
      <trkpt lat="42.611370" lon="0.940442">
        <ele>2269.668</ele>
        <time>2022-03-19T12:54:10Z</time>
      </trkpt>
      <trkpt lat="42.611415" lon="0.940337">
        <ele>2268.456</ele>
        <time>2022-03-19T12:54:12Z</time>
      </trkpt>
      <trkpt lat="42.611450" lon="0.940272">
        <ele>2267.598</ele>
        <time>2022-03-19T12:54:14Z</time>
      </trkpt>
      <trkpt lat="42.611480" lon="0.940225">
        <ele>2267.327</ele>
        <time>2022-03-19T12:54:16Z</time>
      </trkpt>
      <trkpt lat="42.611525" lon="0.940183">
        <ele>2267.515</ele>
        <time>2022-03-19T12:54:18Z</time>
      </trkpt>
      <trkpt lat="42.611567" lon="0.940153">
        <ele>2267.237</ele>
        <time>2022-03-19T12:54:20Z</time>
      </trkpt>
      <trkpt lat="42.611612" lon="0.940118">
        <ele>2266.944</ele>
        <time>2022-03-19T12:54:23Z</time>
      </trkpt>
      <trkpt lat="42.611659" lon="0.940081">
        <ele>2266.528</ele>
        <time>2022-03-19T12:54:26Z</time>
      </trkpt>
      <trkpt lat="42.611699" lon="0.940049">
        <ele>2266.452</ele>
        <time>2022-03-19T12:54:29Z</time>
      </trkpt>
      <trkpt lat="42.611827" lon="0.939989">
        <ele>2268.053</ele>
        <time>2022-03-19T12:54:44Z</time>
      </trkpt>
      <trkpt lat="42.611877" lon="0.939959">
        <ele>2268.408</ele>
        <time>2022-03-19T12:54:47Z</time>
      </trkpt>
      <trkpt lat="42.611925" lon="0.939932">
        <ele>2268.508</ele>
        <time>2022-03-19T12:54:49Z</time>
      </trkpt>
      <trkpt lat="42.611985" lon="0.939905">
        <ele>2267.764</ele>
        <time>2022-03-19T12:54:52Z</time>
      </trkpt>
      <trkpt lat="42.612095" lon="0.939862">
        <ele>2269.152</ele>
        <time>2022-03-19T12:55:05Z</time>
      </trkpt>
      <trkpt lat="42.612147" lon="0.939855">
        <ele>2270.474</ele>
        <time>2022-03-19T12:55:09Z</time>
      </trkpt>
      <trkpt lat="42.612227" lon="0.939793">
        <ele>2270.193</ele>
        <time>2022-03-19T12:55:20Z</time>
      </trkpt>
      <trkpt lat="42.612310" lon="0.939776">
        <ele>2269.661</ele>
        <time>2022-03-19T12:55:22Z</time>
      </trkpt>
      <trkpt lat="42.612407" lon="0.939783">
        <ele>2268.933</ele>
        <time>2022-03-19T12:55:24Z</time>
      </trkpt>
      <trkpt lat="42.612460" lon="0.939776">
        <ele>2267.780</ele>
        <time>2022-03-19T12:55:26Z</time>
      </trkpt>
      <trkpt lat="42.612522" lon="0.939799">
        <ele>2266.154</ele>
        <time>2022-03-19T12:56:45Z</time>
      </trkpt>
      <trkpt lat="42.612599" lon="0.939797">
        <ele>2264.876</ele>
        <time>2022-03-19T12:56:54Z</time>
      </trkpt>
      <trkpt lat="42.612659" lon="0.939755">
        <ele>2263.490</ele>
        <time>2022-03-19T12:56:56Z</time>
      </trkpt>
      <trkpt lat="42.612727" lon="0.939727">
        <ele>2261.619</ele>
        <time>2022-03-19T12:56:58Z</time>
      </trkpt>
      <trkpt lat="42.612775" lon="0.939707">
        <ele>2260.308</ele>
        <time>2022-03-19T12:57:00Z</time>
      </trkpt>
      <trkpt lat="42.612818" lon="0.939689">
        <ele>2259.356</ele>
        <time>2022-03-19T12:57:02Z</time>
      </trkpt>
      <trkpt lat="42.612868" lon="0.939661">
        <ele>2257.674</ele>
        <time>2022-03-19T12:57:05Z</time>
      </trkpt>
      <trkpt lat="42.612920" lon="0.939606">
        <ele>2255.976</ele>
        <time>2022-03-19T12:57:57Z</time>
      </trkpt>
      <trkpt lat="42.612972" lon="0.939554">
        <ele>2255.295</ele>
        <time>2022-03-19T12:57:59Z</time>
      </trkpt>
      <trkpt lat="42.613029" lon="0.939482">
        <ele>2254.753</ele>
        <time>2022-03-19T12:58:01Z</time>
      </trkpt>
      <trkpt lat="42.613081" lon="0.939412">
        <ele>2253.545</ele>
        <time>2022-03-19T12:58:03Z</time>
      </trkpt>
      <trkpt lat="42.613143" lon="0.939342">
        <ele>2251.992</ele>
        <time>2022-03-19T12:58:05Z</time>
      </trkpt>
      <trkpt lat="42.613216" lon="0.939277">
        <ele>2250.766</ele>
        <time>2022-03-19T12:58:07Z</time>
      </trkpt>
      <trkpt lat="42.613266" lon="0.939250">
        <ele>2250.066</ele>
        <time>2022-03-19T12:58:08Z</time>
      </trkpt>
      <trkpt lat="42.613331" lon="0.939232">
        <ele>2249.729</ele>
        <time>2022-03-19T12:58:09Z</time>
      </trkpt>
      <trkpt lat="42.613396" lon="0.939225">
        <ele>2249.421</ele>
        <time>2022-03-19T12:58:10Z</time>
      </trkpt>
      <trkpt lat="42.613546" lon="0.939288">
        <ele>2248.708</ele>
        <time>2022-03-19T12:58:12Z</time>
      </trkpt>
      <trkpt lat="42.613604" lon="0.939351">
        <ele>2248.065</ele>
        <time>2022-03-19T12:58:13Z</time>
      </trkpt>
      <trkpt lat="42.613631" lon="0.939411">
        <ele>2247.813</ele>
        <time>2022-03-19T12:58:14Z</time>
      </trkpt>
      <trkpt lat="42.613634" lon="0.939511">
        <ele>2247.075</ele>
        <time>2022-03-19T12:58:16Z</time>
      </trkpt>
      <trkpt lat="42.613582" lon="0.939573">
        <ele>2246.514</ele>
        <time>2022-03-19T12:58:18Z</time>
      </trkpt>
      <trkpt lat="42.613547" lon="0.939630">
        <ele>2246.162</ele>
        <time>2022-03-19T12:58:20Z</time>
      </trkpt>
      <trkpt lat="42.613527" lon="0.939685">
        <ele>2245.894</ele>
        <time>2022-03-19T12:58:22Z</time>
      </trkpt>
      <trkpt lat="42.613509" lon="0.939757">
        <ele>2246.181</ele>
        <time>2022-03-19T12:58:25Z</time>
      </trkpt>
      <trkpt lat="42.613502" lon="0.939835">
        <ele>2247.055</ele>
        <time>2022-03-19T12:58:28Z</time>
      </trkpt>
      <trkpt lat="42.613534" lon="0.939887">
        <ele>2246.931</ele>
        <time>2022-03-19T12:59:30Z</time>
      </trkpt>
      <trkpt lat="42.613566" lon="0.939935">
        <ele>2246.761</ele>
        <time>2022-03-19T12:59:33Z</time>
      </trkpt>
      <trkpt lat="42.613616" lon="0.940013">
        <ele>2246.407</ele>
        <time>2022-03-19T12:59:40Z</time>
      </trkpt>
      <trkpt lat="42.613644" lon="0.940063">
        <ele>2246.508</ele>
        <time>2022-03-19T12:59:42Z</time>
      </trkpt>
      <trkpt lat="42.613702" lon="0.940111">
        <ele>2246.322</ele>
        <time>2022-03-19T12:59:44Z</time>
      </trkpt>
      <trkpt lat="42.613774" lon="0.940144">
        <ele>2245.850</ele>
        <time>2022-03-19T12:59:46Z</time>
      </trkpt>
      <trkpt lat="42.613862" lon="0.940167">
        <ele>2244.492</ele>
        <time>2022-03-19T12:59:54Z</time>
      </trkpt>
      <trkpt lat="42.613929" lon="0.940179">
        <ele>2243.981</ele>
        <time>2022-03-19T12:59:58Z</time>
      </trkpt>
      <trkpt lat="42.613976" lon="0.940176">
        <ele>2243.679</ele>
        <time>2022-03-19T13:00:00Z</time>
      </trkpt>
      <trkpt lat="42.614023" lon="0.940174">
        <ele>2243.071</ele>
        <time>2022-03-19T13:00:02Z</time>
      </trkpt>
      <trkpt lat="42.614068" lon="0.940174">
        <ele>2242.348</ele>
        <time>2022-03-19T13:00:04Z</time>
      </trkpt>
      <trkpt lat="42.614128" lon="0.940169">
        <ele>2241.642</ele>
        <time>2022-03-19T13:00:06Z</time>
      </trkpt>
      <trkpt lat="42.614190" lon="0.940161">
        <ele>2241.426</ele>
        <time>2022-03-19T13:00:08Z</time>
      </trkpt>
      <trkpt lat="42.614247" lon="0.940156">
        <ele>2241.447</ele>
        <time>2022-03-19T13:00:10Z</time>
      </trkpt>
      <trkpt lat="42.614292" lon="0.940148">
        <ele>2241.511</ele>
        <time>2022-03-19T13:00:13Z</time>
      </trkpt>
      <trkpt lat="42.614345" lon="0.940121">
        <ele>2240.808</ele>
        <time>2022-03-19T13:00:17Z</time>
      </trkpt>
      <trkpt lat="42.614400" lon="0.940086">
        <ele>2240.561</ele>
        <time>2022-03-19T13:00:21Z</time>
      </trkpt>
      <trkpt lat="42.614495" lon="0.940014">
        <ele>2238.849</ele>
        <time>2022-03-19T13:00:34Z</time>
      </trkpt>
      <trkpt lat="42.614542" lon="0.939957">
        <ele>2237.831</ele>
        <time>2022-03-19T13:00:39Z</time>
      </trkpt>
      <trkpt lat="42.614592" lon="0.939905">
        <ele>2237.030</ele>
        <time>2022-03-19T13:00:43Z</time>
      </trkpt>
      <trkpt lat="42.614630" lon="0.939828">
        <ele>2236.458</ele>
        <time>2022-03-19T13:00:46Z</time>
      </trkpt>
      <trkpt lat="42.614672" lon="0.939755">
        <ele>2236.890</ele>
        <time>2022-03-19T13:00:48Z</time>
      </trkpt>
      <trkpt lat="42.614715" lon="0.939695">
        <ele>2236.687</ele>
        <time>2022-03-19T13:00:50Z</time>
      </trkpt>
      <trkpt lat="42.614755" lon="0.939645">
        <ele>2235.971</ele>
        <time>2022-03-19T13:00:52Z</time>
      </trkpt>
      <trkpt lat="42.614795" lon="0.939598">
        <ele>2235.038</ele>
        <time>2022-03-19T13:00:54Z</time>
      </trkpt>
      <trkpt lat="42.614837" lon="0.939555">
        <ele>2233.970</ele>
        <time>2022-03-19T13:00:56Z</time>
      </trkpt>
      <trkpt lat="42.614882" lon="0.939508">
        <ele>2232.817</ele>
        <time>2022-03-19T13:00:58Z</time>
      </trkpt>
      <trkpt lat="42.614932" lon="0.939448">
        <ele>2232.208</ele>
        <time>2022-03-19T13:01:00Z</time>
      </trkpt>
      <trkpt lat="42.614975" lon="0.939383">
        <ele>2232.272</ele>
        <time>2022-03-19T13:01:02Z</time>
      </trkpt>
      <trkpt lat="42.615018" lon="0.939336">
        <ele>2232.550</ele>
        <time>2022-03-19T13:01:05Z</time>
      </trkpt>
      <trkpt lat="42.615081" lon="0.939303">
        <ele>2232.582</ele>
        <time>2022-03-19T13:01:11Z</time>
      </trkpt>
      <trkpt lat="42.615131" lon="0.939273">
        <ele>2233.041</ele>
        <time>2022-03-19T13:01:13Z</time>
      </trkpt>
      <trkpt lat="42.615179" lon="0.939235">
        <ele>2232.699</ele>
        <time>2022-03-19T13:01:15Z</time>
      </trkpt>
      <trkpt lat="42.615219" lon="0.939198">
        <ele>2232.211</ele>
        <time>2022-03-19T13:01:17Z</time>
      </trkpt>
      <trkpt lat="42.615337" lon="0.939111">
        <ele>2230.558</ele>
        <time>2022-03-19T13:01:38Z</time>
      </trkpt>
      <trkpt lat="42.615469" lon="0.939093">
        <ele>2230.212</ele>
        <time>2022-03-19T13:01:58Z</time>
      </trkpt>
      <trkpt lat="42.615534" lon="0.939096">
        <ele>2230.839</ele>
        <time>2022-03-19T13:02:01Z</time>
      </trkpt>
      <trkpt lat="42.615587" lon="0.939101">
        <ele>2231.101</ele>
        <time>2022-03-19T13:02:04Z</time>
      </trkpt>
      <trkpt lat="42.615635" lon="0.939104">
        <ele>2230.821</ele>
        <time>2022-03-19T13:02:08Z</time>
      </trkpt>
      <trkpt lat="42.615693" lon="0.939111">
        <ele>2231.708</ele>
        <time>2022-03-19T13:02:12Z</time>
      </trkpt>
      <trkpt lat="42.615741" lon="0.939108">
        <ele>2232.392</ele>
        <time>2022-03-19T13:02:15Z</time>
      </trkpt>
      <trkpt lat="42.615799" lon="0.939091">
        <ele>2232.830</ele>
        <time>2022-03-19T13:02:18Z</time>
      </trkpt>
      <trkpt lat="42.615862" lon="0.939079">
        <ele>2233.132</ele>
        <time>2022-03-19T13:02:21Z</time>
      </trkpt>
      <trkpt lat="42.615907" lon="0.939071">
        <ele>2233.651</ele>
        <time>2022-03-19T13:02:23Z</time>
      </trkpt>
      <trkpt lat="42.615952" lon="0.939061">
        <ele>2233.939</ele>
        <time>2022-03-19T13:02:25Z</time>
      </trkpt>
      <trkpt lat="42.615995" lon="0.939041">
        <ele>2233.931</ele>
        <time>2022-03-19T13:02:27Z</time>
      </trkpt>
      <trkpt lat="42.616038" lon="0.939018">
        <ele>2233.558</ele>
        <time>2022-03-19T13:02:29Z</time>
      </trkpt>
      <trkpt lat="42.616086" lon="0.938990">
        <ele>2232.932</ele>
        <time>2022-03-19T13:02:31Z</time>
      </trkpt>
      <trkpt lat="42.616143" lon="0.938952">
        <ele>2233.231</ele>
        <time>2022-03-19T13:02:33Z</time>
      </trkpt>
      <trkpt lat="42.616196" lon="0.938920">
        <ele>2233.361</ele>
        <time>2022-03-19T13:02:35Z</time>
      </trkpt>
      <trkpt lat="42.616251" lon="0.938893">
        <ele>2233.607</ele>
        <time>2022-03-19T13:02:37Z</time>
      </trkpt>
      <trkpt lat="42.616309" lon="0.938870">
        <ele>2233.008</ele>
        <time>2022-03-19T13:02:39Z</time>
      </trkpt>
      <trkpt lat="42.616374" lon="0.938845">
        <ele>2233.032</ele>
        <time>2022-03-19T13:02:41Z</time>
      </trkpt>
      <trkpt lat="42.616446" lon="0.938820">
        <ele>2233.490</ele>
        <time>2022-03-19T13:02:43Z</time>
      </trkpt>
      <trkpt lat="42.616516" lon="0.938793">
        <ele>2233.592</ele>
        <time>2022-03-19T13:02:45Z</time>
      </trkpt>
      <trkpt lat="42.616588" lon="0.938771">
        <ele>2232.661</ele>
        <time>2022-03-19T13:02:47Z</time>
      </trkpt>
      <trkpt lat="42.616668" lon="0.938751">
        <ele>2232.279</ele>
        <time>2022-03-19T13:02:49Z</time>
      </trkpt>
      <trkpt lat="42.616760" lon="0.938734">
        <ele>2231.751</ele>
        <time>2022-03-19T13:02:51Z</time>
      </trkpt>
      <trkpt lat="42.616827" lon="0.938721">
        <ele>2230.788</ele>
        <time>2022-03-19T13:02:53Z</time>
      </trkpt>
      <trkpt lat="42.616879" lon="0.938693">
        <ele>2229.412</ele>
        <time>2022-03-19T13:02:56Z</time>
      </trkpt>
      <trkpt lat="42.616932" lon="0.938671">
        <ele>2227.671</ele>
        <time>2022-03-19T13:03:01Z</time>
      </trkpt>
      <trkpt lat="42.617007" lon="0.938654">
        <ele>2226.341</ele>
        <time>2022-03-19T13:03:04Z</time>
      </trkpt>
      <trkpt lat="42.617072" lon="0.938634">
        <ele>2225.515</ele>
        <time>2022-03-19T13:03:06Z</time>
      </trkpt>
      <trkpt lat="42.617134" lon="0.938602">
        <ele>2224.808</ele>
        <time>2022-03-19T13:03:08Z</time>
      </trkpt>
      <trkpt lat="42.617199" lon="0.938574">
        <ele>2224.166</ele>
        <time>2022-03-19T13:03:10Z</time>
      </trkpt>
      <trkpt lat="42.617259" lon="0.938559">
        <ele>2223.124</ele>
        <time>2022-03-19T13:03:12Z</time>
      </trkpt>
      <trkpt lat="42.617319" lon="0.938559">
        <ele>2223.726</ele>
        <time>2022-03-19T13:03:15Z</time>
      </trkpt>
      <trkpt lat="42.617372" lon="0.938557">
        <ele>2224.255</ele>
        <time>2022-03-19T13:03:17Z</time>
      </trkpt>
      <trkpt lat="42.617427" lon="0.938527">
        <ele>2223.263</ele>
        <time>2022-03-19T13:03:19Z</time>
      </trkpt>
      <trkpt lat="42.617475" lon="0.938415">
        <ele>2225.065</ele>
        <time>2022-03-19T13:07:19Z</time>
      </trkpt>
      <trkpt lat="42.617528" lon="0.938385">
        <ele>2224.212</ele>
        <time>2022-03-19T13:07:21Z</time>
      </trkpt>
      <trkpt lat="42.617561" lon="0.938343">
        <ele>2223.736</ele>
        <time>2022-03-19T13:07:22Z</time>
      </trkpt>
      <trkpt lat="42.617589" lon="0.938198">
        <ele>2222.496</ele>
        <time>2022-03-19T13:07:24Z</time>
      </trkpt>
      <trkpt lat="42.617592" lon="0.938111">
        <ele>2221.831</ele>
        <time>2022-03-19T13:07:25Z</time>
      </trkpt>
      <trkpt lat="42.617602" lon="0.938016">
        <ele>2221.324</ele>
        <time>2022-03-19T13:07:26Z</time>
      </trkpt>
      <trkpt lat="42.617654" lon="0.937808">
        <ele>2219.308</ele>
        <time>2022-03-19T13:07:28Z</time>
      </trkpt>
      <trkpt lat="42.617692" lon="0.937645">
        <ele>2217.468</ele>
        <time>2022-03-19T13:07:30Z</time>
      </trkpt>
      <trkpt lat="42.617717" lon="0.937590">
        <ele>2216.836</ele>
        <time>2022-03-19T13:07:31Z</time>
      </trkpt>
      <trkpt lat="42.617770" lon="0.937590">
        <ele>2215.658</ele>
        <time>2022-03-19T13:07:32Z</time>
      </trkpt>
      <trkpt lat="42.617852" lon="0.937540">
        <ele>2213.837</ele>
        <time>2022-03-19T13:07:34Z</time>
      </trkpt>
      <trkpt lat="42.617912" lon="0.937470">
        <ele>2211.925</ele>
        <time>2022-03-19T13:07:36Z</time>
      </trkpt>
      <trkpt lat="42.617950" lon="0.937433">
        <ele>2210.347</ele>
        <time>2022-03-19T13:07:37Z</time>
      </trkpt>
      <trkpt lat="42.617988" lon="0.937383">
        <ele>2209.384</ele>
        <time>2022-03-19T13:07:38Z</time>
      </trkpt>
      <trkpt lat="42.618051" lon="0.937250">
        <ele>2208.198</ele>
        <time>2022-03-19T13:07:40Z</time>
      </trkpt>
      <trkpt lat="42.618111" lon="0.937122">
        <ele>2206.558</ele>
        <time>2022-03-19T13:07:42Z</time>
      </trkpt>
      <trkpt lat="42.618146" lon="0.937062">
        <ele>2205.052</ele>
        <time>2022-03-19T13:07:43Z</time>
      </trkpt>
      <trkpt lat="42.618178" lon="0.937004">
        <ele>2203.817</ele>
        <time>2022-03-19T13:07:44Z</time>
      </trkpt>
      <trkpt lat="42.618216" lon="0.936944">
        <ele>2202.308</ele>
        <time>2022-03-19T13:07:45Z</time>
      </trkpt>
      <trkpt lat="42.618254" lon="0.936886">
        <ele>2201.024</ele>
        <time>2022-03-19T13:07:46Z</time>
      </trkpt>
      <trkpt lat="42.618336" lon="0.936766">
        <ele>2198.782</ele>
        <time>2022-03-19T13:07:48Z</time>
      </trkpt>
      <trkpt lat="42.618383" lon="0.936706">
        <ele>2198.244</ele>
        <time>2022-03-19T13:07:49Z</time>
      </trkpt>
      <trkpt lat="42.618430" lon="0.936649">
        <ele>2197.273</ele>
        <time>2022-03-19T13:07:50Z</time>
      </trkpt>
      <trkpt lat="42.618515" lon="0.936536">
        <ele>2195.321</ele>
        <time>2022-03-19T13:07:52Z</time>
      </trkpt>
      <trkpt lat="42.618598" lon="0.936426">
        <ele>2192.683</ele>
        <time>2022-03-19T13:07:54Z</time>
      </trkpt>
      <trkpt lat="42.618640" lon="0.936368">
        <ele>2191.890</ele>
        <time>2022-03-19T13:07:55Z</time>
      </trkpt>
      <trkpt lat="42.618723" lon="0.936256">
        <ele>2190.984</ele>
        <time>2022-03-19T13:07:57Z</time>
      </trkpt>
      <trkpt lat="42.618756" lon="0.936208">
        <ele>2190.798</ele>
        <time>2022-03-19T13:07:58Z</time>
      </trkpt>
      <trkpt lat="42.618823" lon="0.936116">
        <ele>2190.015</ele>
        <time>2022-03-19T13:08:00Z</time>
      </trkpt>
      <trkpt lat="42.618891" lon="0.936034">
        <ele>2187.426</ele>
        <time>2022-03-19T13:08:02Z</time>
      </trkpt>
      <trkpt lat="42.618928" lon="0.935987">
        <ele>2187.108</ele>
        <time>2022-03-19T13:08:03Z</time>
      </trkpt>
      <trkpt lat="42.618970" lon="0.935947">
        <ele>2186.378</ele>
        <time>2022-03-19T13:08:04Z</time>
      </trkpt>
      <trkpt lat="42.619057" lon="0.935904">
        <ele>2185.136</ele>
        <time>2022-03-19T13:08:06Z</time>
      </trkpt>
      <trkpt lat="42.619134" lon="0.935874">
        <ele>2183.168</ele>
        <time>2022-03-19T13:08:08Z</time>
      </trkpt>
      <trkpt lat="42.619182" lon="0.935854">
        <ele>2184.027</ele>
        <time>2022-03-19T13:08:09Z</time>
      </trkpt>
      <trkpt lat="42.619255" lon="0.935816">
        <ele>2184.015</ele>
        <time>2022-03-19T13:08:11Z</time>
      </trkpt>
      <trkpt lat="42.619325" lon="0.935776">
        <ele>2185.167</ele>
        <time>2022-03-19T13:08:13Z</time>
      </trkpt>
      <trkpt lat="42.619368" lon="0.935751">
        <ele>2185.654</ele>
        <time>2022-03-19T13:08:14Z</time>
      </trkpt>
      <trkpt lat="42.619461" lon="0.935679">
        <ele>2184.188</ele>
        <time>2022-03-19T13:08:16Z</time>
      </trkpt>
      <trkpt lat="42.619574" lon="0.935591">
        <ele>2181.678</ele>
        <time>2022-03-19T13:08:18Z</time>
      </trkpt>
      <trkpt lat="42.619621" lon="0.935539">
        <ele>2180.633</ele>
        <time>2022-03-19T13:08:19Z</time>
      </trkpt>
      <trkpt lat="42.619669" lon="0.935491">
        <ele>2179.326</ele>
        <time>2022-03-19T13:08:20Z</time>
      </trkpt>
      <trkpt lat="42.619724" lon="0.935449">
        <ele>2178.408</ele>
        <time>2022-03-19T13:08:21Z</time>
      </trkpt>
      <trkpt lat="42.619784" lon="0.935419">
        <ele>2177.756</ele>
        <time>2022-03-19T13:08:22Z</time>
      </trkpt>
      <trkpt lat="42.619889" lon="0.935397">
        <ele>2176.124</ele>
        <time>2022-03-19T13:08:24Z</time>
      </trkpt>
      <trkpt lat="42.619937" lon="0.935392">
        <ele>2175.196</ele>
        <time>2022-03-19T13:08:25Z</time>
      </trkpt>
      <trkpt lat="42.620040" lon="0.935375">
        <ele>2173.595</ele>
        <time>2022-03-19T13:08:27Z</time>
      </trkpt>
      <trkpt lat="42.620097" lon="0.935363">
        <ele>2172.953</ele>
        <time>2022-03-19T13:08:28Z</time>
      </trkpt>
      <trkpt lat="42.620220" lon="0.935361">
        <ele>2172.325</ele>
        <time>2022-03-19T13:08:30Z</time>
      </trkpt>
      <trkpt lat="42.620272" lon="0.935373">
        <ele>2171.872</ele>
        <time>2022-03-19T13:08:31Z</time>
      </trkpt>
      <trkpt lat="42.620352" lon="0.935386">
        <ele>2170.546</ele>
        <time>2022-03-19T13:08:33Z</time>
      </trkpt>
      <trkpt lat="42.620397" lon="0.935389">
        <ele>2169.886</ele>
        <time>2022-03-19T13:08:35Z</time>
      </trkpt>
      <trkpt lat="42.620455" lon="0.935366">
        <ele>2169.760</ele>
        <time>2022-03-19T13:08:46Z</time>
      </trkpt>
      <trkpt lat="42.620503" lon="0.935343">
        <ele>2172.126</ele>
        <time>2022-03-19T13:08:49Z</time>
      </trkpt>
      <trkpt lat="42.620556" lon="0.935320">
        <ele>2172.908</ele>
        <time>2022-03-19T13:08:52Z</time>
      </trkpt>
      <trkpt lat="42.620609" lon="0.935280">
        <ele>2172.787</ele>
        <time>2022-03-19T13:08:55Z</time>
      </trkpt>
      <trkpt lat="42.620657" lon="0.935250">
        <ele>2171.965</ele>
        <time>2022-03-19T13:08:57Z</time>
      </trkpt>
      <trkpt lat="42.620700" lon="0.935213">
        <ele>2171.397</ele>
        <time>2022-03-19T13:08:59Z</time>
      </trkpt>
      <trkpt lat="42.620745" lon="0.935155">
        <ele>2169.696</ele>
        <time>2022-03-19T13:09:04Z</time>
      </trkpt>
      <trkpt lat="42.620792" lon="0.935100">
        <ele>2169.594</ele>
        <time>2022-03-19T13:09:07Z</time>
      </trkpt>
      <trkpt lat="42.620827" lon="0.935057">
        <ele>2169.726</ele>
        <time>2022-03-19T13:09:09Z</time>
      </trkpt>
      <trkpt lat="42.620872" lon="0.935004">
        <ele>2169.793</ele>
        <time>2022-03-19T13:09:12Z</time>
      </trkpt>
      <trkpt lat="42.620905" lon="0.934951">
        <ele>2170.087</ele>
        <time>2022-03-19T13:09:15Z</time>
      </trkpt>
      <trkpt lat="42.620915" lon="0.934876">
        <ele>2168.427</ele>
        <time>2022-03-19T13:11:19Z</time>
      </trkpt>
      <trkpt lat="42.620928" lon="0.934808">
        <ele>2168.268</ele>
        <time>2022-03-19T13:11:21Z</time>
      </trkpt>
      <trkpt lat="42.620948" lon="0.934721">
        <ele>2167.514</ele>
        <time>2022-03-19T13:11:24Z</time>
      </trkpt>
      <trkpt lat="42.620965" lon="0.934663">
        <ele>2167.508</ele>
        <time>2022-03-19T13:11:26Z</time>
      </trkpt>
      <trkpt lat="42.620985" lon="0.934586">
        <ele>2167.361</ele>
        <time>2022-03-19T13:11:28Z</time>
      </trkpt>
      <trkpt lat="42.621020" lon="0.934479">
        <ele>2166.749</ele>
        <time>2022-03-19T13:11:30Z</time>
      </trkpt>
      <trkpt lat="42.621045" lon="0.934421">
        <ele>2166.251</ele>
        <time>2022-03-19T13:11:31Z</time>
      </trkpt>
      <trkpt lat="42.621072" lon="0.934321">
        <ele>2166.050</ele>
        <time>2022-03-19T13:11:33Z</time>
      </trkpt>
      <trkpt lat="42.621112" lon="0.934236">
        <ele>2166.158</ele>
        <time>2022-03-19T13:11:35Z</time>
      </trkpt>
      <trkpt lat="42.621139" lon="0.934174">
        <ele>2166.330</ele>
        <time>2022-03-19T13:11:37Z</time>
      </trkpt>
      <trkpt lat="42.621172" lon="0.934116">
        <ele>2166.097</ele>
        <time>2022-03-19T13:11:39Z</time>
      </trkpt>
      <trkpt lat="42.621204" lon="0.934063">
        <ele>2165.781</ele>
        <time>2022-03-19T13:11:41Z</time>
      </trkpt>
      <trkpt lat="42.621239" lon="0.934020">
        <ele>2165.743</ele>
        <time>2022-03-19T13:11:43Z</time>
      </trkpt>
      <trkpt lat="42.621274" lon="0.933968">
        <ele>2165.064</ele>
        <time>2022-03-19T13:11:46Z</time>
      </trkpt>
      <trkpt lat="42.621351" lon="0.933810">
        <ele>2164.610</ele>
        <time>2022-03-19T13:12:05Z</time>
      </trkpt>
      <trkpt lat="42.621378" lon="0.933760">
        <ele>2164.608</ele>
        <time>2022-03-19T13:12:10Z</time>
      </trkpt>
      <trkpt lat="42.621420" lon="0.933685">
        <ele>2164.843</ele>
        <time>2022-03-19T13:12:16Z</time>
      </trkpt>
      <trkpt lat="42.621447" lon="0.933633">
        <ele>2165.461</ele>
        <time>2022-03-19T13:12:19Z</time>
      </trkpt>
      <trkpt lat="42.621479" lon="0.933575">
        <ele>2166.053</ele>
        <time>2022-03-19T13:12:22Z</time>
      </trkpt>
      <trkpt lat="42.621561" lon="0.933430">
        <ele>2168.282</ele>
        <time>2022-03-19T13:12:47Z</time>
      </trkpt>
      <trkpt lat="42.621636" lon="0.933323">
        <ele>2170.260</ele>
        <time>2022-03-19T13:13:06Z</time>
      </trkpt>
      <trkpt lat="42.621733" lon="0.933290">
        <ele>2172.112</ele>
        <time>2022-03-19T13:13:21Z</time>
      </trkpt>
      <trkpt lat="42.621828" lon="0.933202">
        <ele>2174.279</ele>
        <time>2022-03-19T13:13:42Z</time>
      </trkpt>
      <trkpt lat="42.621878" lon="0.933072">
        <ele>2176.453</ele>
        <time>2022-03-19T13:14:02Z</time>
      </trkpt>
      <trkpt lat="42.621901" lon="0.932965">
        <ele>2177.354</ele>
        <time>2022-03-19T13:14:10Z</time>
      </trkpt>
      <trkpt lat="42.621918" lon="0.932883">
        <ele>2176.756</ele>
        <time>2022-03-19T13:14:13Z</time>
      </trkpt>
      <trkpt lat="42.621931" lon="0.932691">
        <ele>2177.711</ele>
        <time>2022-03-19T13:14:35Z</time>
      </trkpt>
      <trkpt lat="42.621971" lon="0.932549">
        <ele>2179.008</ele>
        <time>2022-03-19T13:14:58Z</time>
      </trkpt>
      <trkpt lat="42.622009" lon="0.932407">
        <ele>2179.894</ele>
        <time>2022-03-19T13:15:14Z</time>
      </trkpt>
      <trkpt lat="42.622021" lon="0.932259">
        <ele>2180.612</ele>
        <time>2022-03-19T13:16:25Z</time>
      </trkpt>
      <trkpt lat="42.622011" lon="0.932116">
        <ele>2181.084</ele>
        <time>2022-03-19T13:16:44Z</time>
      </trkpt>
      <trkpt lat="42.622026" lon="0.931964">
        <ele>2180.453</ele>
        <time>2022-03-19T13:18:22Z</time>
      </trkpt>
      <trkpt lat="42.622053" lon="0.931811">
        <ele>2181.121</ele>
        <time>2022-03-19T13:18:43Z</time>
      </trkpt>
      <trkpt lat="42.622106" lon="0.931678">
        <ele>2182.343</ele>
        <time>2022-03-19T13:19:35Z</time>
      </trkpt>
      <trkpt lat="42.622128" lon="0.931601">
        <ele>2184.120</ele>
        <time>2022-03-19T13:21:02Z</time>
      </trkpt>
      <trkpt lat="42.622151" lon="0.931518">
        <ele>2184.414</ele>
        <time>2022-03-19T13:21:05Z</time>
      </trkpt>
      <trkpt lat="42.622169" lon="0.931450">
        <ele>2184.654</ele>
        <time>2022-03-19T13:21:08Z</time>
      </trkpt>
      <trkpt lat="42.622181" lon="0.931367">
        <ele>2185.156</ele>
        <time>2022-03-19T13:21:11Z</time>
      </trkpt>
      <trkpt lat="42.622189" lon="0.931295">
        <ele>2185.711</ele>
        <time>2022-03-19T13:21:14Z</time>
      </trkpt>
      <trkpt lat="42.622202" lon="0.931228">
        <ele>2185.608</ele>
        <time>2022-03-19T13:21:17Z</time>
      </trkpt>
      <trkpt lat="42.622220" lon="0.931146">
        <ele>2185.454</ele>
        <time>2022-03-19T13:21:23Z</time>
      </trkpt>
      <trkpt lat="42.622252" lon="0.931054">
        <ele>2186.732</ele>
        <time>2022-03-19T13:21:30Z</time>
      </trkpt>
      <trkpt lat="42.622299" lon="0.931024">
        <ele>2187.544</ele>
        <time>2022-03-19T13:21:32Z</time>
      </trkpt>
      <trkpt lat="42.622347" lon="0.930956">
        <ele>2188.723</ele>
        <time>2022-03-19T13:21:38Z</time>
      </trkpt>
      <trkpt lat="42.622367" lon="0.930893">
        <ele>2187.531</ele>
        <time>2022-03-19T13:21:42Z</time>
      </trkpt>
      <trkpt lat="42.622370" lon="0.930830">
        <ele>2186.453</ele>
        <time>2022-03-19T13:21:45Z</time>
      </trkpt>
      <trkpt lat="42.622380" lon="0.930745">
        <ele>2186.540</ele>
        <time>2022-03-19T13:21:49Z</time>
      </trkpt>
      <trkpt lat="42.622382" lon="0.930653">
        <ele>2186.564</ele>
        <time>2022-03-19T13:21:51Z</time>
      </trkpt>
      <trkpt lat="42.622384" lon="0.930588">
        <ele>2186.116</ele>
        <time>2022-03-19T13:21:53Z</time>
      </trkpt>
      <trkpt lat="42.622387" lon="0.930491">
        <ele>2187.176</ele>
        <time>2022-03-19T13:22:01Z</time>
      </trkpt>
      <trkpt lat="42.622385" lon="0.930424">
        <ele>2187.213</ele>
        <time>2022-03-19T13:22:04Z</time>
      </trkpt>
      <trkpt lat="42.622342" lon="0.930261">
        <ele>2189.508</ele>
        <time>2022-03-19T13:22:32Z</time>
      </trkpt>
      <trkpt lat="42.622234" lon="0.930243">
        <ele>2191.140</ele>
        <time>2022-03-19T13:23:32Z</time>
      </trkpt>
      <trkpt lat="42.622124" lon="0.930211">
        <ele>2192.388</ele>
        <time>2022-03-19T13:23:53Z</time>
      </trkpt>
      <trkpt lat="42.622067" lon="0.930076">
        <ele>2193.860</ele>
        <time>2022-03-19T13:24:26Z</time>
      </trkpt>
      <trkpt lat="42.622049" lon="0.929994">
        <ele>2193.419</ele>
        <time>2022-03-19T13:24:28Z</time>
      </trkpt>
      <trkpt lat="42.622049" lon="0.929924">
        <ele>2193.177</ele>
        <time>2022-03-19T13:24:31Z</time>
      </trkpt>
      <trkpt lat="42.622039" lon="0.929856">
        <ele>2193.319</ele>
        <time>2022-03-19T13:24:34Z</time>
      </trkpt>
      <trkpt lat="42.622051" lon="0.929773">
        <ele>2193.486</ele>
        <time>2022-03-19T13:24:37Z</time>
      </trkpt>
      <trkpt lat="42.622064" lon="0.929706">
        <ele>2193.850</ele>
        <time>2022-03-19T13:24:40Z</time>
      </trkpt>
      <trkpt lat="42.622077" lon="0.929643">
        <ele>2192.863</ele>
        <time>2022-03-19T13:24:45Z</time>
      </trkpt>
      <trkpt lat="42.622105" lon="0.929585">
        <ele>2191.944</ele>
        <time>2022-03-19T13:24:48Z</time>
      </trkpt>
      <trkpt lat="42.622133" lon="0.929522">
        <ele>2191.018</ele>
        <time>2022-03-19T13:24:51Z</time>
      </trkpt>
      <trkpt lat="42.622155" lon="0.929445">
        <ele>2190.108</ele>
        <time>2022-03-19T13:24:56Z</time>
      </trkpt>
      <trkpt lat="42.622172" lon="0.929382">
        <ele>2190.095</ele>
        <time>2022-03-19T13:24:58Z</time>
      </trkpt>
      <trkpt lat="42.622194" lon="0.929322">
        <ele>2190.283</ele>
        <time>2022-03-19T13:25:00Z</time>
      </trkpt>
      <trkpt lat="42.622216" lon="0.929255">
        <ele>2190.595</ele>
        <time>2022-03-19T13:25:03Z</time>
      </trkpt>
      <trkpt lat="42.622244" lon="0.929163">
        <ele>2189.954</ele>
        <time>2022-03-19T13:25:11Z</time>
      </trkpt>
      <trkpt lat="42.622327" lon="0.929008">
        <ele>2189.062</ele>
        <time>2022-03-19T13:25:28Z</time>
      </trkpt>
      <trkpt lat="42.622419" lon="0.928855">
        <ele>2188.134</ele>
        <time>2022-03-19T13:25:46Z</time>
      </trkpt>
      <trkpt lat="42.622441" lon="0.928697">
        <ele>2188.561</ele>
        <time>2022-03-19T13:26:02Z</time>
      </trkpt>
      <trkpt lat="42.622446" lon="0.928610">
        <ele>2189.265</ele>
        <time>2022-03-19T13:26:08Z</time>
      </trkpt>
      <trkpt lat="42.622453" lon="0.928545">
        <ele>2190.129</ele>
        <time>2022-03-19T13:26:11Z</time>
      </trkpt>
      <trkpt lat="42.622448" lon="0.928468">
        <ele>2191.200</ele>
        <time>2022-03-19T13:26:15Z</time>
      </trkpt>
      <trkpt lat="42.622366" lon="0.928315">
        <ele>2193.720</ele>
        <time>2022-03-19T13:26:30Z</time>
      </trkpt>
      <trkpt lat="42.622289" lon="0.928205">
        <ele>2195.208</ele>
        <time>2022-03-19T13:26:50Z</time>
      </trkpt>
      <trkpt lat="42.622134" lon="0.928048">
        <ele>2197.811</ele>
        <time>2022-03-19T13:27:12Z</time>
      </trkpt>
      <trkpt lat="42.622087" lon="0.928015">
        <ele>2198.679</ele>
        <time>2022-03-19T13:27:15Z</time>
      </trkpt>
      <trkpt lat="42.622057" lon="0.927938">
        <ele>2198.011</ele>
        <time>2022-03-19T13:28:34Z</time>
      </trkpt>
      <trkpt lat="42.622077" lon="0.927873">
        <ele>2197.640</ele>
        <time>2022-03-19T13:28:37Z</time>
      </trkpt>
      <trkpt lat="42.622080" lon="0.927795">
        <ele>2197.598</ele>
        <time>2022-03-19T13:28:40Z</time>
      </trkpt>
      <trkpt lat="42.622065" lon="0.927685">
        <ele>2200.970</ele>
        <time>2022-03-19T13:31:20Z</time>
      </trkpt>
      <trkpt lat="42.622077" lon="0.927622">
        <ele>2201.127</ele>
        <time>2022-03-19T13:31:23Z</time>
      </trkpt>
      <trkpt lat="42.622125" lon="0.927569">
        <ele>2199.311</ele>
        <time>2022-03-19T13:33:55Z</time>
      </trkpt>
      <trkpt lat="42.622148" lon="0.927514">
        <ele>2199.029</ele>
        <time>2022-03-19T13:33:57Z</time>
      </trkpt>
      <trkpt lat="42.622140" lon="0.927426">
        <ele>2198.100</ele>
        <time>2022-03-19T13:33:59Z</time>
      </trkpt>
      <trkpt lat="42.622153" lon="0.927313">
        <ele>2196.020</ele>
        <time>2022-03-19T13:34:01Z</time>
      </trkpt>
      <trkpt lat="42.622155" lon="0.927251">
        <ele>2195.208</ele>
        <time>2022-03-19T13:34:02Z</time>
      </trkpt>
      <trkpt lat="42.622173" lon="0.927103">
        <ele>2192.591</ele>
        <time>2022-03-19T13:34:04Z</time>
      </trkpt>
      <trkpt lat="42.622150" lon="0.926970">
        <ele>2189.979</ele>
        <time>2022-03-19T13:34:06Z</time>
      </trkpt>
      <trkpt lat="42.622065" lon="0.926847">
        <ele>2187.151</ele>
        <time>2022-03-19T13:34:08Z</time>
      </trkpt>
      <trkpt lat="42.622032" lon="0.926792">
        <ele>2184.130</ele>
        <time>2022-03-19T13:34:10Z</time>
      </trkpt>
      <trkpt lat="42.622057" lon="0.926682">
        <ele>2178.238</ele>
        <time>2022-03-19T13:34:13Z</time>
      </trkpt>
      <trkpt lat="42.622050" lon="0.926584">
        <ele>2175.860</ele>
        <time>2022-03-19T13:34:15Z</time>
      </trkpt>
      <trkpt lat="42.622027" lon="0.926502">
        <ele>2172.747</ele>
        <time>2022-03-19T13:34:18Z</time>
      </trkpt>
      <trkpt lat="42.622014" lon="0.926442">
        <ele>2171.561</ele>
        <time>2022-03-19T13:34:19Z</time>
      </trkpt>
      <trkpt lat="42.621972" lon="0.926264">
        <ele>2168.229</ele>
        <time>2022-03-19T13:34:21Z</time>
      </trkpt>
      <trkpt lat="42.621940" lon="0.926156">
        <ele>2166.300</ele>
        <time>2022-03-19T13:34:22Z</time>
      </trkpt>
      <trkpt lat="42.621873" lon="0.925983">
        <ele>2163.520</ele>
        <time>2022-03-19T13:34:24Z</time>
      </trkpt>
      <trkpt lat="42.621841" lon="0.925921">
        <ele>2162.208</ele>
        <time>2022-03-19T13:34:25Z</time>
      </trkpt>
      <trkpt lat="42.621731" lon="0.925854">
        <ele>2159.671</ele>
        <time>2022-03-19T13:36:14Z</time>
      </trkpt>
      <trkpt lat="42.621703" lon="0.925791">
        <ele>2159.889</ele>
        <time>2022-03-19T13:36:17Z</time>
      </trkpt>
      <trkpt lat="42.621681" lon="0.925733">
        <ele>2160.121</ele>
        <time>2022-03-19T13:36:19Z</time>
      </trkpt>
      <trkpt lat="42.621649" lon="0.925663">
        <ele>2160.430</ele>
        <time>2022-03-19T13:36:21Z</time>
      </trkpt>
      <trkpt lat="42.621607" lon="0.925585">
        <ele>2160.328</ele>
        <time>2022-03-19T13:36:23Z</time>
      </trkpt>
      <trkpt lat="42.621565" lon="0.925475">
        <ele>2159.590</ele>
        <time>2022-03-19T13:36:25Z</time>
      </trkpt>
      <trkpt lat="42.621508" lon="0.925367">
        <ele>2159.077</ele>
        <time>2022-03-19T13:36:27Z</time>
      </trkpt>
      <trkpt lat="42.621480" lon="0.925319">
        <ele>2158.851</ele>
        <time>2022-03-19T13:36:28Z</time>
      </trkpt>
      <trkpt lat="42.621425" lon="0.925229">
        <ele>2158.274</ele>
        <time>2022-03-19T13:36:30Z</time>
      </trkpt>
      <trkpt lat="42.621398" lon="0.925171">
        <ele>2158.056</ele>
        <time>2022-03-19T13:36:31Z</time>
      </trkpt>
      <trkpt lat="42.621366" lon="0.925088">
        <ele>2157.921</ele>
        <time>2022-03-19T13:36:32Z</time>
      </trkpt>
      <trkpt lat="42.621333" lon="0.924998">
        <ele>2157.808</ele>
        <time>2022-03-19T13:36:33Z</time>
      </trkpt>
      <trkpt lat="42.621315" lon="0.924890">
        <ele>2157.616</ele>
        <time>2022-03-19T13:36:34Z</time>
      </trkpt>
      <trkpt lat="42.621300" lon="0.924707">
        <ele>2157.244</ele>
        <time>2022-03-19T13:36:36Z</time>
      </trkpt>
      <trkpt lat="42.621288" lon="0.924639">
        <ele>2156.486</ele>
        <time>2022-03-19T13:36:38Z</time>
      </trkpt>
      <trkpt lat="42.621185" lon="0.924626">
        <ele>2148.115</ele>
        <time>2022-03-19T13:37:09Z</time>
      </trkpt>
      <trkpt lat="42.621085" lon="0.924599">
        <ele>2148.483</ele>
        <time>2022-03-19T13:37:31Z</time>
      </trkpt>
      <trkpt lat="42.621010" lon="0.924514">
        <ele>2149.495</ele>
        <time>2022-03-19T13:38:02Z</time>
      </trkpt>
      <trkpt lat="42.620925" lon="0.924427">
        <ele>2154.192</ele>
        <time>2022-03-19T13:38:34Z</time>
      </trkpt>
      <trkpt lat="42.620877" lon="0.924439">
        <ele>2155.036</ele>
        <time>2022-03-19T13:38:38Z</time>
      </trkpt>
      <trkpt lat="42.620829" lon="0.924412">
        <ele>2158.748</ele>
        <time>2022-03-19T13:38:43Z</time>
      </trkpt>
      <trkpt lat="42.620786" lon="0.924375">
        <ele>2160.861</ele>
        <time>2022-03-19T13:38:47Z</time>
      </trkpt>
      <trkpt lat="42.620786" lon="0.924220">
        <ele>2165.917</ele>
        <time>2022-03-19T13:39:14Z</time>
      </trkpt>
      <trkpt lat="42.620834" lon="0.924168">
        <ele>2164.708</ele>
        <time>2022-03-19T13:39:18Z</time>
      </trkpt>
      <trkpt lat="42.620902" lon="0.924165">
        <ele>2163.813</ele>
        <time>2022-03-19T13:39:20Z</time>
      </trkpt>
      <trkpt lat="42.620952" lon="0.924130">
        <ele>2162.681</ele>
        <time>2022-03-19T13:39:22Z</time>
      </trkpt>
      <trkpt lat="42.620952" lon="0.924063">
        <ele>2162.183</ele>
        <time>2022-03-19T13:39:24Z</time>
      </trkpt>
      <trkpt lat="42.621010" lon="0.924026">
        <ele>2160.752</ele>
        <time>2022-03-19T13:39:26Z</time>
      </trkpt>
      <trkpt lat="42.621045" lon="0.923981">
        <ele>2159.770</ele>
        <time>2022-03-19T13:39:28Z</time>
      </trkpt>
      <trkpt lat="42.620988" lon="0.923893">
        <ele>2158.992</ele>
        <time>2022-03-19T13:39:44Z</time>
      </trkpt>
      <trkpt lat="42.620936" lon="0.923785">
        <ele>2158.229</ele>
        <time>2022-03-19T13:39:46Z</time>
      </trkpt>
      <trkpt lat="42.620869" lon="0.923653">
        <ele>2157.783</ele>
        <time>2022-03-19T13:39:48Z</time>
      </trkpt>
      <trkpt lat="42.620846" lon="0.923571">
        <ele>2158.097</ele>
        <time>2022-03-19T13:39:50Z</time>
      </trkpt>
      <trkpt lat="42.620833" lon="0.923448">
        <ele>2156.023</ele>
        <time>2022-03-19T13:40:05Z</time>
      </trkpt>
      <trkpt lat="42.620833" lon="0.923383">
        <ele>2156.025</ele>
        <time>2022-03-19T13:40:06Z</time>
      </trkpt>
      <trkpt lat="42.620843" lon="0.923318">
        <ele>2155.708</ele>
        <time>2022-03-19T13:40:07Z</time>
      </trkpt>
      <trkpt lat="42.620841" lon="0.923233">
        <ele>2155.718</ele>
        <time>2022-03-19T13:40:09Z</time>
      </trkpt>
      <trkpt lat="42.620864" lon="0.923140">
        <ele>2154.266</ele>
        <time>2022-03-19T13:40:41Z</time>
      </trkpt>
      <trkpt lat="42.620902" lon="0.923102">
        <ele>2153.028</ele>
        <time>2022-03-19T13:40:43Z</time>
      </trkpt>
      <trkpt lat="42.620972" lon="0.923059">
        <ele>2151.047</ele>
        <time>2022-03-19T13:40:45Z</time>
      </trkpt>
      <trkpt lat="42.621012" lon="0.923014">
        <ele>2150.165</ele>
        <time>2022-03-19T13:40:46Z</time>
      </trkpt>
      <trkpt lat="42.621025" lon="0.922887">
        <ele>2148.127</ele>
        <time>2022-03-19T13:40:48Z</time>
      </trkpt>
      <trkpt lat="42.621043" lon="0.922785">
        <ele>2146.544</ele>
        <time>2022-03-19T13:40:50Z</time>
      </trkpt>
      <trkpt lat="42.621080" lon="0.922662">
        <ele>2145.048</ele>
        <time>2022-03-19T13:40:52Z</time>
      </trkpt>
      <trkpt lat="42.621110" lon="0.922544">
        <ele>2143.816</ele>
        <time>2022-03-19T13:40:54Z</time>
      </trkpt>
      <trkpt lat="42.621125" lon="0.922459">
        <ele>2143.276</ele>
        <time>2022-03-19T13:40:56Z</time>
      </trkpt>
      <trkpt lat="42.621153" lon="0.922357">
        <ele>2140.313</ele>
        <time>2022-03-19T13:41:12Z</time>
      </trkpt>
      <trkpt lat="42.621175" lon="0.922294">
        <ele>2140.408</ele>
        <time>2022-03-19T13:41:14Z</time>
      </trkpt>
      <trkpt lat="42.621197" lon="0.922237">
        <ele>2140.690</ele>
        <time>2022-03-19T13:41:16Z</time>
      </trkpt>
      <trkpt lat="42.621224" lon="0.922162">
        <ele>2140.678</ele>
        <time>2022-03-19T13:41:18Z</time>
      </trkpt>
      <trkpt lat="42.621251" lon="0.922080">
        <ele>2140.750</ele>
        <time>2022-03-19T13:41:20Z</time>
      </trkpt>
      <trkpt lat="42.621286" lon="0.921998">
        <ele>2140.419</ele>
        <time>2022-03-19T13:41:22Z</time>
      </trkpt>
      <trkpt lat="42.621338" lon="0.921875">
        <ele>2140.227</ele>
        <time>2022-03-19T13:42:12Z</time>
      </trkpt>
      <trkpt lat="42.621353" lon="0.921810">
        <ele>2140.499</ele>
        <time>2022-03-19T13:42:14Z</time>
      </trkpt>
      <trkpt lat="42.621356" lon="0.921735">
        <ele>2140.396</ele>
        <time>2022-03-19T13:42:16Z</time>
      </trkpt>
      <trkpt lat="42.621359" lon="0.921655">
        <ele>2140.170</ele>
        <time>2022-03-19T13:42:18Z</time>
      </trkpt>
      <trkpt lat="42.621376" lon="0.921553">
        <ele>2139.544</ele>
        <time>2022-03-19T13:42:20Z</time>
      </trkpt>
      <trkpt lat="42.621409" lon="0.921430">
        <ele>2138.805</ele>
        <time>2022-03-19T13:42:22Z</time>
      </trkpt>
      <trkpt lat="42.621451" lon="0.921322">
        <ele>2138.615</ele>
        <time>2022-03-19T13:42:24Z</time>
      </trkpt>
      <trkpt lat="42.621488" lon="0.921262">
        <ele>2138.408</ele>
        <time>2022-03-19T13:42:26Z</time>
      </trkpt>
      <trkpt lat="42.621525" lon="0.921204">
        <ele>2137.513</ele>
        <time>2022-03-19T13:42:29Z</time>
      </trkpt>
      <trkpt lat="42.621578" lon="0.921159">
        <ele>2137.151</ele>
        <time>2022-03-19T13:42:32Z</time>
      </trkpt>
      <trkpt lat="42.621656" lon="0.921087">
        <ele>2134.823</ele>
        <time>2022-03-19T13:43:12Z</time>
      </trkpt>
      <trkpt lat="42.621709" lon="0.921035">
        <ele>2134.112</ele>
        <time>2022-03-19T13:43:15Z</time>
      </trkpt>
      <trkpt lat="42.621749" lon="0.920998">
        <ele>2133.520</ele>
        <time>2022-03-19T13:43:18Z</time>
      </trkpt>
      <trkpt lat="42.621801" lon="0.920943">
        <ele>2132.522</ele>
        <time>2022-03-19T13:43:21Z</time>
      </trkpt>
      <trkpt lat="42.621859" lon="0.920908">
        <ele>2131.989</ele>
        <time>2022-03-19T13:43:23Z</time>
      </trkpt>
      <trkpt lat="42.621904" lon="0.920873">
        <ele>2131.213</ele>
        <time>2022-03-19T13:43:25Z</time>
      </trkpt>
      <trkpt lat="42.621946" lon="0.920820">
        <ele>2131.053</ele>
        <time>2022-03-19T13:43:27Z</time>
      </trkpt>
      <trkpt lat="42.621983" lon="0.920772">
        <ele>2130.904</ele>
        <time>2022-03-19T13:43:29Z</time>
      </trkpt>
      <trkpt lat="42.622038" lon="0.920709">
        <ele>2131.114</ele>
        <time>2022-03-19T13:43:35Z</time>
      </trkpt>
      <trkpt lat="42.622081" lon="0.920669">
        <ele>2130.908</ele>
        <time>2022-03-19T13:43:38Z</time>
      </trkpt>
      <trkpt lat="42.622133" lon="0.920624">
        <ele>2130.954</ele>
        <time>2022-03-19T13:43:44Z</time>
      </trkpt>
      <trkpt lat="42.622170" lon="0.920587">
        <ele>2131.162</ele>
        <time>2022-03-19T13:43:47Z</time>
      </trkpt>
      <trkpt lat="42.622228" lon="0.920557">
        <ele>2131.044</ele>
        <time>2022-03-19T13:43:49Z</time>
      </trkpt>
      <trkpt lat="42.622278" lon="0.920524">
        <ele>2130.013</ele>
        <time>2022-03-19T13:43:51Z</time>
      </trkpt>
      <trkpt lat="42.622331" lon="0.920497">
        <ele>2129.421</ele>
        <time>2022-03-19T13:43:53Z</time>
      </trkpt>
      <trkpt lat="42.622373" lon="0.920474">
        <ele>2129.073</ele>
        <time>2022-03-19T13:43:55Z</time>
      </trkpt>
      <trkpt lat="42.622431" lon="0.920444">
        <ele>2128.750</ele>
        <time>2022-03-19T13:43:58Z</time>
      </trkpt>
      <trkpt lat="42.622483" lon="0.920411">
        <ele>2129.324</ele>
        <time>2022-03-19T13:44:01Z</time>
      </trkpt>
      <trkpt lat="42.622543" lon="0.920359">
        <ele>2129.215</ele>
        <time>2022-03-19T13:44:04Z</time>
      </trkpt>
      <trkpt lat="42.622618" lon="0.920316">
        <ele>2129.465</ele>
        <time>2022-03-19T13:44:06Z</time>
      </trkpt>
      <trkpt lat="42.622688" lon="0.920269">
        <ele>2129.211</ele>
        <time>2022-03-19T13:44:08Z</time>
      </trkpt>
      <trkpt lat="42.622741" lon="0.920231">
        <ele>2129.208</ele>
        <time>2022-03-19T13:44:10Z</time>
      </trkpt>
      <trkpt lat="42.622794" lon="0.920203">
        <ele>2129.160</ele>
        <time>2022-03-19T13:44:12Z</time>
      </trkpt>
      <trkpt lat="42.622844" lon="0.920178">
        <ele>2129.178</ele>
        <time>2022-03-19T13:44:14Z</time>
      </trkpt>
      <trkpt lat="42.622906" lon="0.920156">
        <ele>2128.280</ele>
        <time>2022-03-19T13:44:17Z</time>
      </trkpt>
      <trkpt lat="42.622973" lon="0.920128">
        <ele>2127.999</ele>
        <time>2022-03-19T13:44:28Z</time>
      </trkpt>
      <trkpt lat="42.623101" lon="0.920113">
        <ele>2125.017</ele>
        <time>2022-03-19T13:44:50Z</time>
      </trkpt>
      <trkpt lat="42.623214" lon="0.920111">
        <ele>2127.099</ele>
        <time>2022-03-19T13:45:27Z</time>
      </trkpt>
      <trkpt lat="42.623262" lon="0.920129">
        <ele>2127.136</ele>
        <time>2022-03-19T13:45:29Z</time>
      </trkpt>
      <trkpt lat="42.623374" lon="0.920177">
        <ele>2127.660</ele>
        <time>2022-03-19T13:46:04Z</time>
      </trkpt>
      <trkpt lat="42.623489" lon="0.920197">
        <ele>2128.085</ele>
        <time>2022-03-19T13:46:16Z</time>
      </trkpt>
      <trkpt lat="42.623554" lon="0.920192">
        <ele>2128.389</ele>
        <time>2022-03-19T13:46:18Z</time>
      </trkpt>
      <trkpt lat="42.623647" lon="0.920282">
        <ele>2129.317</ele>
        <time>2022-03-19T13:46:41Z</time>
      </trkpt>
      <trkpt lat="42.623754" lon="0.920290">
        <ele>2129.908</ele>
        <time>2022-03-19T13:46:56Z</time>
      </trkpt>
      <trkpt lat="42.623814" lon="0.920298">
        <ele>2130.117</ele>
        <time>2022-03-19T13:47:00Z</time>
      </trkpt>
      <trkpt lat="42.623924" lon="0.920338">
        <ele>2130.875</ele>
        <time>2022-03-19T13:47:17Z</time>
      </trkpt>
      <trkpt lat="42.624024" lon="0.920398">
        <ele>2131.677</ele>
        <time>2022-03-19T13:47:31Z</time>
      </trkpt>
      <trkpt lat="42.624102" lon="0.920500">
        <ele>2132.576</ele>
        <time>2022-03-19T13:47:49Z</time>
      </trkpt>
      <trkpt lat="42.624169" lon="0.920383">
        <ele>2134.154</ele>
        <time>2022-03-19T13:48:22Z</time>
      </trkpt>
      <trkpt lat="42.624236" lon="0.920530">
        <ele>2130.426</ele>
        <time>2022-03-19T13:50:25Z</time>
      </trkpt>
      <trkpt lat="42.624270" lon="0.920565">
        <ele>2164.632</ele>
        <time>2022-03-20T09:06:34Z</time>
      </trkpt>
      <trkpt lat="42.624950" lon="0.918678">
        <ele>2164.692</ele>
        <time>2022-03-20T09:07:11Z</time>
      </trkpt>
      <trkpt lat="42.624796" lon="0.918165">
        <ele>2164.611</ele>
        <time>2022-03-20T09:07:47Z</time>
      </trkpt>
      <trkpt lat="42.623963" lon="0.917733">
        <ele>2172.708</ele>
        <time>2022-03-20T09:09:30Z</time>
      </trkpt>
      <trkpt lat="42.623662" lon="0.917254">
        <ele>2176.142</ele>
        <time>2022-03-20T09:10:48Z</time>
      </trkpt>
      <trkpt lat="42.623232" lon="0.916932">
        <ele>2190.961</ele>
        <time>2022-03-20T09:11:47Z</time>
      </trkpt>
      <trkpt lat="42.621880" lon="0.914718">
        <ele>2214.943</ele>
        <time>2022-03-20T09:16:14Z</time>
      </trkpt>
      <trkpt lat="42.621371" lon="0.912529">
        <ele>2223.694</ele>
        <time>2022-03-20T09:20:48Z</time>
      </trkpt>
      <trkpt lat="42.621558" lon="0.910912">
        <ele>2234.125</ele>
        <time>2022-03-20T09:23:56Z</time>
      </trkpt>
      <trkpt lat="42.621513" lon="0.909079">
        <ele>2253.588</ele>
        <time>2022-03-20T09:27:29Z</time>
      </trkpt>
      <trkpt lat="42.621399" lon="0.908809">
        <ele>2258.528</ele>
        <time>2022-03-20T09:28:19Z</time>
      </trkpt>
      <trkpt lat="42.621623" lon="0.908100">
        <ele>2275.046</ele>
        <time>2022-03-20T09:32:36Z</time>
      </trkpt>
      <trkpt lat="42.621486" lon="0.907672">
        <ele>2285.513</ele>
        <time>2022-03-20T09:33:24Z</time>
      </trkpt>
      <trkpt lat="42.621617" lon="0.907636">
        <ele>2284.343</ele>
        <time>2022-03-20T09:33:49Z</time>
      </trkpt>
      <trkpt lat="42.621504" lon="0.907361">
        <ele>2287.607</ele>
        <time>2022-03-20T09:34:32Z</time>
      </trkpt>
      <trkpt lat="42.621631" lon="0.907269">
        <ele>2290.808</ele>
        <time>2022-03-20T09:35:17Z</time>
      </trkpt>
      <trkpt lat="42.621457" lon="0.906985">
        <ele>2305.650</ele>
        <time>2022-03-20T09:36:43Z</time>
      </trkpt>
      <trkpt lat="42.621626" lon="0.906918">
        <ele>2306.279</ele>
        <time>2022-03-20T09:37:15Z</time>
      </trkpt>
      <trkpt lat="42.621470" lon="0.906604">
        <ele>2314.081</ele>
        <time>2022-03-20T09:38:08Z</time>
      </trkpt>
      <trkpt lat="42.621578" lon="0.906424">
        <ele>2317.242</ele>
        <time>2022-03-20T09:39:16Z</time>
      </trkpt>
      <trkpt lat="42.621274" lon="0.906028">
        <ele>2314.083</ele>
        <time>2022-03-20T09:41:33Z</time>
      </trkpt>
      <trkpt lat="42.621552" lon="0.905713">
        <ele>2332.176</ele>
        <time>2022-03-20T09:42:57Z</time>
      </trkpt>
      <trkpt lat="42.621398" lon="0.905456">
        <ele>2340.636</ele>
        <time>2022-03-20T09:44:06Z</time>
      </trkpt>
      <trkpt lat="42.621982" lon="0.905301">
        <ele>2372.564</ele>
        <time>2022-03-20T09:46:16Z</time>
      </trkpt>
      <trkpt lat="42.622155" lon="0.905066">
        <ele>2381.081</ele>
        <time>2022-03-20T09:47:01Z</time>
      </trkpt>
      <trkpt lat="42.621866" lon="0.904555">
        <ele>2393.161</ele>
        <time>2022-03-20T09:48:38Z</time>
      </trkpt>
      <trkpt lat="42.622089" lon="0.904231">
        <ele>2401.817</ele>
        <time>2022-03-20T09:49:46Z</time>
      </trkpt>
      <trkpt lat="42.622021" lon="0.903769">
        <ele>2402.708</ele>
        <time>2022-03-20T09:51:19Z</time>
      </trkpt>
      <trkpt lat="42.622190" lon="0.903700">
        <ele>2407.367</ele>
        <time>2022-03-20T09:51:58Z</time>
      </trkpt>
      <trkpt lat="42.622432" lon="0.903909">
        <ele>2422.476</ele>
        <time>2022-03-20T09:53:25Z</time>
      </trkpt>
      <trkpt lat="42.622659" lon="0.903242">
        <ele>2444.388</ele>
        <time>2022-03-20T09:55:06Z</time>
      </trkpt>
      <trkpt lat="42.622900" lon="0.903263">
        <ele>2446.159</ele>
        <time>2022-03-20T09:55:40Z</time>
      </trkpt>
      <trkpt lat="42.623263" lon="0.903055">
        <ele>2445.240</ele>
        <time>2022-03-20T09:56:21Z</time>
      </trkpt>
      <trkpt lat="42.623570" lon="0.903255">
        <ele>2445.363</ele>
        <time>2022-03-20T10:11:30Z</time>
      </trkpt>
      <trkpt lat="42.623914" lon="0.902549">
        <ele>2436.973</ele>
        <time>2022-03-20T10:13:50Z</time>
      </trkpt>
      <trkpt lat="42.624225" lon="0.902291">
        <ele>2433.211</ele>
        <time>2022-03-20T10:15:24Z</time>
      </trkpt>
      <trkpt lat="42.624199" lon="0.902815">
        <ele>2420.551</ele>
        <time>2022-03-20T10:16:28Z</time>
      </trkpt>
      <trkpt lat="42.624852" lon="0.903071">
        <ele>2384.701</ele>
        <time>2022-03-20T10:22:17Z</time>
      </trkpt>
      <trkpt lat="42.625016" lon="0.904333">
        <ele>2359.911</ele>
        <time>2022-03-20T10:24:28Z</time>
      </trkpt>
      <trkpt lat="42.625412" lon="0.903365">
        <ele>2353.708</ele>
        <time>2022-03-20T10:26:09Z</time>
      </trkpt>
      <trkpt lat="42.626755" lon="0.903003">
        <ele>2329.424</ele>
        <time>2022-03-20T10:28:07Z</time>
      </trkpt>
      <trkpt lat="42.627171" lon="0.903277">
        <ele>2328.723</ele>
        <time>2022-03-20T10:28:22Z</time>
      </trkpt>
      <trkpt lat="42.627599" lon="0.903821">
        <ele>2329.515</ele>
        <time>2022-03-20T10:28:55Z</time>
      </trkpt>
      <trkpt lat="42.628118" lon="0.903294">
        <ele>2328.166</ele>
        <time>2022-03-20T10:30:12Z</time>
      </trkpt>
      <trkpt lat="42.628776" lon="0.903002">
        <ele>2308.397</ele>
        <time>2022-03-20T10:33:08Z</time>
      </trkpt>
      <trkpt lat="42.629335" lon="0.903454">
        <ele>2297.370</ele>
        <time>2022-03-20T10:33:30Z</time>
      </trkpt>
      <trkpt lat="42.629662" lon="0.904320">
        <ele>2293.710</ele>
        <time>2022-03-20T10:34:14Z</time>
      </trkpt>
      <trkpt lat="42.630147" lon="0.904913">
        <ele>2286.638</ele>
        <time>2022-03-20T10:37:38Z</time>
      </trkpt>
      <trkpt lat="42.631610" lon="0.905995">
        <ele>2269.098</ele>
        <time>2022-03-20T10:38:49Z</time>
      </trkpt>
      <trkpt lat="42.632988" lon="0.905510">
        <ele>2278.515</ele>
        <time>2022-03-20T10:43:42Z</time>
      </trkpt>
      <trkpt lat="42.633546" lon="0.904838">
        <ele>2264.426</ele>
        <time>2022-03-20T10:44:56Z</time>
      </trkpt>
      <trkpt lat="42.634049" lon="0.904232">
        <ele>2218.608</ele>
        <time>2022-03-20T11:00:02Z</time>
      </trkpt>
      <trkpt lat="42.634092" lon="0.903070">
        <ele>2255.548</ele>
        <time>2022-03-20T11:06:54Z</time>
      </trkpt>
      <trkpt lat="42.634640" lon="0.902412">
        <ele>2218.867</ele>
        <time>2022-03-20T11:12:35Z</time>
      </trkpt>
      <trkpt lat="42.634782" lon="0.902522">
        <ele>2214.769</ele>
        <time>2022-03-20T11:15:18Z</time>
      </trkpt>
      <trkpt lat="42.634701" lon="0.903133">
        <ele>2213.240</ele>
        <time>2022-03-20T11:15:41Z</time>
      </trkpt>
      <trkpt lat="42.635259" lon="0.902938">
        <ele>2180.881</ele>
        <time>2022-03-20T11:18:59Z</time>
      </trkpt>
      <trkpt lat="42.635275" lon="0.903113">
        <ele>2178.684</ele>
        <time>2022-03-20T11:19:03Z</time>
      </trkpt>
      <trkpt lat="42.635558" lon="0.903046">
        <ele>2163.224</ele>
        <time>2022-03-20T11:19:14Z</time>
      </trkpt>
      <trkpt lat="42.635580" lon="0.903243">
        <ele>2156.632</ele>
        <time>2022-03-20T11:19:18Z</time>
      </trkpt>
      <trkpt lat="42.635936" lon="0.903491">
        <ele>2147.887</ele>
        <time>2022-03-20T11:19:59Z</time>
      </trkpt>
      <trkpt lat="42.636437" lon="0.903262">
        <ele>2124.942</ele>
        <time>2022-03-20T11:20:32Z</time>
      </trkpt>
      <trkpt lat="42.636956" lon="0.903530">
        <ele>2114.726</ele>
        <time>2022-03-20T11:21:01Z</time>
      </trkpt>
      <trkpt lat="42.637469" lon="0.903419">
        <ele>2105.008</ele>
        <time>2022-03-20T11:21:43Z</time>
      </trkpt>
      <trkpt lat="42.637542" lon="0.903709">
        <ele>2105.537</ele>
        <time>2022-03-20T11:22:30Z</time>
      </trkpt>
      <trkpt lat="42.637597" lon="0.903529">
        <ele>2102.116</ele>
        <time>2022-03-20T11:23:16Z</time>
      </trkpt>
      <trkpt lat="42.637667" lon="0.903485">
        <ele>2092.588</ele>
        <time>2022-03-20T11:25:29Z</time>
      </trkpt>
      <trkpt lat="42.638525" lon="0.904051">
        <ele>2081.559</ele>
        <time>2022-03-20T11:33:04Z</time>
      </trkpt>
      <trkpt lat="42.639174" lon="0.903817">
        <ele>2064.630</ele>
        <time>2022-03-20T11:38:07Z</time>
      </trkpt>
      <trkpt lat="42.639562" lon="0.903343">
        <ele>2056.243</ele>
        <time>2022-03-20T11:39:00Z</time>
      </trkpt>
      <trkpt lat="42.639777" lon="0.903360">
        <ele>2055.823</ele>
        <time>2022-03-20T11:39:10Z</time>
      </trkpt>
      <trkpt lat="42.640015" lon="0.903890">
        <ele>2053.481</ele>
        <time>2022-03-20T11:40:55Z</time>
      </trkpt>
      <trkpt lat="42.640080" lon="0.903732">
        <ele>2047.826</ele>
        <time>2022-03-20T11:49:06Z</time>
      </trkpt>
      <trkpt lat="42.640350" lon="0.904024">
        <ele>2050.247</ele>
        <time>2022-03-20T11:50:32Z</time>
      </trkpt>
      <trkpt lat="42.640762" lon="0.903996">
        <ele>2054.911</ele>
        <time>2022-03-20T11:52:25Z</time>
      </trkpt>
      <trkpt lat="42.640999" lon="0.903764">
        <ele>2061.308</ele>
        <time>2022-03-20T11:54:44Z</time>
      </trkpt>
      <trkpt lat="42.641764" lon="0.902147">
        <ele>2059.141</ele>
        <time>2022-03-20T11:59:59Z</time>
      </trkpt>
      <trkpt lat="42.641827" lon="0.901290">
        <ele>2060.670</ele>
        <time>2022-03-20T12:01:00Z</time>
      </trkpt>
      <trkpt lat="42.641630" lon="0.900657">
        <ele>2053.422</ele>
        <time>2022-03-20T12:12:59Z</time>
      </trkpt>
      <trkpt lat="42.641757" lon="0.900477">
        <ele>2048.483</ele>
        <time>2022-03-20T12:13:54Z</time>
      </trkpt>
      <trkpt lat="42.641666" lon="0.899903">
        <ele>2034.344</ele>
        <time>2022-03-20T12:16:44Z</time>
      </trkpt>
      <trkpt lat="42.641794" lon="0.899521">
        <ele>2020.387</ele>
        <time>2022-03-20T12:17:06Z</time>
      </trkpt>
      <trkpt lat="42.641818" lon="0.898646">
        <ele>1980.967</ele>
        <time>2022-03-20T12:22:00Z</time>
      </trkpt>
      <trkpt lat="42.641893" lon="0.898310">
        <ele>1977.315</ele>
        <time>2022-03-20T12:22:58Z</time>
      </trkpt>
      <trkpt lat="42.641965" lon="0.896166">
        <ele>1924.723</ele>
        <time>2022-03-20T12:32:21Z</time>
      </trkpt>
      <trkpt lat="42.642117" lon="0.896277">
        <ele>1917.583</ele>
        <time>2022-03-20T12:38:32Z</time>
      </trkpt>
      <trkpt lat="42.642356" lon="0.895863">
        <ele>1909.011</ele>
        <time>2022-03-20T12:42:05Z</time>
      </trkpt>
      <trkpt lat="42.642788" lon="0.895511">
        <ele>1897.808</ele>
        <time>2022-03-20T12:42:45Z</time>
      </trkpt>
      <trkpt lat="42.643211" lon="0.895791">
        <ele>1883.251</ele>
        <time>2022-03-20T12:43:19Z</time>
      </trkpt>
      <trkpt lat="42.644423" lon="0.895737">
        <ele>1864.930</ele>
        <time>2022-03-20T12:44:20Z</time>
      </trkpt>
      <trkpt lat="42.646337" lon="0.896294">
        <ele>1844.122</ele>
        <time>2022-03-20T12:45:46Z</time>
      </trkpt>
      <trkpt lat="42.647230" lon="0.895874">
        <ele>1838.643</ele>
        <time>2022-03-20T12:49:20Z</time>
      </trkpt>
      <trkpt lat="42.648729" lon="0.894878">
        <ele>1822.874</ele>
        <time>2022-03-20T12:50:12Z</time>
      </trkpt>
      <trkpt lat="42.647546" lon="0.894079">
        <ele>1805.847</ele>
        <time>2022-03-20T12:52:32Z</time>
      </trkpt>
      <trkpt lat="42.647460" lon="0.893779">
        <ele>1799.467</ele>
        <time>2022-03-20T12:52:42Z</time>
      </trkpt>
      <trkpt lat="42.647835" lon="0.893465">
        <ele>1785.845</ele>
        <time>2022-03-20T12:52:53Z</time>
      </trkpt>
      <trkpt lat="42.648751" lon="0.893590">
        <ele>1766.453</ele>
        <time>2022-03-20T12:54:21Z</time>
      </trkpt>
      <trkpt lat="42.648952" lon="0.893466">
        <ele>1765.304</ele>
        <time>2022-03-20T12:54:30Z</time>
      </trkpt>
      <trkpt lat="42.649075" lon="0.893017">
        <ele>1760.214</ele>
        <time>2022-03-20T12:55:51Z</time>
      </trkpt>
      <trkpt lat="42.649597" lon="0.892901">
        <ele>1745.108</ele>
        <time>2022-03-20T12:56:04Z</time>
      </trkpt>
      <trkpt lat="42.649632" lon="0.892683">
        <ele>1739.434</ele>
        <time>2022-03-20T12:56:14Z</time>
      </trkpt>
      <trkpt lat="42.649943" lon="0.892627">
        <ele>1732.233</ele>
        <time>2022-03-20T12:56:24Z</time>
      </trkpt>
      <trkpt lat="42.649791" lon="0.892408">
        <ele>1730.745</ele>
        <time>2022-03-20T12:56:33Z</time>
      </trkpt>
      <trkpt lat="42.650324" lon="0.891872">
        <ele>1718.796</ele>
        <time>2022-03-20T13:01:19Z</time>
      </trkpt>
      <trkpt lat="42.650858" lon="0.890505">
        <ele>1711.537</ele>
        <time>2022-03-20T13:03:54Z</time>
      </trkpt>
      <trkpt lat="42.652531" lon="0.889216">
        <ele>1689.770</ele>
        <time>2022-03-20T13:04:22Z</time>
      </trkpt>
      <trkpt lat="42.653150" lon="0.888173">
        <ele>1684.260</ele>
        <time>2022-03-20T13:04:47Z</time>
      </trkpt>
      <trkpt lat="42.653548" lon="0.887903">
        <ele>1682.368</ele>
        <time>2022-03-20T13:05:24Z</time>
      </trkpt>
      <trkpt lat="42.654265" lon="0.886654">
        <ele>1672.782</ele>
        <time>2022-03-20T13:06:04Z</time>
      </trkpt>
      <trkpt lat="42.654971" lon="0.886490">
        <ele>1665.643</ele>
        <time>2022-03-20T13:06:50Z</time>
      </trkpt>
      <trkpt lat="42.655718" lon="0.885773">
        <ele>1655.517</ele>
        <time>2022-03-20T13:07:18Z</time>
      </trkpt>
      <trkpt lat="42.655947" lon="0.884518">
        <ele>1644.008</ele>
        <time>2022-03-20T13:09:29Z</time>
      </trkpt>
      <trkpt lat="42.656160" lon="0.882140">
        <ele>1629.787</ele>
        <time>2022-03-20T13:12:32Z</time>
      </trkpt>
      <trkpt lat="42.656510" lon="0.880883">
        <ele>1626.136</ele>
        <time>2022-03-20T13:17:15Z</time>
      </trkpt>
      <trkpt lat="42.657081" lon="0.880398">
        <ele>1616.718</ele>
        <time>2022-03-20T13:19:30Z</time>
      </trkpt>
      <trkpt lat="42.657206" lon="0.879575">
        <ele>1607.719</ele>
        <time>2022-03-20T13:23:32Z</time>
      </trkpt>
      <trkpt lat="42.657261" lon="0.878725">
        <ele>1596.980</ele>
        <time>2022-03-20T13:29:33Z</time>
      </trkpt>
      <trkpt lat="42.657381" lon="0.878275">
        <ele>1595.363</ele>
        <time>2022-03-20T13:30:03Z</time>
      </trkpt>
      <trkpt lat="42.657047" lon="0.877092">
        <ele>1579.293</ele>
        <time>2022-03-20T13:31:29Z</time>
      </trkpt>
      <trkpt lat="42.656207" lon="0.876849">
        <ele>1563.931</ele>
        <time>2022-03-20T13:33:07Z</time>
      </trkpt>
      <trkpt lat="42.656001" lon="0.877051">
        <ele>1561.971</ele>
        <time>2022-03-20T13:33:34Z</time>
      </trkpt>
      <trkpt lat="42.655521" lon="0.877089">
        <ele>1556.341</ele>
        <time>2022-03-20T13:34:13Z</time>
      </trkpt>
      <trkpt lat="42.655412" lon="0.876754">
        <ele>1549.715</ele>
        <time>2022-03-20T13:34:42Z</time>
      </trkpt>
      <trkpt lat="42.655862" lon="0.876515">
        <ele>1555.208</ele>
        <time>2022-03-20T13:35:34Z</time>
      </trkpt>
      <trkpt lat="42.656197" lon="0.876005">
        <ele>1555.376</ele>
        <time>2022-03-20T13:36:26Z</time>
      </trkpt>
      <trkpt lat="42.656627" lon="0.875673">
        <ele>1553.755</ele>
        <time>2022-03-20T13:37:03Z</time>
      </trkpt>
      <trkpt lat="42.657402" lon="0.875699">
        <ele>1544.727</ele>
        <time>2022-03-20T13:38:21Z</time>
      </trkpt>
      <trkpt lat="42.657979" lon="0.876060">
        <ele>1522.558</ele>
        <time>2022-03-20T13:39:16Z</time>
      </trkpt>
      <trkpt lat="42.657083" lon="0.875125">
        <ele>1486.029</ele>
        <time>2022-03-20T13:41:08Z</time>
      </trkpt>
      <trkpt lat="42.656594" lon="0.874902">
        <ele>1472.832</ele>
        <time>2022-03-20T13:41:55Z</time>
      </trkpt>
      <trkpt lat="42.656500" lon="0.874203">
        <ele>1460.832</ele>
        <time>2022-03-20T13:42:40Z</time>
      </trkpt>
      <trkpt lat="42.655957" lon="0.874160">
        <ele>1467.110</ele>
        <time>2022-03-20T13:43:16Z</time>
      </trkpt>
      <trkpt lat="42.655922" lon="0.874008">
        <ele>1465.416</ele>
        <time>2022-03-20T13:43:36Z</time>
      </trkpt>
      <trkpt lat="42.656183" lon="0.873508">
        <ele>1468.176</ele>
        <time>2022-03-20T13:44:12Z</time>
      </trkpt>
      <trkpt lat="42.656701" lon="0.873226">
        <ele>1464.913</ele>
        <time>2022-03-20T13:44:58Z</time>
      </trkpt>
      <trkpt lat="42.657381" lon="0.873647">
        <ele>1448.208</ele>
        <time>2022-03-20T13:46:11Z</time>
      </trkpt>
      <trkpt lat="42.657618" lon="0.873582">
        <ele>1448.650</ele>
        <time>2022-03-20T13:46:21Z</time>
      </trkpt>
      <trkpt lat="42.657604" lon="0.873407">
        <ele>1449.229</ele>
        <time>2022-03-20T13:46:34Z</time>
      </trkpt>
      <trkpt lat="42.656059" lon="0.871664">
        <ele>1430.921</ele>
        <time>2022-03-20T13:49:41Z</time>
      </trkpt>
      <trkpt lat="42.654708" lon="0.871094">
        <ele>1414.692</ele>
        <time>2022-03-20T13:51:41Z</time>
      </trkpt>
      <trkpt lat="42.654137" lon="0.870697">
        <ele>1415.793</ele>
        <time>2022-03-20T13:52:36Z</time>
      </trkpt>
      <trkpt lat="42.654179" lon="0.870525">
        <ele>1415.016</ele>
        <time>2022-03-20T13:52:44Z</time>
      </trkpt>
      <trkpt lat="42.654411" lon="0.870495">
        <ele>1415.436</ele>
        <time>2022-03-20T13:53:06Z</time>
      </trkpt>
    </trkseg>
  </trk>
</gpx>
